Wetterdaten: aktuell Montag, 17.06.2019 18:52
Datum Zeit Temp. 2m Temp. 5cm Feuchte A. Luftdruck Regen Wind Richtung Richtung ET UV Solar Taupunkt Windchill Windben Empfang
17.06.2019 18:52 19,8 C 19,4 C 73 % 1018,4 hPa 0,0 l/m 9,7 km/h (2 Bft) O 90 0,000 mm 0,0 UV-I 111 W/m 14,8 C 18,5 C 16,1 km/h (3 Bft) 86,96 %
17.06.2019 18:51 19,9 C 19,4 C 74 % 1018,4 hPa 0,0 l/m 12,9 km/h (3 Bft) O-SO 112 0,000 mm 0,0 UV-I 113 W/m 15,1 C 17,7 C 17,7 km/h (3 Bft) 95,65 %
17.06.2019 18:50 19,9 C 19,4 C 72 % 1018,5 hPa 0,0 l/m 11,3 km/h (2 Bft) O-SO 112 0,000 mm 0,0 UV-I 114 W/m 14,7 C 18,1 C 17,7 km/h (3 Bft) 91,30 %
17.06.2019 18:49 19,9 C 20,0 C 72 % 1018,6 hPa 0,0 l/m 19,3 km/h (3 Bft) O-SO 112 0,000 mm 0,0 UV-I 114 W/m 14,7 C 16,2 C 27,4 km/h (4 Bft) 95,65 %
17.06.2019 18:48 19,9 C 20,0 C 71 % 1018,4 hPa 0,0 l/m 16,1 km/h (3 Bft) O 90 0,000 mm 0,0 UV-I 114 W/m 14,5 C 16,9 C 20,9 km/h (4 Bft) 95,65 %
17.06.2019 18:47 19,9 C 20,0 C 73 % 1018,5 hPa 0,0 l/m 16,1 km/h (3 Bft) O-SO 112 0,000 mm 0,0 UV-I 116 W/m 14,9 C 16,9 C 25,7 km/h (4 Bft) 91,30 %
17.06.2019 18:46 19,9 C 20,0 C 74 % 1018,6 hPa 0,0 l/m 12,9 km/h (3 Bft) O 90 0,000 mm 0,0 UV-I 116 W/m 15,1 C 17,7 C 22,5 km/h (4 Bft) 95,65 %
17.06.2019 18:45 19,9 C 20,0 C 74 % 1018,5 hPa 0,0 l/m 12,9 km/h (3 Bft) O 90 0,000 mm 0,0 UV-I 118 W/m 15,1 C 17,7 C 19,3 km/h (3 Bft) 95,65 %
17.06.2019 18:44 19,9 C 20,0 C 74 % 1018,6 hPa 0,0 l/m 12,9 km/h (3 Bft) O 90 0,000 mm 0,0 UV-I 118 W/m 15,1 C 17,7 C 22,5 km/h (4 Bft) 78,26 %
17.06.2019 18:43 19,9 C 20,0 C 74 % 1018,6 hPa 0,0 l/m 11,3 km/h (2 Bft) O 90 0,000 mm 0,0 UV-I 118 W/m 15,1 C 18,1 C 19,3 km/h (3 Bft) 95,65 %
17.06.2019 18:42 20,0 C 20,0 C 74 % 1018,6 hPa 0,0 l/m 9,7 km/h (2 Bft) O 90 0,000 mm 0,0 UV-I 118 W/m 15,2 C 18,7 C 16,1 km/h (3 Bft) 82,61 %
17.06.2019 18:41 20,0 C 20,0 C 71 % 1018,6 hPa 0,0 l/m 11,3 km/h (2 Bft) O 90 0,000 mm 0,0 UV-I 120 W/m 14,6 C 18,2 C 17,7 km/h (3 Bft) 95,65 %
17.06.2019 18:40 20,1 C 20,0 C 73 % 1018,5 hPa 0,0 l/m 17,7 km/h (3 Bft) O 90 0,000 mm 0,0 UV-I 120 W/m 15,1 C 16,8 C 25,7 km/h (4 Bft) 95,65 %
17.06.2019 18:39 20,1 C 20,0 C 73 % 1018,5 hPa 0,0 l/m 12,9 km/h (3 Bft) O 90 0,000 mm 0,0 UV-I 121 W/m 15,1 C 17,9 C 20,9 km/h (4 Bft) 91,30 %
17.06.2019 18:38 20,1 C 20,0 C 73 % 1018,6 hPa 0,0 l/m 16,1 km/h (3 Bft) O-SO 112 0,000 mm 0,5 UV-I 123 W/m 15,1 C 17,1 C 22,5 km/h (4 Bft) 91,30 %
17.06.2019 18:37 20,1 C 20,0 C 71 % 1018,6 hPa 0,0 l/m 16,1 km/h (3 Bft) O-SO 112 0,000 mm 0,5 UV-I 125 W/m 14,7 C 17,1 C 20,9 km/h (4 Bft) 82,61 %
17.06.2019 18:36 20,1 C 20,0 C 72 % 1018,6 hPa 0,0 l/m 16,1 km/h (3 Bft) O-SO 112 0,000 mm 0,5 UV-I 125 W/m 14,9 C 17,1 C 22,5 km/h (4 Bft) 86,96 %
17.06.2019 18:35 20,1 C 20,0 C 73 % 1018,5 hPa 0,0 l/m 14,5 km/h (3 Bft) O 90 0,000 mm 0,5 UV-I 127 W/m 15,1 C 17,5 C 24,1 km/h (4 Bft) 86,96 %
17.06.2019 18:34 20,2 C 20,0 C 74 % 1018,6 hPa 0,0 l/m 12,9 km/h (3 Bft) O 90 0,000 mm 0,5 UV-I 127 W/m 15,4 C 18,0 C 19,3 km/h (3 Bft) 82,61 %
17.06.2019 18:33 20,2 C 20,0 C 73 % 1018,5 hPa 0,0 l/m 16,1 km/h (3 Bft) O 90 0,000 mm 0,5 UV-I 128 W/m 15,2 C 17,2 C 24,1 km/h (4 Bft) 91,30 %
17.06.2019 18:32 20,2 C 20,0 C 73 % 1018,5 hPa 0,0 l/m 12,9 km/h (3 Bft) O 90 0,000 mm 0,5 UV-I 130 W/m 15,2 C 18,0 C 19,3 km/h (3 Bft) 91,30 %
17.06.2019 18:31 20,2 C 20,0 C 72 % 1018,5 hPa 0,0 l/m 16,1 km/h (3 Bft) O 90 0,000 mm 0,5 UV-I 130 W/m 15,0 C 17,2 C 22,5 km/h (4 Bft) 91,30 %
17.06.2019 18:30 20,2 C 20,6 C 72 % 1018,5 hPa 0,0 l/m 16,1 km/h (3 Bft) O 90 0,000 mm 0,5 UV-I 130 W/m 15,0 C 17,2 C 24,1 km/h (4 Bft) 91,30 %
17.06.2019 18:29 20,2 C 20,6 C 71 % 1018,5 hPa 0,0 l/m 14,5 km/h (3 Bft) O 90 0,000 mm 0,5 UV-I 130 W/m 14,8 C 17,6 C 19,3 km/h (3 Bft) 95,65 %
17.06.2019 18:28 20,2 C 20,6 C 73 % 1018,5 hPa 0,0 l/m 16,1 km/h (3 Bft) O-SO 112 0,000 mm 0,5 UV-I 132 W/m 15,2 C 17,2 C 22,5 km/h (4 Bft) 82,61 %
17.06.2019 18:27 20,2 C 20,6 C 73 % 1018,6 hPa 0,0 l/m 17,7 km/h (3 Bft) O 90 0,000 mm 0,5 UV-I 134 W/m 15,2 C 16,9 C 25,7 km/h (4 Bft) 95,65 %
17.06.2019 18:26 20,2 C 20,6 C 72 % 1018,5 hPa 0,0 l/m 14,5 km/h (3 Bft) O-SO 112 0,000 mm 0,5 UV-I 134 W/m 15,0 C 17,6 C 22,5 km/h (4 Bft) 82,61 %
17.06.2019 18:25 20,3 C 20,6 C 73 % 1018,5 hPa 0,0 l/m 19,3 km/h (3 Bft) O 90 0,000 mm 0,5 UV-I 135 W/m 15,3 C 16,7 C 24,1 km/h (4 Bft) 86,96 %
17.06.2019 18:24 20,3 C 20,6 C 72 % 1018,5 hPa 0,0 l/m 19,3 km/h (3 Bft) O 90 0,000 mm 0,5 UV-I 137 W/m 15,1 C 16,7 C 22,5 km/h (4 Bft) 100,00 %
17.06.2019 18:23 20,3 C 20,6 C 72 % 1018,5 hPa 0,0 l/m 19,3 km/h (3 Bft) O 90 0,000 mm 0,6 UV-I 141 W/m 15,1 C 16,7 C 24,1 km/h (4 Bft) 91,30 %
17.06.2019 18:22 20,3 C 20,6 C 75 % 1018,5 hPa 0,0 l/m 14,5 km/h (3 Bft) O 90 0,000 mm 0,6 UV-I 146 W/m 15,7 C 17,7 C 19,3 km/h (3 Bft) 91,30 %
17.06.2019 18:21 20,4 C 20,6 C 74 % 1018,5 hPa 0,0 l/m 14,5 km/h (3 Bft) O 90 0,000 mm 0,6 UV-I 148 W/m 15,6 C 17,9 C 19,3 km/h (3 Bft) 100,00 %
17.06.2019 18:20 20,3 C 20,6 C 71 % 1018,5 hPa 0,0 l/m 14,5 km/h (3 Bft) O-SO 112 0,000 mm 0,6 UV-I 149 W/m 14,9 C 17,7 C 17,7 km/h (3 Bft) 95,65 %
17.06.2019 18:19 20,4 C 20,6 C 71 % 1018,5 hPa 0,0 l/m 17,7 km/h (3 Bft) O 90 0,000 mm 0,6 UV-I 151 W/m 15,0 C 17,2 C 22,5 km/h (4 Bft) 91,30 %
17.06.2019 18:18 20,3 C 20,6 C 72 % 1018,5 hPa 0,0 l/m 20,9 km/h (4 Bft) O-SO 112 0,000 mm 0,6 UV-I 153 W/m 15,1 C 16,4 C 29,0 km/h (5 Bft) 91,30 %
17.06.2019 18:17 20,3 C 20,6 C 71 % 1018,5 hPa 0,0 l/m 17,7 km/h (3 Bft) O 90 0,000 mm 0,6 UV-I 155 W/m 14,9 C 17,0 C 25,7 km/h (4 Bft) 95,65 %
17.06.2019 18:16 20,3 C 20,6 C 71 % 1018,5 hPa 0,0 l/m 20,9 km/h (4 Bft) O 90 0,000 mm 0,6 UV-I 158 W/m 14,9 C 16,4 C 32,2 km/h (5 Bft) 100,00 %
17.06.2019 18:15 20,4 C 20,6 C 72 % 1018,5 hPa 0,0 l/m 17,7 km/h (3 Bft) O 90 0,000 mm 0,6 UV-I 160 W/m 15,2 C 17,2 C 24,1 km/h (4 Bft) 95,65 %
17.06.2019 18:14 20,3 C 20,6 C 68 % 1018,5 hPa 0,0 l/m 11,3 km/h (2 Bft) O-SO 112 0,000 mm 0,6 UV-I 162 W/m 14,2 C 18,6 C 16,1 km/h (3 Bft) 95,65 %
17.06.2019 18:13 20,3 C 20,6 C 68 % 1018,5 hPa 0,0 l/m 16,1 km/h (3 Bft) O 90 0,000 mm 0,7 UV-I 162 W/m 14,2 C 17,4 C 29,0 km/h (5 Bft) 100,00 %
17.06.2019 18:12 20,3 C 20,6 C 70 % 1018,5 hPa 0,0 l/m 16,1 km/h (3 Bft) O 90 0,000 mm 0,7 UV-I 167 W/m 14,6 C 17,4 C 25,7 km/h (4 Bft) 100,00 %
17.06.2019 18:11 20,3 C 20,6 C 72 % 1018,5 hPa 0,0 l/m 17,7 km/h (3 Bft) O-SO 112 0,000 mm 0,7 UV-I 169 W/m 15,1 C 17,0 C 22,5 km/h (4 Bft) 78,26 %
17.06.2019 18:10 20,4 C 20,6 C 73 % 1018,5 hPa 0,0 l/m 17,7 km/h (3 Bft) O 90 0,000 mm 0,7 UV-I 169 W/m 15,4 C 17,2 C 24,1 km/h (4 Bft) 100,00 %
17.06.2019 18:09 20,5 C 20,6 C 73 % 1018,5 hPa 0,0 l/m 17,7 km/h (3 Bft) O 90 0,000 mm 0,7 UV-I 172 W/m 15,5 C 17,3 C 27,4 km/h (4 Bft) 91,30 %
17.06.2019 18:08 20,5 C 20,6 C 71 % 1018,5 hPa 0,0 l/m 16,1 km/h (3 Bft) O 90 0,000 mm 0,7 UV-I 174 W/m 15,1 C 17,6 C 22,5 km/h (4 Bft) 86,96 %
17.06.2019 18:07 20,6 C 20,6 C 70 % 1018,5 hPa 0,0 l/m 19,3 km/h (3 Bft) O-SO 112 0,000 mm 0,7 UV-I 176 W/m 14,9 C 17,1 C 25,7 km/h (4 Bft) 100,00 %
17.06.2019 18:06 20,6 C 20,6 C 70 % 1018,5 hPa 0,0 l/m 17,7 km/h (3 Bft) O 90 0,000 mm 0,7 UV-I 178 W/m 14,9 C 17,4 C 24,1 km/h (4 Bft) 91,30 %
17.06.2019 18:05 20,6 C 20,6 C 69 % 1018,5 hPa 0,0 l/m 19,3 km/h (3 Bft) O 90 0,000 mm 0,8 UV-I 179 W/m 14,7 C 17,1 C 30,6 km/h (5 Bft) 100,00 %
17.06.2019 18:04 20,6 C 20,6 C 70 % 1018,5 hPa 0,0 l/m 20,9 km/h (4 Bft) O-SO 112 0,000 mm 0,8 UV-I 183 W/m 14,9 C 16,8 C 33,8 km/h (5 Bft) 95,65 %
17.06.2019 18:03 20,6 C 20,6 C 69 % 1018,5 hPa 0,0 l/m 20,9 km/h (4 Bft) O-SO 112 0,000 mm 0,8 UV-I 185 W/m 14,7 C 16,8 C 29,0 km/h (5 Bft) 100,00 %
17.06.2019 18:02 20,7 C 20,6 C 67 % 1018,5 hPa 0,0 l/m 16,1 km/h (3 Bft) O 90 0,000 mm 0,8 UV-I 186 W/m 14,3 C 17,9 C 24,1 km/h (4 Bft) 95,65 %
17.06.2019 18:01 20,7 C 20,6 C 70 % 1018,5 hPa 0,0 l/m 20,9 km/h (4 Bft) O-SO 112 0,000 mm 0,8 UV-I 188 W/m 15,0 C 17,0 C 27,4 km/h (4 Bft) 86,96 %
17.06.2019 18:00 20,7 C 20,6 C 71 % 1018,5 hPa 0,0 l/m 20,9 km/h (4 Bft) O 90 0,229 mm 0,8 UV-I 190 W/m 15,2 C 17,0 C 27,4 km/h (4 Bft) 82,61 %
17.06.2019 17:59 20,7 C 20,6 C 70 % 1018,5 hPa 0,0 l/m 16,1 km/h (3 Bft) O 90 0,000 mm 0,8 UV-I 190 W/m 15,0 C 17,9 C 24,1 km/h (4 Bft) 95,65 %
17.06.2019 17:58 20,7 C 20,6 C 70 % 1018,5 hPa 0,0 l/m 19,3 km/h (3 Bft) O 90 0,000 mm 0,9 UV-I 190 W/m 15,0 C 17,2 C 24,1 km/h (4 Bft) 95,65 %
17.06.2019 17:57 20,7 C 20,6 C 70 % 1018,5 hPa 0,0 l/m 14,5 km/h (3 Bft) O 90 0,000 mm 0,9 UV-I 190 W/m 15,0 C 18,2 C 19,3 km/h (3 Bft) 100,00 %
17.06.2019 17:56 20,6 C 20,6 C 70 % 1018,5 hPa 0,0 l/m 12,9 km/h (3 Bft) O-SO 112 0,000 mm 0,9 UV-I 190 W/m 14,9 C 18,5 C 20,9 km/h (4 Bft) 86,96 %
17.06.2019 17:55 20,6 C 20,6 C 70 % 1018,5 hPa 0,0 l/m 20,9 km/h (4 Bft) O 90 0,000 mm 0,9 UV-I 190 W/m 14,9 C 16,8 C 25,7 km/h (4 Bft) 95,65 %
17.06.2019 17:54 20,6 C 20,6 C 71 % 1018,5 hPa 0,0 l/m 20,9 km/h (4 Bft) O-SO 112 0,000 mm 0,9 UV-I 190 W/m 15,2 C 16,8 C 32,2 km/h (5 Bft) 95,65 %
17.06.2019 17:53 20,6 C 20,6 C 72 % 1018,5 hPa 0,0 l/m 17,7 km/h (3 Bft) O-SO 112 0,000 mm 0,9 UV-I 190 W/m 15,4 C 17,4 C 22,5 km/h (4 Bft) 91,30 %
17.06.2019 17:52 20,6 C 20,6 C 68 % 1018,5 hPa 0,0 l/m 17,7 km/h (3 Bft) O 90 0,000 mm 0,9 UV-I 190 W/m 14,5 C 17,4 C 22,5 km/h (4 Bft) 82,61 %
17.06.2019 17:51 20,6 C 20,6 C 69 % 1018,5 hPa 0,0 l/m 16,1 km/h (3 Bft) O 90 0,000 mm 0,9 UV-I 188 W/m 14,7 C 17,7 C 24,1 km/h (4 Bft) 95,65 %
17.06.2019 17:50 20,6 C 20,6 C 71 % 1018,5 hPa 0,0 l/m 19,3 km/h (3 Bft) O 90 0,000 mm 0,9 UV-I 190 W/m 15,2 C 17,1 C 27,4 km/h (4 Bft) 82,61 %
17.06.2019 17:49 20,5 C 20,6 C 70 % 1018,5 hPa 0,0 l/m 17,7 km/h (3 Bft) O 90 0,000 mm 0,9 UV-I 190 W/m 14,8 C 17,3 C 20,9 km/h (4 Bft) 95,65 %
17.06.2019 17:48 20,4 C 20,6 C 71 % 1018,5 hPa 0,0 l/m 17,7 km/h (3 Bft) O 90 0,000 mm 0,9 UV-I 190 W/m 15,0 C 17,2 C 24,1 km/h (4 Bft) 91,30 %
17.06.2019 17:47 20,4 C 21,1 C 71 % 1018,5 hPa 0,0 l/m 17,7 km/h (3 Bft) O 90 0,000 mm 0,9 UV-I 188 W/m 15,0 C 17,2 C 19,3 km/h (3 Bft) 91,30 %
17.06.2019 17:46 20,4 C 21,1 C 72 % 1018,5 hPa 0,0 l/m 9,7 km/h (2 Bft) O 90 0,000 mm 1,0 UV-I 188 W/m 15,2 C 19,2 C 19,3 km/h (3 Bft) 95,65 %
17.06.2019 17:45 20,4 C 21,1 C 70 % 1018,5 hPa 0,0 l/m 16,1 km/h (3 Bft) O 90 0,000 mm 1,0 UV-I 190 W/m 14,7 C 17,5 C 22,5 km/h (4 Bft) 86,96 %
17.06.2019 17:44 20,4 C 21,1 C 72 % 1018,5 hPa 0,0 l/m 17,7 km/h (3 Bft) O 90 0,000 mm 1,0 UV-I 190 W/m 15,2 C 17,2 C 20,9 km/h (4 Bft) 91,30 %
17.06.2019 17:43 20,4 C 21,1 C 71 % 1018,5 hPa 0,0 l/m 16,1 km/h (3 Bft) O 90 0,000 mm 1,0 UV-I 188 W/m 15,0 C 17,5 C 24,1 km/h (4 Bft) 86,96 %
17.06.2019 17:42 20,3 C 21,1 C 71 % 1018,5 hPa 0,0 l/m 11,3 km/h (2 Bft) O 90 0,000 mm 1,0 UV-I 188 W/m 14,9 C 18,6 C 17,7 km/h (3 Bft) 91,30 %
17.06.2019 17:41 20,3 C 21,1 C 72 % 1018,5 hPa 0,0 l/m 14,5 km/h (3 Bft) O 90 0,000 mm 1,0 UV-I 190 W/m 15,1 C 17,7 C 20,9 km/h (4 Bft) 91,30 %
17.06.2019 17:40 20,3 C 21,1 C 70 % 1018,5 hPa 0,0 l/m 14,5 km/h (3 Bft) O 90 0,000 mm 1,0 UV-I 190 W/m 14,6 C 17,7 C 22,5 km/h (4 Bft) 91,30 %
17.06.2019 17:39 20,3 C 21,1 C 70 % 1018,5 hPa 0,0 l/m 16,1 km/h (3 Bft) O 90 0,000 mm 1,0 UV-I 190 W/m 14,6 C 17,4 C 22,5 km/h (4 Bft) 100,00 %
17.06.2019 17:38 20,3 C 21,1 C 72 % 1018,5 hPa 0,0 l/m 14,5 km/h (3 Bft) O 90 0,000 mm 1,0 UV-I 190 W/m 15,1 C 17,7 C 25,7 km/h (4 Bft) 95,65 %
17.06.2019 17:37 20,4 C 21,1 C 71 % 1018,5 hPa 0,0 l/m 19,3 km/h (3 Bft) O 90 0,000 mm 1,0 UV-I 193 W/m 15,0 C 16,8 C 27,4 km/h (4 Bft) 100,00 %
17.06.2019 17:36 20,4 C 21,1 C 71 % 1018,5 hPa 0,0 l/m 16,1 km/h (3 Bft) O 90 0,000 mm 1,0 UV-I 192 W/m 15,0 C 17,5 C 22,5 km/h (4 Bft) 86,96 %
17.06.2019 17:35 20,5 C 21,1 C 68 % 1018,5 hPa 0,0 l/m 19,3 km/h (3 Bft) O 90 0,000 mm 1,0 UV-I 188 W/m 14,4 C 17,0 C 25,7 km/h (4 Bft) 95,65 %
17.06.2019 17:34 20,5 C 21,7 C 70 % 1018,6 hPa 0,0 l/m 19,3 km/h (3 Bft) O 90 0,000 mm 1,0 UV-I 190 W/m 14,8 C 17,0 C 29,0 km/h (5 Bft) 91,30 %
17.06.2019 17:33 20,6 C 21,7 C 70 % 1018,5 hPa 0,0 l/m 17,7 km/h (3 Bft) O-SO 112 0,000 mm 1,0 UV-I 190 W/m 14,9 C 17,4 C 22,5 km/h (4 Bft) 91,30 %
17.06.2019 17:32 20,6 C 21,7 C 71 % 1018,5 hPa 0,0 l/m 19,3 km/h (3 Bft) O 90 0,000 mm 1,0 UV-I 190 W/m 15,2 C 17,1 C 27,4 km/h (4 Bft) 95,65 %
17.06.2019 17:31 20,7 C 21,7 C 70 % 1018,6 hPa 0,0 l/m 19,3 km/h (3 Bft) O-SO 112 0,000 mm 1,0 UV-I 190 W/m 15,0 C 17,2 C 30,6 km/h (5 Bft) 86,96 %
17.06.2019 17:30 20,8 C 21,7 C 71 % 1018,6 hPa 0,0 l/m 16,1 km/h (3 Bft) O-SO 112 0,000 mm 1,0 UV-I 193 W/m 15,3 C 18,0 C 19,3 km/h (3 Bft) 95,65 %
17.06.2019 17:29 20,9 C 21,7 C 71 % 1018,5 hPa 0,0 l/m 16,1 km/h (3 Bft) O-SO 112 0,000 mm 1,0 UV-I 197 W/m 15,4 C 18,1 C 20,9 km/h (4 Bft) 91,30 %
17.06.2019 17:28 21,0 C 21,7 C 71 % 1018,6 hPa 0,0 l/m 16,1 km/h (3 Bft) O 90 0,000 mm 1,1 UV-I 204 W/m 15,5 C 18,2 C 20,9 km/h (4 Bft) 100,00 %
17.06.2019 17:27 21,1 C 21,7 C 70 % 1018,6 hPa 0,0 l/m 17,7 km/h (3 Bft) O-SO 112 0,000 mm 1,1 UV-I 204 W/m 15,4 C 18,0 C 25,7 km/h (4 Bft) 100,00 %
17.06.2019 17:26 21,3 C 21,7 C 70 % 1018,6 hPa 0,0 l/m 20,9 km/h (4 Bft) O 90 0,000 mm 1,1 UV-I 216 W/m 15,6 C 17,7 C 29,0 km/h (5 Bft) 82,61 %
17.06.2019 17:25 21,4 C 21,7 C 69 % 1018,6 hPa 0,0 l/m 19,3 km/h (3 Bft) O-SO 112 0,000 mm 1,1 UV-I 243 W/m 15,5 C 18,1 C 27,4 km/h (4 Bft) 86,96 %
17.06.2019 17:24 21,4 C 21,7 C 70 % 1018,6 hPa 0,0 l/m 17,7 km/h (3 Bft) O 90 0,000 mm 1,3 UV-I 304 W/m 15,7 C 18,4 C 27,4 km/h (4 Bft) 86,96 %
17.06.2019 17:23 21,5 C 21,7 C 71 % 1018,6 hPa 0,0 l/m 17,7 km/h (3 Bft) O-SO 112 0,000 mm 1,3 UV-I 343 W/m 16,0 C 18,5 C 24,1 km/h (4 Bft) 91,30 %
17.06.2019 17:22 21,6 C 21,7 C 68 % 1018,7 hPa 0,0 l/m 14,5 km/h (3 Bft) O-SO 112 0,000 mm 1,4 UV-I 415 W/m 15,4 C 19,3 C 19,3 km/h (3 Bft) 91,30 %
17.06.2019 17:21 21,6 C 21,7 C 71 % 1018,6 hPa 0,0 l/m 16,1 km/h (3 Bft) O-SO 112 0,000 mm 1,5 UV-I 436 W/m 16,1 C 19,0 C 22,5 km/h (4 Bft) 95,65 %
17.06.2019 17:20 21,5 C 21,7 C 73 % 1018,7 hPa 0,0 l/m 16,1 km/h (3 Bft) O-SO 112 0,000 mm 1,6 UV-I 475 W/m 16,4 C 18,8 C 22,5 km/h (4 Bft) 91,30 %
17.06.2019 17:19 21,4 C 21,7 C 68 % 1018,7 hPa 0,0 l/m 12,9 km/h (3 Bft) O 90 0,000 mm 1,6 UV-I 482 W/m 15,2 C 19,4 C 16,1 km/h (3 Bft) 95,65 %
17.06.2019 17:18 21,4 C 21,7 C 69 % 1018,7 hPa 0,0 l/m 16,1 km/h (3 Bft) O-NO 67 0,000 mm 1,6 UV-I 468 W/m 15,5 C 18,7 C 19,3 km/h (3 Bft) 100,00 %
17.06.2019 17:17 21,4 C 21,7 C 69 % 1018,7 hPa 0,0 l/m 19,3 km/h (3 Bft) O 90 0,000 mm 1,6 UV-I 478 W/m 15,5 C 18,1 C 22,5 km/h (4 Bft) 95,65 %
17.06.2019 17:16 21,4 C 21,7 C 71 % 1018,7 hPa 0,0 l/m 12,9 km/h (3 Bft) O 90 0,000 mm 1,6 UV-I 485 W/m 15,9 C 19,4 C 19,3 km/h (3 Bft) 100,00 %
17.06.2019 17:15 21,3 C 21,7 C 73 % 1018,8 hPa 0,0 l/m 16,1 km/h (3 Bft) O 90 0,000 mm 1,6 UV-I 487 W/m 16,3 C 18,6 C 22,5 km/h (4 Bft) 100,00 %
17.06.2019 17:14 21,2 C 21,7 C 68 % 1018,8 hPa 0,0 l/m 14,5 km/h (3 Bft) O 90 0,000 mm 1,7 UV-I 496 W/m 15,1 C 18,8 C 22,5 km/h (4 Bft) 100,00 %
17.06.2019 17:13 21,2 C 21,7 C 71 % 1018,7 hPa 0,0 l/m 11,3 km/h (2 Bft) O 90 0,000 mm 1,7 UV-I 487 W/m 15,7 C 19,6 C 16,1 km/h (3 Bft) 95,65 %
17.06.2019 17:12 21,1 C 21,7 C 67 % 1018,8 hPa 0,0 l/m 9,7 km/h (2 Bft) O 90 0,000 mm 1,6 UV-I 476 W/m 14,7 C 19,9 C 16,1 km/h (3 Bft) 95,65 %
17.06.2019 17:11 21,1 C 21,7 C 67 % 1018,8 hPa 0,0 l/m 12,9 km/h (3 Bft) O 90 0,000 mm 1,6 UV-I 455 W/m 14,7 C 19,1 C 22,5 km/h (4 Bft) 95,65 %
17.06.2019 17:10 21,1 C 21,7 C 72 % 1018,8 hPa 0,0 l/m 16,1 km/h (3 Bft) O 90 0,000 mm 1,6 UV-I 450 W/m 15,8 C 18,4 C 24,1 km/h (4 Bft) 86,96 %
17.06.2019 17:09 21,0 C 21,7 C 72 % 1018,8 hPa 0,0 l/m 12,9 km/h (3 Bft) O 90 0,000 mm 1,6 UV-I 452 W/m 15,8 C 19,0 C 19,3 km/h (3 Bft) 91,30 %
17.06.2019 17:08 20,8 C 21,7 C 68 % 1018,8 hPa 0,0 l/m 14,5 km/h (3 Bft) O 90 0,000 mm 1,6 UV-I 439 W/m 14,7 C 18,3 C 19,3 km/h (3 Bft) 95,65 %
17.06.2019 17:07 20,8 C 21,7 C 67 % 1018,8 hPa 0,0 l/m 14,5 km/h (3 Bft) O 90 0,000 mm 1,6 UV-I 399 W/m 14,4 C 18,3 C 22,5 km/h (4 Bft) 100,00 %
17.06.2019 17:06 20,8 C 21,7 C 65 % 1018,7 hPa 0,0 l/m 9,7 km/h (2 Bft) O 90 0,000 mm 1,5 UV-I 390 W/m 14,0 C 19,6 C 22,5 km/h (4 Bft) 100,00 %
17.06.2019 17:05 20,8 C 21,7 C 70 % 1018,7 hPa 0,0 l/m 12,9 km/h (3 Bft) O 90 0,000 mm 1,5 UV-I 330 W/m 15,1 C 18,7 C 24,1 km/h (4 Bft) 95,65 %
17.06.2019 17:04 20,8 C 21,7 C 68 % 1018,7 hPa 0,0 l/m 11,3 km/h (2 Bft) O 90 0,000 mm 1,4 UV-I 292 W/m 14,7 C 19,1 C 22,5 km/h (4 Bft) 100,00 %
17.06.2019 17:03 20,9 C 21,7 C 71 % 1018,7 hPa 0,0 l/m 14,5 km/h (3 Bft) O 90 0,000 mm 1,4 UV-I 288 W/m 15,4 C 18,5 C 19,3 km/h (3 Bft) 95,65 %
17.06.2019 17:02 20,8 C 21,7 C 69 % 1018,7 hPa 0,0 l/m 16,1 km/h (3 Bft) O-SO 112 0,000 mm 1,5 UV-I 323 W/m 14,9 C 18,0 C 22,5 km/h (4 Bft) 95,65 %
17.06.2019 17:01 20,8 C 21,7 C 71 % 1018,7 hPa 0,0 l/m 12,9 km/h (3 Bft) O-SO 112 0,000 mm 1,5 UV-I 348 W/m 15,3 C 18,7 C 19,3 km/h (3 Bft) 95,65 %
17.06.2019 17:00 20,8 C 21,7 C 73 % 1018,8 hPa 0,0 l/m 16,1 km/h (3 Bft) O 90 0,330 mm 1,5 UV-I 332 W/m 15,8 C 18,0 C 25,7 km/h (4 Bft) 86,96 %
17.06.2019 16:59 20,8 C 22,2 C 68 % 1018,8 hPa 0,0 l/m 14,5 km/h (3 Bft) O 90 0,000 mm 1,5 UV-I 313 W/m 14,7 C 18,3 C 19,3 km/h (3 Bft) 86,96 %
17.06.2019 16:58 20,8 C 22,2 C 69 % 1018,8 hPa 0,0 l/m 17,7 km/h (3 Bft) O-SO 112 0,000 mm 1,5 UV-I 304 W/m 14,9 C 17,7 C 27,4 km/h (4 Bft) 78,26 %
17.06.2019 16:57 20,8 C 22,2 C 73 % 1018,8 hPa 0,0 l/m 17,7 km/h (3 Bft) O-SO 112 0,000 mm 1,5 UV-I 292 W/m 15,8 C 17,7 C 25,7 km/h (4 Bft) 91,30 %
17.06.2019 16:56 20,8 C 22,2 C 71 % 1018,8 hPa 0,0 l/m 19,3 km/h (3 Bft) O 90 0,000 mm 1,5 UV-I 320 W/m 15,3 C 17,4 C 27,4 km/h (4 Bft) 100,00 %
17.06.2019 16:55 20,8 C 22,2 C 70 % 1018,8 hPa 0,0 l/m 20,9 km/h (4 Bft) O 90 0,000 mm 1,5 UV-I 301 W/m 15,1 C 17,1 C 29,0 km/h (5 Bft) 100,00 %
17.06.2019 16:54 20,8 C 22,2 C 71 % 1018,8 hPa 0,0 l/m 16,1 km/h (3 Bft) O 90 0,000 mm 1,5 UV-I 301 W/m 15,3 C 18,0 C 25,7 km/h (4 Bft) 86,96 %
17.06.2019 16:53 20,8 C 22,2 C 71 % 1018,9 hPa 0,0 l/m 16,1 km/h (3 Bft) O-SO 112 0,000 mm 1,5 UV-I 316 W/m 15,3 C 18,0 C 24,1 km/h (4 Bft) 91,30 %
17.06.2019 16:52 20,9 C 22,2 C 72 % 1018,9 hPa 0,0 l/m 20,9 km/h (4 Bft) O-SO 112 0,000 mm 1,5 UV-I 304 W/m 15,7 C 17,2 C 29,0 km/h (5 Bft) 95,65 %
17.06.2019 16:51 20,9 C 22,2 C 73 % 1018,8 hPa 0,0 l/m 19,3 km/h (3 Bft) O 90 0,000 mm 1,5 UV-I 313 W/m 15,9 C 17,5 C 30,6 km/h (5 Bft) 95,65 %
17.06.2019 16:50 20,9 C 22,2 C 75 % 1018,9 hPa 0,0 l/m 17,7 km/h (3 Bft) O-SO 112 0,000 mm 1,5 UV-I 313 W/m 16,3 C 17,8 C 24,1 km/h (4 Bft) 86,96 %
17.06.2019 16:49 20,9 C 22,2 C 70 % 1018,9 hPa 0,0 l/m 17,7 km/h (3 Bft) O 90 0,000 mm 1,5 UV-I 306 W/m 15,2 C 17,8 C 25,7 km/h (4 Bft) 91,30 %
17.06.2019 16:48 20,9 C 22,2 C 69 % 1018,9 hPa 0,0 l/m 16,1 km/h (3 Bft) O-SO 112 0,000 mm 1,5 UV-I 299 W/m 15,0 C 18,1 C 24,1 km/h (4 Bft) 95,65 %
17.06.2019 16:47 21,0 C 22,2 C 72 % 1018,9 hPa 0,0 l/m 20,9 km/h (4 Bft) O-SO 112 0,000 mm 1,5 UV-I 299 W/m 15,8 C 17,3 C 30,6 km/h (5 Bft) 86,96 %
17.06.2019 16:46 21,0 C 22,2 C 73 % 1018,9 hPa 0,0 l/m 16,1 km/h (3 Bft) O 90 0,000 mm 1,5 UV-I 304 W/m 16,0 C 18,2 C 19,3 km/h (3 Bft) 91,30 %
17.06.2019 16:45 21,1 C 22,2 C 68 % 1018,9 hPa 0,0 l/m 17,7 km/h (3 Bft) O-SO 112 0,000 mm 1,5 UV-I 297 W/m 15,0 C 18,0 C 24,1 km/h (4 Bft) 95,65 %
17.06.2019 16:44 21,1 C 22,2 C 68 % 1018,9 hPa 0,0 l/m 17,7 km/h (3 Bft) O 90 0,000 mm 1,5 UV-I 306 W/m 15,0 C 18,0 C 29,0 km/h (5 Bft) 82,61 %
17.06.2019 16:43 21,2 C 22,2 C 67 % 1018,9 hPa 0,0 l/m 17,7 km/h (3 Bft) O-SO 112 0,000 mm 1,6 UV-I 306 W/m 14,8 C 18,2 C 24,1 km/h (4 Bft) 100,00 %
17.06.2019 16:42 21,3 C 22,8 C 70 % 1018,9 hPa 0,0 l/m 17,7 km/h (3 Bft) O-SO 112 0,000 mm 1,5 UV-I 309 W/m 15,6 C 18,3 C 24,1 km/h (4 Bft) 82,61 %
17.06.2019 16:41 21,3 C 22,8 C 67 % 1019,0 hPa 0,0 l/m 17,7 km/h (3 Bft) O 90 0,000 mm 1,6 UV-I 329 W/m 14,9 C 18,3 C 25,7 km/h (4 Bft) 91,30 %
17.06.2019 16:40 21,4 C 22,8 C 66 % 1018,9 hPa 0,0 l/m 17,7 km/h (3 Bft) O 90 0,000 mm 1,6 UV-I 318 W/m 14,8 C 18,4 C 22,5 km/h (4 Bft) 91,30 %
17.06.2019 16:39 21,4 C 22,8 C 69 % 1018,9 hPa 0,0 l/m 17,7 km/h (3 Bft) O-SO 112 0,000 mm 1,6 UV-I 322 W/m 15,5 C 18,4 C 27,4 km/h (4 Bft) 91,30 %
17.06.2019 16:38 21,5 C 22,8 C 69 % 1018,9 hPa 0,0 l/m 9,7 km/h (2 Bft) O 90 0,000 mm 1,8 UV-I 325 W/m 15,6 C 20,4 C 17,7 km/h (3 Bft) 91,30 %
17.06.2019 16:37 21,6 C 22,8 C 67 % 1018,9 hPa 0,0 l/m 14,5 km/h (3 Bft) O 90 0,000 mm 1,8 UV-I 385 W/m 15,2 C 19,3 C 20,9 km/h (4 Bft) 91,30 %
17.06.2019 16:36 21,7 C 22,8 C 69 % 1019,0 hPa 0,0 l/m 12,9 km/h (3 Bft) O 90 0,000 mm 2,0 UV-I 489 W/m 15,8 C 19,8 C 20,9 km/h (4 Bft) 82,61 %
17.06.2019 16:35 21,7 C 22,8 C 67 % 1019,0 hPa 0,0 l/m 14,5 km/h (3 Bft) O 90 0,000 mm 2,0 UV-I 441 W/m 15,3 C 19,4 C 19,3 km/h (3 Bft) 78,26 %
17.06.2019 16:34 21,7 C 22,8 C 68 % 1019,0 hPa 0,0 l/m 16,1 km/h (3 Bft) O-SO 112 0,000 mm 1,9 UV-I 429 W/m 15,5 C 19,1 C 24,1 km/h (4 Bft) 82,61 %
17.06.2019 16:33 21,7 C 22,8 C 69 % 1019,0 hPa 0,0 l/m 17,7 km/h (3 Bft) O 90 0,000 mm 1,9 UV-I 410 W/m 15,8 C 18,8 C 22,5 km/h (4 Bft) 95,65 %
17.06.2019 16:32 21,7 C 22,8 C 70 % 1019,1 hPa 0,0 l/m 20,9 km/h (4 Bft) O 90 0,000 mm 2,1 UV-I 459 W/m 16,0 C 18,3 C 27,4 km/h (4 Bft) 91,30 %
17.06.2019 16:31 21,7 C 22,8 C 67 % 1019,1 hPa 0,0 l/m 19,3 km/h (3 Bft) O 90 0,000 mm 2,2 UV-I 487 W/m 15,3 C 18,5 C 24,1 km/h (4 Bft) 100,00 %
17.06.2019 16:30 21,7 C 22,8 C 67 % 1019,1 hPa 0,0 l/m 19,3 km/h (3 Bft) O 90 0,000 mm 2,2 UV-I 517 W/m 15,3 C 18,5 C 29,0 km/h (5 Bft) 82,61 %
17.06.2019 16:29 21,8 C 23,3 C 69 % 1019,1 hPa 0,0 l/m 19,3 km/h (3 Bft) O-NO 67 0,000 mm 2,0 UV-I 415 W/m 15,9 C 18,6 C 29,0 km/h (5 Bft) 95,65 %
17.06.2019 16:28 21,9 C 23,3 C 69 % 1019,1 hPa 0,0 l/m 20,9 km/h (4 Bft) O-SO 112 0,000 mm 1,9 UV-I 494 W/m 15,9 C 18,5 C 30,6 km/h (5 Bft) 95,65 %
17.06.2019 16:27 21,9 C 23,3 C 71 % 1019,1 hPa 0,0 l/m 17,7 km/h (3 Bft) O 90 0,000 mm 2,2 UV-I 494 W/m 16,4 C 19,0 C 22,5 km/h (4 Bft) 100,00 %
17.06.2019 16:26 21,9 C 23,3 C 72 % 1019,1 hPa 0,0 l/m 19,3 km/h (3 Bft) O 90 0,000 mm 2,3 UV-I 550 W/m 16,6 C 18,8 C 24,1 km/h (4 Bft) 86,96 %
17.06.2019 16:25 21,8 C 23,3 C 69 % 1019,1 hPa 0,0 l/m 17,7 km/h (3 Bft) O 90 0,000 mm 2,2 UV-I 490 W/m 15,9 C 18,9 C 25,7 km/h (4 Bft) 100,00 %
17.06.2019 16:24 21,9 C 23,3 C 70 % 1019,1 hPa 0,0 l/m 17,7 km/h (3 Bft) O 90 0,000 mm 2,2 UV-I 494 W/m 16,2 C 19,0 C 22,5 km/h (4 Bft) 82,61 %
17.06.2019 16:23 21,9 C 23,3 C 66 % 1019,1 hPa 0,0 l/m 17,7 km/h (3 Bft) O 90 0,000 mm 2,4 UV-I 527 W/m 15,3 C 19,0 C 25,7 km/h (4 Bft) 82,61 %
17.06.2019 16:22 21,9 C 23,3 C 66 % 1019,1 hPa 0,0 l/m 16,1 km/h (3 Bft) O 90 0,000 mm 2,3 UV-I 501 W/m 15,3 C 19,3 C 25,7 km/h (4 Bft) 95,65 %
17.06.2019 16:21 22,0 C 23,3 C 67 % 1019,2 hPa 0,0 l/m 19,3 km/h (3 Bft) O 90 0,000 mm 2,3 UV-I 482 W/m 15,6 C 18,9 C 25,7 km/h (4 Bft) 91,30 %
17.06.2019 16:20 22,0 C 23,3 C 69 % 1019,1 hPa 0,0 l/m 19,3 km/h (3 Bft) O 90 0,000 mm 2,5 UV-I 483 W/m 16,0 C 18,9 C 29,0 km/h (5 Bft) 100,00 %
17.06.2019 16:19 22,0 C 23,3 C 66 % 1019,1 hPa 0,0 l/m 14,5 km/h (3 Bft) O 90 0,000 mm 2,5 UV-I 541 W/m 15,3 C 19,8 C 24,1 km/h (4 Bft) 82,61 %
17.06.2019 16:18 22,1 C 23,3 C 63 % 1019,1 hPa 0,0 l/m 9,7 km/h (2 Bft) O 90 0,000 mm 2,5 UV-I 533 W/m 14,7 C 21,0 C 20,9 km/h (4 Bft) 100,00 %
17.06.2019 16:17 22,2 C 23,3 C 66 % 1019,3 hPa 0,0 l/m 20,9 km/h (4 Bft) O-SO 112 0,000 mm 2,5 UV-I 540 W/m 15,5 C 18,9 C 33,8 km/h (5 Bft) 86,96 %
17.06.2019 16:16 22,2 C 23,3 C 65 % 1019,2 hPa 0,0 l/m 19,3 km/h (3 Bft) O-SO 112 0,000 mm 2,5 UV-I 519 W/m 15,3 C 19,2 C 33,8 km/h (5 Bft) 82,61 %
17.06.2019 16:15 22,3 C 23,3 C 68 % 1019,1 hPa 0,0 l/m 11,3 km/h (2 Bft) O 90 0,000 mm 2,4 UV-I 482 W/m 16,1 C 20,8 C 16,1 km/h (3 Bft) 82,61 %
17.06.2019 16:14 22,4 C 23,3 C 72 % 1019,2 hPa 0,0 l/m 16,1 km/h (3 Bft) O 90 0,000 mm 2,7 UV-I 555 W/m 17,1 C 20,0 C 22,5 km/h (4 Bft) 91,30 %
17.06.2019 16:13 22,3 C 23,3 C 69 % 1019,2 hPa 0,0 l/m 16,1 km/h (3 Bft) O-SO 112 0,000 mm 2,7 UV-I 577 W/m 16,3 C 19,8 C 22,5 km/h (4 Bft) 91,30 %
17.06.2019 16:12 22,2 C 23,3 C 68 % 1019,2 hPa 0,0 l/m 12,9 km/h (3 Bft) O 90 0,000 mm 2,7 UV-I 573 W/m 16,0 C 20,4 C 17,7 km/h (3 Bft) 91,30 %
17.06.2019 16:11 22,1 C 23,3 C 67 % 1019,3 hPa 0,0 l/m 14,5 km/h (3 Bft) O-SO 112 0,000 mm 2,7 UV-I 592 W/m 15,7 C 19,9 C 20,9 km/h (4 Bft) 100,00 %
17.06.2019 16:10 22,0 C 23,3 C 65 % 1019,2 hPa 0,0 l/m 11,3 km/h (2 Bft) O 90 0,000 mm 2,8 UV-I 592 W/m 15,1 C 20,5 C 16,1 km/h (3 Bft) 86,96 %
17.06.2019 16:09 21,9 C 23,3 C 65 % 1019,2 hPa 0,0 l/m 11,3 km/h (2 Bft) O 90 0,000 mm 2,8 UV-I 622 W/m 15,0 C 20,4 C 19,3 km/h (3 Bft) 91,30 %
17.06.2019 16:08 21,9 C 23,3 C 65 % 1019,3 hPa 0,0 l/m 8,0 km/h (2 Bft) O 90 0,000 mm 3,0 UV-I 635 W/m 15,0 C 21,3 C 17,7 km/h (3 Bft) 91,30 %
17.06.2019 16:07 21,9 C 23,3 C 68 % 1019,3 hPa 0,0 l/m 16,1 km/h (3 Bft) O 90 0,000 mm 2,9 UV-I 650 W/m 15,7 C 19,3 C 20,9 km/h (4 Bft) 95,65 %
17.06.2019 16:06 21,8 C 23,3 C 69 % 1019,3 hPa 0,0 l/m 16,1 km/h (3 Bft) O 90 0,000 mm 2,9 UV-I 635 W/m 15,9 C 19,2 C 24,1 km/h (4 Bft) 86,96 %
17.06.2019 16:05 21,8 C 23,3 C 67 % 1019,3 hPa 0,0 l/m 14,5 km/h (3 Bft) O 90 0,000 mm 2,9 UV-I 613 W/m 15,4 C 19,5 C 19,3 km/h (3 Bft) 91,30 %
17.06.2019 16:04 21,8 C 23,3 C 66 % 1019,3 hPa 0,0 l/m 17,7 km/h (3 Bft) O 90 0,000 mm 2,8 UV-I 554 W/m 15,2 C 18,9 C 24,1 km/h (4 Bft) 95,65 %
17.06.2019 16:03 21,8 C 23,3 C 66 % 1019,3 hPa 0,0 l/m 17,7 km/h (3 Bft) O-SO 112 0,000 mm 2,7 UV-I 554 W/m 15,2 C 18,9 C 27,4 km/h (4 Bft) 100,00 %
17.06.2019 16:02 21,8 C 23,3 C 64 % 1019,3 hPa 0,0 l/m 16,1 km/h (3 Bft) O-SO 112 0,000 mm 2,8 UV-I 563 W/m 14,7 C 19,2 C 22,5 km/h (4 Bft) 100,00 %
17.06.2019 16:01 21,8 C 23,3 C 67 % 1019,3 hPa 0,0 l/m 12,9 km/h (3 Bft) O 90 0,000 mm 2,7 UV-I 557 W/m 15,4 C 19,9 C 25,7 km/h (4 Bft) 91,30 %
17.06.2019 16:00 21,8 C 22,8 C 64 % 1019,3 hPa 0,0 l/m 8,0 km/h (2 Bft) O 90 0,457 mm 2,6 UV-I 510 W/m 14,7 C 21,2 C 14,5 km/h (3 Bft) 100,00 %
17.06.2019 15:59 21,9 C 22,8 C 68 % 1019,4 hPa 0,0 l/m 14,5 km/h (3 Bft) O 90 0,000 mm 2,7 UV-I 536 W/m 15,7 C 19,7 C 22,5 km/h (4 Bft) 100,00 %
17.06.2019 15:58 21,9 C 22,8 C 64 % 1019,4 hPa 0,0 l/m 16,1 km/h (3 Bft) O-SO 112 0,000 mm 2,6 UV-I 527 W/m 14,8 C 19,3 C 22,5 km/h (4 Bft) 100,00 %
17.06.2019 15:57 21,9 C 22,8 C 65 % 1019,3 hPa 0,0 l/m 19,3 km/h (3 Bft) O 90 0,000 mm 2,8 UV-I 563 W/m 15,0 C 18,8 C 25,7 km/h (4 Bft) 95,65 %
17.06.2019 15:56 21,8 C 22,8 C 65 % 1019,4 hPa 0,0 l/m 11,3 km/h (2 Bft) O-NO 67 0,000 mm 2,9 UV-I 601 W/m 14,9 C 20,3 C 19,3 km/h (3 Bft) 95,65 %
17.06.2019 15:55 21,8 C 22,8 C 64 % 1019,4 hPa 0,0 l/m 11,3 km/h (2 Bft) O 90 0,000 mm 2,8 UV-I 599 W/m 14,7 C 20,3 C 19,3 km/h (3 Bft) 100,00 %
17.06.2019 15:54 21,8 C 22,8 C 66 % 1019,4 hPa 0,0 l/m 14,5 km/h (3 Bft) O 90 0,000 mm 3,1 UV-I 650 W/m 15,2 C 19,5 C 25,7 km/h (4 Bft) 86,96 %
17.06.2019 15:53 21,8 C 22,8 C 66 % 1019,4 hPa 0,0 l/m 14,5 km/h (3 Bft) O 90 0,000 mm 3,1 UV-I 626 W/m 15,2 C 19,5 C 20,9 km/h (4 Bft) 100,00 %
17.06.2019 15:52 21,8 C 22,8 C 63 % 1019,4 hPa 0,0 l/m 8,0 km/h (2 Bft) O-SO 112 0,000 mm 3,0 UV-I 573 W/m 14,4 C 21,2 C 12,9 km/h (3 Bft) 100,00 %
17.06.2019 15:51 21,8 C 22,8 C 66 % 1019,4 hPa 0,0 l/m 6,4 km/h (2 Bft) O-SO 112 0,000 mm 2,9 UV-I 566 W/m 15,2 C 21,8 C 12,9 km/h (3 Bft) 95,65 %
17.06.2019 15:50 21,8 C 22,8 C 65 % 1019,4 hPa 0,0 l/m 12,9 km/h (3 Bft) O 90 0,000 mm 3,1 UV-I 633 W/m 14,9 C 19,9 C 22,5 km/h (4 Bft) 100,00 %
17.06.2019 15:49 21,7 C 23,3 C 68 % 1019,5 hPa 0,0 l/m 17,7 km/h (3 Bft) O 90 0,000 mm 3,1 UV-I 650 W/m 15,5 C 18,8 C 25,7 km/h (4 Bft) 95,65 %
17.06.2019 15:48 21,7 C 23,3 C 66 % 1019,4 hPa 0,0 l/m 14,5 km/h (3 Bft) O-SO 112 0,000 mm 3,1 UV-I 599 W/m 15,1 C 19,4 C 22,5 km/h (4 Bft) 91,30 %
17.06.2019 15:47 21,6 C 23,3 C 66 % 1019,4 hPa 0,0 l/m 16,1 km/h (3 Bft) O-SO 112 0,000 mm 3,0 UV-I 599 W/m 15,0 C 19,0 C 22,5 km/h (4 Bft) 82,61 %
17.06.2019 15:46 21,6 C 23,3 C 72 % 1019,4 hPa 0,0 l/m 16,1 km/h (3 Bft) O-NO 67 0,000 mm 2,8 UV-I 504 W/m 16,3 C 19,0 C 25,7 km/h (4 Bft) 86,96 %
17.06.2019 15:45 21,6 C 23,3 C 62 % 1019,5 hPa 0,0 l/m 19,3 km/h (3 Bft) O 90 0,000 mm 2,8 UV-I 490 W/m 14,0 C 18,4 C 27,4 km/h (4 Bft) 95,65 %
17.06.2019 15:44 21,6 C 23,3 C 62 % 1019,5 hPa 0,0 l/m 11,3 km/h (2 Bft) O-NO 67 0,000 mm 2,7 UV-I 506 W/m 14,0 C 20,1 C 20,9 km/h (4 Bft) 100,00 %
17.06.2019 15:43 21,7 C 23,3 C 66 % 1019,5 hPa 0,0 l/m 17,7 km/h (3 Bft) O 90 0,000 mm 2,7 UV-I 455 W/m 15,1 C 18,8 C 29,0 km/h (5 Bft) 95,65 %
17.06.2019 15:42 21,8 C 23,3 C 70 % 1019,5 hPa 0,0 l/m 20,9 km/h (4 Bft) O 90 0,000 mm 2,6 UV-I 439 W/m 16,1 C 18,4 C 27,4 km/h (4 Bft) 95,65 %
17.06.2019 15:41 21,9 C 23,3 C 67 % 1019,5 hPa 0,0 l/m 19,3 km/h (3 Bft) O 90 0,000 mm 2,5 UV-I 404 W/m 15,5 C 18,8 C 24,1 km/h (4 Bft) 95,65 %
17.06.2019 15:40 21,9 C 23,3 C 65 % 1019,5 hPa 0,0 l/m 19,3 km/h (3 Bft) O-SO 112 0,000 mm 2,6 UV-I 406 W/m 15,0 C 18,8 C 27,4 km/h (4 Bft) 91,30 %
17.06.2019 15:39 22,1 C 23,3 C 67 % 1019,5 hPa 0,0 l/m 16,1 km/h (3 Bft) O 90 0,000 mm 2,6 UV-I 436 W/m 15,7 C 19,6 C 22,5 km/h (4 Bft) 100,00 %
17.06.2019 15:38 22,2 C 23,9 C 69 % 1019,5 hPa 0,0 l/m 14,5 km/h (3 Bft) O-SO 112 0,000 mm 2,7 UV-I 475 W/m 16,2 C 20,0 C 20,9 km/h (4 Bft) 86,96 %
17.06.2019 15:37 22,2 C 23,9 C 66 % 1019,5 hPa 0,0 l/m 20,9 km/h (4 Bft) O-SO 112 0,000 mm 2,8 UV-I 492 W/m 15,5 C 18,9 C 27,4 km/h (4 Bft) 91,30 %
17.06.2019 15:36 22,3 C 23,9 C 68 % 1019,5 hPa 0,0 l/m 17,7 km/h (3 Bft) O-SO 112 0,000 mm 2,9 UV-I 513 W/m 16,1 C 19,5 C 25,7 km/h (4 Bft) 95,65 %
17.06.2019 15:35 22,3 C 23,9 C 68 % 1019,6 hPa 0,0 l/m 22,5 km/h (4 Bft) O 90 0,000 mm 3,1 UV-I 555 W/m 16,1 C 18,8 C 27,4 km/h (4 Bft) 100,00 %
17.06.2019 15:34 22,3 C 23,9 C 65 % 1019,6 hPa 0,0 l/m 19,3 km/h (3 Bft) O-SO 112 0,000 mm 3,3 UV-I 636 W/m 15,4 C 19,3 C 27,4 km/h (4 Bft) 91,30 %
17.06.2019 15:33 22,3 C 23,9 C 65 % 1019,6 hPa 0,0 l/m 14,5 km/h (3 Bft) O 90 0,000 mm 3,3 UV-I 636 W/m 15,4 C 20,1 C 19,3 km/h (3 Bft) 86,96 %
17.06.2019 15:32 22,3 C 23,9 C 63 % 1019,6 hPa 0,0 l/m 17,7 km/h (3 Bft) O 90 0,000 mm 3,1 UV-I 587 W/m 14,9 C 19,5 C 25,7 km/h (4 Bft) 100,00 %
17.06.2019 15:31 22,3 C 23,9 C 65 % 1019,6 hPa 0,0 l/m 16,1 km/h (3 Bft) O 90 0,000 mm 3,4 UV-I 650 W/m 15,4 C 19,8 C 25,7 km/h (4 Bft) 95,65 %
17.06.2019 15:30 22,3 C 23,9 C 63 % 1019,5 hPa 0,0 l/m 17,7 km/h (3 Bft) O 90 0,000 mm 3,4 UV-I 656 W/m 14,9 C 19,5 C 22,5 km/h (4 Bft) 86,96 %
17.06.2019 15:29 22,3 C 23,9 C 61 % 1019,5 hPa 0,0 l/m 12,9 km/h (3 Bft) O 90 0,000 mm 3,7 UV-I 737 W/m 14,4 C 20,5 C 20,9 km/h (4 Bft) 91,30 %
17.06.2019 15:28 22,3 C 23,9 C 63 % 1019,5 hPa 0,0 l/m 17,7 km/h (3 Bft) O 90 0,000 mm 3,7 UV-I 768 W/m 14,9 C 19,5 C 20,9 km/h (4 Bft) 82,61 %
17.06.2019 15:27 22,3 C 24,4 C 67 % 1019,5 hPa 0,0 l/m 17,7 km/h (3 Bft) O 90 0,000 mm 3,9 UV-I 768 W/m 15,9 C 19,5 C 32,2 km/h (5 Bft) 91,30 %
17.06.2019 15:26 22,2 C 24,4 C 63 % 1019,6 hPa 0,0 l/m 12,9 km/h (3 Bft) O-SO 112 0,000 mm 3,7 UV-I 763 W/m 14,8 C 20,4 C 22,5 km/h (4 Bft) 86,96 %
17.06.2019 15:25 22,2 C 24,4 C 66 % 1019,5 hPa 0,0 l/m 12,9 km/h (3 Bft) O 90 0,000 mm 3,6 UV-I 657 W/m 15,5 C 20,4 C 16,1 km/h (3 Bft) 100,00 %
17.06.2019 15:24 22,2 C 24,4 C 65 % 1019,6 hPa 0,0 l/m 19,3 km/h (3 Bft) O 90 0,000 mm 3,6 UV-I 677 W/m 15,3 C 19,2 C 25,7 km/h (4 Bft) 95,65 %
17.06.2019 15:23 22,1 C 24,4 C 64 % 1019,6 hPa 0,0 l/m 19,3 km/h (3 Bft) O 90 0,000 mm 3,6 UV-I 686 W/m 15,0 C 19,0 C 27,4 km/h (4 Bft) 100,00 %
17.06.2019 15:22 22,1 C 24,4 C 62 % 1019,6 hPa 0,0 l/m 14,5 km/h (3 Bft) O 90 0,000 mm 3,7 UV-I 726 W/m 14,5 C 19,9 C 17,7 km/h (3 Bft) 91,30 %
17.06.2019 15:21 22,3 C 25,0 C 63 % 1019,6 hPa 0,0 l/m 19,3 km/h (3 Bft) O-SO 112 0,000 mm 3,5 UV-I 693 W/m 14,9 C 19,3 C 32,2 km/h (5 Bft) 82,61 %
17.06.2019 15:20 22,4 C 25,0 C 62 % 1019,5 hPa 0,0 l/m 19,3 km/h (3 Bft) O 90 0,000 mm 2,9 UV-I 446 W/m 14,8 C 19,4 C 30,6 km/h (5 Bft) 86,96 %
17.06.2019 15:19 22,7 C 25,0 C 65 % 1019,6 hPa 0,0 l/m 14,5 km/h (3 Bft) O 90 0,000 mm 3,1 UV-I 517 W/m 15,8 C 20,6 C 20,9 km/h (4 Bft) 91,30 %
17.06.2019 15:18 22,8 C 25,0 C 63 % 1019,6 hPa 0,0 l/m 17,7 km/h (3 Bft) O-NO 67 0,000 mm 3,2 UV-I 765 W/m 15,4 C 20,2 C 22,5 km/h (4 Bft) 95,65 %
17.06.2019 15:17 22,8 C 25,0 C 70 % 1019,7 hPa 0,0 l/m 20,9 km/h (4 Bft) O 90 0,000 mm 3,3 UV-I 765 W/m 17,0 C 19,7 C 27,4 km/h (4 Bft) 95,65 %
17.06.2019 15:16 22,7 C 25,0 C 64 % 1019,7 hPa 0,0 l/m 19,3 km/h (3 Bft) O 90 0,000 mm 3,9 UV-I 765 W/m 15,5 C 19,8 C 25,7 km/h (4 Bft) 86,96 %
17.06.2019 15:15 22,7 C 25,0 C 64 % 1019,6 hPa 0,0 l/m 20,9 km/h (4 Bft) O-SO 112 0,000 mm 4,4 UV-I 891 W/m 15,5 C 19,6 C 25,7 km/h (4 Bft) 100,00 %
17.06.2019 15:14 22,6 C 24,4 C 64 % 1019,8 hPa 0,0 l/m 20,9 km/h (4 Bft) O-SO 112 0,000 mm 4,5 UV-I 891 W/m 15,4 C 19,4 C 29,0 km/h (5 Bft) 86,96 %
17.06.2019 15:13 22,6 C 24,4 C 66 % 1019,7 hPa 0,0 l/m 20,9 km/h (4 Bft) O 90 0,000 mm 4,2 UV-I 490 W/m 15,9 C 19,4 C 30,6 km/h (5 Bft) 100,00 %
17.06.2019 15:12 22,7 C 24,4 C 67 % 1019,6 hPa 0,0 l/m 19,3 km/h (3 Bft) O 90 0,000 mm 4,4 UV-I 490 W/m 16,2 C 19,8 C 25,7 km/h (4 Bft) 95,65 %
17.06.2019 15:11 22,7 C 24,4 C 67 % 1019,7 hPa 0,0 l/m 19,3 km/h (3 Bft) O-SO 112 0,000 mm 3,2 UV-I 490 W/m 16,2 C 19,8 C 29,0 km/h (5 Bft) 100,00 %
17.06.2019 15:10 22,9 C 24,4 C 70 % 1019,7 hPa 0,0 l/m 17,7 km/h (3 Bft) O 90 0,000 mm 3,3 UV-I 476 W/m 17,1 C 20,3 C 25,7 km/h (4 Bft) 100,00 %
17.06.2019 15:09 22,9 C 24,4 C 63 % 1019,7 hPa 0,0 l/m 19,3 km/h (3 Bft) O-SO 112 0,000 mm 3,6 UV-I 687 W/m 15,5 C 20,1 C 25,7 km/h (4 Bft) 95,65 %
17.06.2019 15:08 23,1 C 24,4 C 64 % 1019,7 hPa 0,0 l/m 16,1 km/h (3 Bft) O-SO 112 0,000 mm 3,9 UV-I 705 W/m 15,9 C 20,8 C 20,9 km/h (4 Bft) 82,61 %
17.06.2019 15:07 23,2 C 24,4 C 62 % 1019,7 hPa 0,0 l/m 16,1 km/h (3 Bft) O 90 0,000 mm 3,9 UV-I 700 W/m 15,5 C 20,9 C 24,1 km/h (4 Bft) 100,00 %
17.06.2019 15:06 23,2 C 24,4 C 62 % 1019,7 hPa 0,0 l/m 19,3 km/h (3 Bft) O 90 0,000 mm 4,2 UV-I 791 W/m 15,5 C 20,4 C 22,5 km/h (4 Bft) 91,30 %
17.06.2019 15:05 23,2 C 24,4 C 63 % 1019,8 hPa 0,0 l/m 19,3 km/h (3 Bft) O 90 0,000 mm 4,2 UV-I 728 W/m 15,8 C 20,4 C 24,1 km/h (4 Bft) 86,96 %
17.06.2019 15:04 23,3 C 24,4 C 66 % 1019,8 hPa 0,0 l/m 17,7 km/h (3 Bft) O 90 0,000 mm 4,6 UV-I 868 W/m 16,6 C 20,8 C 25,7 km/h (4 Bft) 95,65 %
17.06.2019 15:03 23,2 C 24,4 C 63 % 1019,7 hPa 0,0 l/m 17,7 km/h (3 Bft) O-SO 112 0,000 mm 4,9 UV-I 935 W/m 15,8 C 20,7 C 24,1 km/h (4 Bft) 100,00 %
17.06.2019 15:02 23,2 C 24,4 C 64 % 1019,8 hPa 0,0 l/m 16,1 km/h (3 Bft) O 90 0,000 mm 4,8 UV-I 921 W/m 16,0 C 20,9 C 20,9 km/h (4 Bft) 100,00 %
17.06.2019 15:01 23,2 C 24,4 C 64 % 1019,7 hPa 0,0 l/m 17,7 km/h (3 Bft) O 90 0,000 mm 4,8 UV-I 935 W/m 16,0 C 20,7 C 22,5 km/h (4 Bft) 100,00 %
17.06.2019 15:00 23,1 C 23,9 C 63 % 1019,8 hPa 0,0 l/m 17,7 km/h (3 Bft) O 90 0,559 mm 4,9 UV-I 928 W/m 15,7 C 20,6 C 22,5 km/h (4 Bft) 86,96 %
17.06.2019 14:59 22,9 C 23,9 C 63 % 1019,9 hPa 0,0 l/m 16,1 km/h (3 Bft) O 90 0,000 mm 4,9 UV-I 921 W/m 15,5 C 20,6 C 24,1 km/h (4 Bft) 73,91 %
17.06.2019 14:58 22,8 C 23,9 C 69 % 1019,8 hPa 0,0 l/m 16,1 km/h (3 Bft) O-SO 112 0,000 mm 5,0 UV-I 947 W/m 16,8 C 20,4 C 24,1 km/h (4 Bft) 95,65 %
17.06.2019 14:57 22,6 C 23,9 C 66 % 1019,8 hPa 0,0 l/m 20,9 km/h (4 Bft) O-SO 112 0,000 mm 5,0 UV-I 958 W/m 15,9 C 19,4 C 30,6 km/h (5 Bft) 100,00 %
17.06.2019 14:56 22,4 C 23,9 C 64 % 1019,8 hPa 0,0 l/m 19,3 km/h (3 Bft) O 90 0,000 mm 4,9 UV-I 932 W/m 15,2 C 19,4 C 29,0 km/h (5 Bft) 100,00 %
17.06.2019 14:55 22,4 C 23,9 C 64 % 1019,9 hPa 0,0 l/m 11,3 km/h (2 Bft) O 90 0,000 mm 4,6 UV-I 860 W/m 15,2 C 21,0 C 16,1 km/h (3 Bft) 86,96 %
17.06.2019 14:54 22,5 C 23,9 C 60 % 1019,9 hPa 0,0 l/m 12,9 km/h (3 Bft) O 90 0,000 mm 4,6 UV-I 835 W/m 14,3 C 20,7 C 20,9 km/h (4 Bft) 100,00 %
17.06.2019 14:53 22,6 C 23,9 C 71 % 1019,9 hPa 0,0 l/m 17,7 km/h (3 Bft) O 90 0,000 mm 4,5 UV-I 847 W/m 17,1 C 19,9 C 25,7 km/h (4 Bft) 95,65 %
17.06.2019 14:52 22,4 C 23,9 C 71 % 1020,1 hPa 0,0 l/m 17,7 km/h (3 Bft) O 90 0,000 mm 4,7 UV-I 893 W/m 16,9 C 19,7 C 24,1 km/h (4 Bft) 95,65 %
17.06.2019 14:51 22,3 C 23,9 C 66 % 1020,0 hPa 0,0 l/m 17,7 km/h (3 Bft) O 90 0,000 mm 4,6 UV-I 875 W/m 15,6 C 19,5 C 24,1 km/h (4 Bft) 82,61 %
17.06.2019 14:50 22,2 C 23,9 C 63 % 1019,9 hPa 0,0 l/m 17,7 km/h (3 Bft) O-SO 112 0,000 mm 4,3 UV-I 650 W/m 14,8 C 19,4 C 25,7 km/h (4 Bft) 100,00 %
17.06.2019 14:49 22,1 C 23,9 C 65 % 1020,1 hPa 0,0 l/m 19,3 km/h (3 Bft) O-SO 112 0,000 mm 3,9 UV-I 650 W/m 15,2 C 19,0 C 32,2 km/h (5 Bft) 82,61 %
17.06.2019 14:48 22,1 C 23,9 C 66 % 1020,0 hPa 0,0 l/m 17,7 km/h (3 Bft) O-SO 112 0,000 mm 3,7 UV-I 599 W/m 15,4 C 19,3 C 32,2 km/h (5 Bft) 100,00 %
17.06.2019 14:47 22,1 C 23,9 C 64 % 1019,9 hPa 0,0 l/m 14,5 km/h (3 Bft) O 90 0,000 mm 3,9 UV-I 643 W/m 15,0 C 19,9 C 22,5 km/h (4 Bft) 95,65 %
17.06.2019 14:46 22,2 C 23,9 C 62 % 1020,0 hPa 0,0 l/m 17,7 km/h (3 Bft) O 90 0,000 mm 3,6 UV-I 591 W/m 14,6 C 19,4 C 24,1 km/h (4 Bft) 95,65 %
17.06.2019 14:45 22,2 C 23,9 C 65 % 1019,9 hPa 0,0 l/m 19,3 km/h (3 Bft) O 90 0,000 mm 3,1 UV-I 584 W/m 15,3 C 19,2 C 27,4 km/h (4 Bft) 86,96 %
17.06.2019 14:44 22,4 C 24,4 C 60 % 1020,0 hPa 0,0 l/m 17,7 km/h (3 Bft) O 90 0,000 mm 3,1 UV-I 448 W/m 14,2 C 19,7 C 25,7 km/h (4 Bft) 95,65 %
17.06.2019 14:43 22,6 C 24,4 C 63 % 1019,9 hPa 0,0 l/m 14,5 km/h (3 Bft) O 90 0,000 mm 3,1 UV-I 647 W/m 15,2 C 20,5 C 20,9 km/h (4 Bft) 78,26 %
17.06.2019 14:42 22,6 C 24,4 C 64 % 1020,0 hPa 0,0 l/m 16,1 km/h (3 Bft) O 90 0,000 mm 3,7 UV-I 647 W/m 15,4 C 20,2 C 29,0 km/h (5 Bft) 100,00 %
17.06.2019 14:41 22,5 C 24,4 C 64 % 1019,8 hPa 0,0 l/m 16,1 km/h (3 Bft) O 90 0,000 mm 4,0 UV-I 705 W/m 15,3 C 20,1 C 25,7 km/h (4 Bft) 91,30 %
17.06.2019 14:40 22,5 C 24,4 C 66 % 1019,9 hPa 0,0 l/m 17,7 km/h (3 Bft) O 90 0,000 mm 4,2 UV-I 717 W/m 15,8 C 19,8 C 24,1 km/h (4 Bft) 86,96 %
17.06.2019 14:39 22,4 C 24,4 C 62 % 1020,0 hPa 0,0 l/m 12,9 km/h (3 Bft) O-SO 112 0,000 mm 4,3 UV-I 780 W/m 14,8 C 20,6 C 20,9 km/h (4 Bft) 100,00 %
17.06.2019 14:38 22,5 C 24,4 C 61 % 1020,0 hPa 0,0 l/m 11,3 km/h (2 Bft) O 90 0,000 mm 4,5 UV-I 905 W/m 14,6 C 21,1 C 24,1 km/h (4 Bft) 86,96 %
17.06.2019 14:37 22,6 C 24,4 C 62 % 1020,0 hPa 0,0 l/m 12,9 km/h (3 Bft) O 90 0,000 mm 4,5 UV-I 905 W/m 14,9 C 20,8 C 20,9 km/h (4 Bft) 95,65 %
17.06.2019 14:36 22,6 C 24,4 C 62 % 1019,9 hPa 0,0 l/m 20,9 km/h (4 Bft) O 90 0,000 mm 4,8 UV-I 888 W/m 14,9 C 19,4 C 29,0 km/h (5 Bft) 100,00 %
17.06.2019 14:35 22,4 C 24,4 C 63 % 1020,0 hPa 0,0 l/m 12,9 km/h (3 Bft) O-NO 67 0,000 mm 5,1 UV-I 953 W/m 15,0 C 20,6 C 24,1 km/h (4 Bft) 95,65 %
17.06.2019 14:34 22,4 C 24,4 C 67 % 1020,1 hPa 0,0 l/m 14,5 km/h (3 Bft) O 90 0,000 mm 5,1 UV-I 933 W/m 16,0 C 20,3 C 27,4 km/h (4 Bft) 100,00 %
17.06.2019 14:33 22,3 C 24,4 C 64 % 1020,0 hPa 0,0 l/m 11,3 km/h (2 Bft) NO 45 0,000 mm 4,9 UV-I 928 W/m 15,2 C 20,8 C 19,3 km/h (3 Bft) 82,61 %
17.06.2019 14:32 22,3 C 24,4 C 66 % 1020,1 hPa 0,0 l/m 11,3 km/h (2 Bft) O-SO 112 0,000 mm 4,6 UV-I 733 W/m 15,6 C 20,8 C 17,7 km/h (3 Bft) 100,00 %
17.06.2019 14:31 22,3 C 23,9 C 66 % 1020,0 hPa 0,0 l/m 16,1 km/h (3 Bft) O-SO 112 0,000 mm 4,5 UV-I 698 W/m 15,6 C 19,8 C 24,1 km/h (4 Bft) 100,00 %
17.06.2019 14:30 22,3 C 24,4 C 70 % 1020,3 hPa 0,0 l/m 17,7 km/h (3 Bft) O 90 0,000 mm 4,3 UV-I 905 W/m 16,6 C 19,5 C 29,0 km/h (5 Bft) 95,65 %
17.06.2019 14:29 22,2 C 23,9 C 65 % 1020,1 hPa 0,0 l/m 16,1 km/h (3 Bft) O 90 0,000 mm 5,0 UV-I 905 W/m 15,3 C 19,7 C 20,9 km/h (4 Bft) 100,00 %
17.06.2019 14:28 22,1 C 23,9 C 67 % 1020,1 hPa 0,0 l/m 16,1 km/h (3 Bft) O 90 0,000 mm 5,1 UV-I 909 W/m 15,7 C 19,6 C 24,1 km/h (4 Bft) 100,00 %
17.06.2019 14:27 21,9 C 23,9 C 67 % 1020,1 hPa 0,0 l/m 12,9 km/h (3 Bft) O-SO 112 0,000 mm 4,8 UV-I 900 W/m 15,5 C 20,0 C 25,7 km/h (4 Bft) 95,65 %
17.06.2019 14:26 21,9 C 23,9 C 62 % 1020,1 hPa 0,0 l/m 11,3 km/h (2 Bft) O-NO 67 0,000 mm 4,1 UV-I 722 W/m 14,3 C 20,4 C 17,7 km/h (3 Bft) 91,30 %
17.06.2019 14:25 22,1 C 23,9 C 70 % 1020,2 hPa 0,0 l/m 11,3 km/h (2 Bft) O 90 0,000 mm 4,1 UV-I 626 W/m 16,4 C 20,6 C 20,9 km/h (4 Bft) 91,30 %
17.06.2019 14:24 22,0 C 23,9 C 64 % 1020,0 hPa 0,0 l/m 12,9 km/h (3 Bft) O 90 0,000 mm 3,9 UV-I 635 W/m 14,9 C 20,1 C 24,1 km/h (4 Bft) 100,00 %
17.06.2019 14:23 21,9 C 24,4 C 62 % 1020,0 hPa 0,0 l/m 9,7 km/h (2 Bft) O-SO 112 0,000 mm 4,3 UV-I 664 W/m 14,3 C 20,8 C 16,1 km/h (3 Bft) 91,30 %
17.06.2019 14:22 22,0 C 24,4 C 65 % 1020,0 hPa 0,0 l/m 11,3 km/h (2 Bft) O-SO 112 0,000 mm 4,3 UV-I 693 W/m 15,1 C 20,5 C 19,3 km/h (3 Bft) 100,00 %
17.06.2019 14:21 22,1 C 24,4 C 66 % 1020,2 hPa 0,0 l/m 12,9 km/h (3 Bft) O 90 0,000 mm 4,3 UV-I 698 W/m 15,4 C 20,2 C 24,1 km/h (4 Bft) 91,30 %
17.06.2019 14:20 22,1 C 24,4 C 66 % 1020,1 hPa 0,0 l/m 14,5 km/h (3 Bft) O 90 0,000 mm 4,4 UV-I 724 W/m 15,4 C 19,9 C 25,7 km/h (4 Bft) 100,00 %
17.06.2019 14:19 22,1 C 24,4 C 62 % 1020,1 hPa 0,0 l/m 11,3 km/h (2 Bft) O 90 0,000 mm 4,6 UV-I 779 W/m 14,5 C 20,6 C 22,5 km/h (4 Bft) 95,65 %
17.06.2019 14:18 22,1 C 24,4 C 66 % 1020,1 hPa 0,0 l/m 9,7 km/h (2 Bft) O 90 0,000 mm 4,5 UV-I 731 W/m 15,4 C 21,0 C 17,7 km/h (3 Bft) 100,00 %
17.06.2019 14:17 22,2 C 24,4 C 67 % 1020,2 hPa 0,0 l/m 14,5 km/h (3 Bft) O-SO 112 0,000 mm 4,4 UV-I 657 W/m 15,8 C 20,0 C 20,9 km/h (4 Bft) 95,65 %
17.06.2019 14:16 22,2 C 24,4 C 70 % 1020,1 hPa 0,0 l/m 14,5 km/h (3 Bft) O 90 0,000 mm 4,0 UV-I 775 W/m 16,5 C 20,0 C 19,3 km/h (3 Bft) 91,30 %
17.06.2019 14:15 22,2 C 24,4 C 64 % 1020,1 hPa 0,0 l/m 14,5 km/h (3 Bft) O 90 0,000 mm 4,1 UV-I 775 W/m 15,1 C 20,0 C 20,9 km/h (4 Bft) 95,65 %
17.06.2019 14:14 22,2 C 24,4 C 62 % 1020,2 hPa 0,0 l/m 17,7 km/h (3 Bft) O 90 0,000 mm 4,5 UV-I 775 W/m 14,6 C 19,4 C 25,7 km/h (4 Bft) 95,65 %
17.06.2019 14:13 22,3 C 24,4 C 62 % 1020,1 hPa 0,0 l/m 11,3 km/h (2 Bft) O 90 0,000 mm 5,1 UV-I 861 W/m 14,7 C 20,8 C 20,9 km/h (4 Bft) 91,30 %
17.06.2019 14:12 22,4 C 24,4 C 65 % 1020,3 hPa 0,0 l/m 16,1 km/h (3 Bft) O 90 0,000 mm 5,0 UV-I 851 W/m 15,5 C 20,0 C 27,4 km/h (4 Bft) 86,96 %
17.06.2019 14:11 22,4 C 24,4 C 65 % 1020,2 hPa 0,0 l/m 19,3 km/h (3 Bft) O 90 0,000 mm 5,2 UV-I 868 W/m 15,5 C 19,4 C 30,6 km/h (5 Bft) 91,30 %
17.06.2019 14:10 22,4 C 24,4 C 62 % 1020,1 hPa 0,0 l/m 16,1 km/h (3 Bft) O 90 0,000 mm 4,9 UV-I 925 W/m 14,8 C 20,0 C 20,9 km/h (4 Bft) 95,65 %
17.06.2019 14:09 22,6 C 24,4 C 69 % 1020,2 hPa 0,0 l/m 16,1 km/h (3 Bft) O 90 0,000 mm 3,9 UV-I 937 W/m 16,6 C 20,2 C 24,1 km/h (4 Bft) 95,65 %
17.06.2019 14:08 22,7 C 24,4 C 64 % 1020,3 hPa 0,0 l/m 16,1 km/h (3 Bft) O 90 0,000 mm 4,7 UV-I 937 W/m 15,5 C 20,3 C 20,9 km/h (4 Bft) 91,30 %
17.06.2019 14:07 22,8 C 24,4 C 71 % 1020,2 hPa 0,0 l/m 16,1 km/h (3 Bft) O 90 0,000 mm 3,5 UV-I 972 W/m 17,3 C 20,4 C 25,7 km/h (4 Bft) 95,65 %
17.06.2019 14:06 22,7 C 24,4 C 73 % 1020,1 hPa 0,0 l/m 19,3 km/h (3 Bft) O 90 0,000 mm 5,5 UV-I 972 W/m 17,6 C 19,8 C 29,0 km/h (5 Bft) 82,61 %
17.06.2019 14:05 22,4 C 24,4 C 68 % 1020,2 hPa 0,0 l/m 19,3 km/h (3 Bft) O 90 0,000 mm 5,5 UV-I 933 W/m 16,2 C 19,4 C 27,4 km/h (4 Bft) 100,00 %
17.06.2019 14:04 22,2 C 23,9 C 68 % 1020,2 hPa 0,0 l/m 16,1 km/h (3 Bft) O 90 0,000 mm 5,6 UV-I 998 W/m 16,0 C 19,7 C 22,5 km/h (4 Bft) 95,65 %
17.06.2019 14:03 21,9 C 23,9 C 68 % 1020,3 hPa 0,0 l/m 16,1 km/h (3 Bft) O 90 0,000 mm 5,8 UV-I 1037 W/m 15,7 C 19,3 C 20,9 km/h (4 Bft) 95,65 %
17.06.2019 14:02 21,6 C 23,9 C 64 % 1020,3 hPa 0,0 l/m 14,5 km/h (3 Bft) O-SO 112 0,000 mm 5,7 UV-I 1013 W/m 14,5 C 19,3 C 22,5 km/h (4 Bft) 95,65 %
17.06.2019 14:01 21,6 C 23,9 C 66 % 1020,3 hPa 0,0 l/m 19,3 km/h (3 Bft) O 90 0,000 mm 5,5 UV-I 330 W/m 15,0 C 18,4 C 24,1 km/h (4 Bft) 78,26 %
17.06.2019 14:00 21,9 C 23,9 C 64 % 1020,3 hPa 0,0 l/m 19,3 km/h (3 Bft) O 90 0,533 mm 3,3 UV-I 330 W/m 14,8 C 18,8 C 27,4 km/h (4 Bft) 100,00 %
17.06.2019 13:59 22,0 C 23,9 C 66 % 1020,3 hPa 0,0 l/m 20,9 km/h (4 Bft) O 90 0,000 mm 3,1 UV-I 294 W/m 15,3 C 18,7 C 30,6 km/h (5 Bft) 91,30 %
17.06.2019 13:58 22,1 C 23,9 C 65 % 1020,3 hPa 0,0 l/m 20,9 km/h (4 Bft) O 90 0,000 mm 4,6 UV-I 932 W/m 15,2 C 18,8 C 30,6 km/h (5 Bft) 86,96 %
17.06.2019 13:57 21,9 C 23,9 C 70 % 1020,3 hPa 0,0 l/m 19,3 km/h (3 Bft) O 90 0,000 mm 5,2 UV-I 896 W/m 16,2 C 18,8 C 27,4 km/h (4 Bft) 86,96 %
17.06.2019 13:56 21,9 C 23,9 C 70 % 1020,3 hPa 0,0 l/m 17,7 km/h (3 Bft) O 90 0,000 mm 4,6 UV-I 896 W/m 16,2 C 19,0 C 29,0 km/h (5 Bft) 95,65 %
17.06.2019 13:55 21,8 C 23,9 C 64 % 1020,3 hPa 0,0 l/m 16,1 km/h (3 Bft) O-NO 67 0,000 mm 5,3 UV-I 896 W/m 14,7 C 19,2 C 24,1 km/h (4 Bft) 86,96 %
17.06.2019 13:54 21,7 C 23,9 C 63 % 1020,3 hPa 0,0 l/m 12,9 km/h (3 Bft) O 90 0,000 mm 5,1 UV-I 854 W/m 14,3 C 19,8 C 20,9 km/h (4 Bft) 91,30 %
17.06.2019 13:53 21,5 C 23,9 C 65 % 1020,3 hPa 0,0 l/m 11,3 km/h (2 Bft) O-SO 112 0,000 mm 5,1 UV-I 823 W/m 14,6 C 19,9 C 17,7 km/h (3 Bft) 86,96 %
17.06.2019 13:52 21,4 C 23,9 C 66 % 1020,3 hPa 0,0 l/m 11,3 km/h (2 Bft) O 90 0,000 mm 5,0 UV-I 826 W/m 14,8 C 19,8 C 20,9 km/h (4 Bft) 95,65 %
17.06.2019 13:51 21,3 C 23,9 C 64 % 1020,3 hPa 0,0 l/m 8,0 km/h (2 Bft) O 90 0,000 mm 5,0 UV-I 831 W/m 14,2 C 20,7 C 14,5 km/h (3 Bft) 91,30 %
17.06.2019 13:50 21,2 C 23,9 C 65 % 1020,2 hPa 0,0 l/m 8,0 km/h (2 Bft) O 90 0,000 mm 4,9 UV-I 810 W/m 14,4 C 20,6 C 14,5 km/h (3 Bft) 95,65 %
17.06.2019 13:49 21,1 C 23,9 C 66 % 1020,3 hPa 0,0 l/m 8,0 km/h (2 Bft) O 90 0,000 mm 4,9 UV-I 805 W/m 14,5 C 20,5 C 14,5 km/h (3 Bft) 95,65 %
17.06.2019 13:48 21,0 C 23,9 C 68 % 1020,3 hPa 0,0 l/m 11,3 km/h (2 Bft) O 90 0,000 mm 4,9 UV-I 698 W/m 14,9 C 19,4 C 17,7 km/h (3 Bft) 95,65 %
17.06.2019 13:47 20,9 C 23,9 C 66 % 1020,3 hPa 0,0 l/m 9,7 km/h (2 Bft) O 90 0,000 mm 4,3 UV-I 698 W/m 14,3 C 19,7 C 12,9 km/h (3 Bft) 91,30 %
17.06.2019 13:46 21,0 C 23,9 C 70 % 1020,3 hPa 0,0 l/m 14,5 km/h (3 Bft) O 90 0,000 mm 3,8 UV-I 476 W/m 15,3 C 18,6 C 19,3 km/h (3 Bft) 91,30 %
17.06.2019 13:45 21,1 C 23,9 C 66 % 1020,3 hPa 0,0 l/m 12,9 km/h (3 Bft) O 90 0,000 mm 3,5 UV-I 338 W/m 14,5 C 19,1 C 19,3 km/h (3 Bft) 86,96 %
17.06.2019 13:44 21,2 C 24,4 C 65 % 1020,4 hPa 0,0 l/m 12,9 km/h (3 Bft) O 90 0,000 mm 3,2 UV-I 338 W/m 14,4 C 19,2 C 19,3 km/h (3 Bft) 100,00 %
17.06.2019 13:43 21,4 C 24,4 C 66 % 1020,3 hPa 0,0 l/m 14,5 km/h (3 Bft) O-NO 67 0,000 mm 3,2 UV-I 332 W/m 14,8 C 19,1 C 20,9 km/h (4 Bft) 91,30 %
17.06.2019 13:42 21,6 C 25,0 C 64 % 1020,3 hPa 0,0 l/m 11,3 km/h (2 Bft) O 90 0,000 mm 3,3 UV-I 378 W/m 14,5 C 20,1 C 16,1 km/h (3 Bft) 100,00 %
17.06.2019 13:41 21,8 C 25,0 C 66 % 1020,3 hPa 0,0 l/m 16,1 km/h (3 Bft) O 90 0,000 mm 3,4 UV-I 450 W/m 15,2 C 19,2 C 22,5 km/h (4 Bft) 86,96 %
17.06.2019 13:40 21,9 C 25,0 C 68 % 1020,3 hPa 0,0 l/m 14,5 km/h (3 Bft) O-SO 112 0,000 mm 3,6 UV-I 496 W/m 15,7 C 19,7 C 22,5 km/h (4 Bft) 91,30 %
17.06.2019 13:39 21,9 C 25,0 C 64 % 1020,5 hPa 0,0 l/m 19,3 km/h (3 Bft) O-SO 112 0,000 mm 3,9 UV-I 694 W/m 14,8 C 18,8 C 27,4 km/h (4 Bft) 95,65 %
17.06.2019 13:38 22,1 C 25,6 C 67 % 1020,3 hPa 0,0 l/m 16,1 km/h (3 Bft) O-SO 112 0,000 mm 4,2 UV-I 694 W/m 15,7 C 19,6 C 20,9 km/h (4 Bft) 91,30 %
17.06.2019 13:37 22,1 C 25,6 C 69 % 1020,5 hPa 0,0 l/m 17,7 km/h (3 Bft) O-SO 112 0,000 mm 4,2 UV-I 619 W/m 16,1 C 19,3 C 20,9 km/h (4 Bft) 95,65 %
17.06.2019 13:36 22,1 C 25,6 C 66 % 1020,5 hPa 0,0 l/m 19,3 km/h (3 Bft) O 90 0,000 mm 4,8 UV-I 763 W/m 15,4 C 19,0 C 25,7 km/h (4 Bft) 91,30 %
17.06.2019 13:35 22,1 C 25,6 C 65 % 1020,4 hPa 0,0 l/m 20,9 km/h (4 Bft) O 90 0,000 mm 4,6 UV-I 763 W/m 15,2 C 18,8 C 27,4 km/h (4 Bft) 95,65 %
17.06.2019 13:34 21,9 C 25,6 C 67 % 1020,3 hPa 0,0 l/m 12,9 km/h (3 Bft) O 90 0,000 mm 5,0 UV-I 798 W/m 15,5 C 20,0 C 17,7 km/h (3 Bft) 95,65 %
17.06.2019 13:33 22,0 C 25,6 C 65 % 1020,4 hPa 0,0 l/m 9,7 km/h (2 Bft) O-NO 67 0,000 mm 5,2 UV-I 847 W/m 15,1 C 20,9 C 17,7 km/h (3 Bft) 95,65 %
17.06.2019 13:32 22,2 C 26,1 C 62 % 1020,4 hPa 0,0 l/m 11,3 km/h (2 Bft) O-SO 112 0,000 mm 5,2 UV-I 809 W/m 14,6 C 20,7 C 20,9 km/h (4 Bft) 86,96 %
17.06.2019 13:31 22,6 C 26,1 C 65 % 1020,5 hPa 0,0 l/m 12,9 km/h (3 Bft) O 90 0,000 mm 5,4 UV-I 889 W/m 15,7 C 20,8 C 19,3 km/h (3 Bft) 95,65 %
17.06.2019 13:30 22,6 C 26,1 C 63 % 1020,5 hPa 0,0 l/m 11,3 km/h (2 Bft) O-SO 112 0,000 mm 5,6 UV-I 921 W/m 15,2 C 21,2 C 19,3 km/h (3 Bft) 100,00 %
17.06.2019 13:29 22,7 C 26,1 C 70 % 1020,5 hPa 0,0 l/m 16,1 km/h (3 Bft) O-SO 112 0,000 mm 5,6 UV-I 918 W/m 16,9 C 20,3 C 25,7 km/h (4 Bft) 95,65 %
17.06.2019 13:28 22,8 C 26,1 C 67 % 1020,5 hPa 0,0 l/m 19,3 km/h (3 Bft) O-SO 112 0,000 mm 5,6 UV-I 875 W/m 16,3 C 19,9 C 25,7 km/h (4 Bft) 86,96 %
17.06.2019 13:27 22,7 C 26,1 C 73 % 1020,6 hPa 0,0 l/m 20,9 km/h (4 Bft) O-SO 112 0,000 mm 5,8 UV-I 958 W/m 17,6 C 19,6 C 27,4 km/h (4 Bft) 100,00 %
17.06.2019 13:26 22,6 C 26,1 C 75 % 1020,5 hPa 0,0 l/m 20,9 km/h (4 Bft) O 90 0,000 mm 5,6 UV-I 875 W/m 17,9 C 19,4 C 29,0 km/h (5 Bft) 91,30 %
17.06.2019 13:25 22,3 C 25,6 C 71 % 1020,4 hPa 0,0 l/m 16,1 km/h (3 Bft) O 90 0,000 mm 5,7 UV-I 947 W/m 16,8 C 19,8 C 22,5 km/h (4 Bft) 100,00 %
17.06.2019 13:24 22,1 C 25,6 C 66 % 1020,5 hPa 0,0 l/m 16,1 km/h (3 Bft) O-SO 112 0,000 mm 5,9 UV-I 967 W/m 15,4 C 19,6 C 24,1 km/h (4 Bft) 100,00 %
17.06.2019 13:23 22,1 C 25,6 C 66 % 1020,5 hPa 0,0 l/m 16,1 km/h (3 Bft) O-SO 112 0,000 mm 5,6 UV-I 909 W/m 15,4 C 19,6 C 22,5 km/h (4 Bft) 91,30 %
17.06.2019 13:22 22,1 C 25,6 C 71 % 1020,5 hPa 0,0 l/m 9,7 km/h (2 Bft) O-SO 112 0,000 mm 5,9 UV-I 962 W/m 16,6 C 21,0 C 14,5 km/h (3 Bft) 95,65 %
17.06.2019 13:21 21,9 C 25,6 C 69 % 1020,4 hPa 0,0 l/m 6,4 km/h (2 Bft) O-NO 67 0,000 mm 5,9 UV-I 998 W/m 15,9 C 21,9 C 12,9 km/h (3 Bft) 95,65 %
17.06.2019 13:20 21,9 C 25,0 C 66 % 1020,4 hPa 0,0 l/m 6,4 km/h (2 Bft) O-NO 67 0,000 mm 5,7 UV-I 919 W/m 15,3 C 21,9 C 14,5 km/h (3 Bft) 100,00 %
17.06.2019 13:19 21,9 C 25,0 C 68 % 1020,5 hPa 0,0 l/m 8,0 km/h (2 Bft) O 90 0,000 mm 5,6 UV-I 905 W/m 15,7 C 21,3 C 12,9 km/h (3 Bft) 86,96 %
17.06.2019 13:18 21,9 C 25,0 C 66 % 1020,4 hPa 0,0 l/m 12,9 km/h (3 Bft) O 90 0,000 mm 5,6 UV-I 933 W/m 15,3 C 20,0 C 29,0 km/h (5 Bft) 95,65 %
17.06.2019 13:17 21,9 C 25,0 C 68 % 1020,6 hPa 0,0 l/m 17,7 km/h (3 Bft) O-NO 67 0,000 mm 5,6 UV-I 896 W/m 15,7 C 19,0 C 29,0 km/h (5 Bft) 100,00 %
17.06.2019 13:16 21,9 C 25,0 C 65 % 1020,4 hPa 0,0 l/m 6,4 km/h (2 Bft) O-NO 67 0,000 mm 5,6 UV-I 912 W/m 15,0 C 21,9 C 14,5 km/h (3 Bft) 95,65 %
17.06.2019 13:15 21,9 C 25,0 C 64 % 1020,4 hPa 0,0 l/m 11,3 km/h (2 Bft) O-SO 112 0,000 mm 5,7 UV-I 914 W/m 14,8 C 20,4 C 20,9 km/h (4 Bft) 95,65 %
17.06.2019 13:14 21,8 C 25,6 C 68 % 1020,4 hPa 0,0 l/m 16,1 km/h (3 Bft) O 90 0,000 mm 5,6 UV-I 960 W/m 15,6 C 19,2 C 19,3 km/h (3 Bft) 100,00 %
17.06.2019 13:13 21,7 C 25,0 C 67 % 1020,5 hPa 0,0 l/m 16,1 km/h (3 Bft) O 90 0,000 mm 5,8 UV-I 944 W/m 15,3 C 19,1 C 25,7 km/h (4 Bft) 95,65 %
17.06.2019 13:12 21,6 C 25,0 C 67 % 1020,4 hPa 0,0 l/m 9,7 km/h (2 Bft) O 90 0,000 mm 5,9 UV-I 998 W/m 15,2 C 20,5 C 19,3 km/h (3 Bft) 65,22 %
17.06.2019 13:11 21,5 C 25,0 C 70 % 1020,4 hPa 0,0 l/m 12,9 km/h (3 Bft) O-NO 67 0,000 mm 6,0 UV-I 1014 W/m 15,8 C 19,5 C 25,7 km/h (4 Bft) 100,00 %
17.06.2019 13:10 21,3 C 25,0 C 70 % 1020,5 hPa 0,0 l/m 14,5 km/h (3 Bft) O 90 0,000 mm 6,0 UV-I 1034 W/m 15,6 C 18,9 C 24,1 km/h (4 Bft) 100,00 %
17.06.2019 13:09 21,3 C 25,0 C 67 % 1020,4 hPa 0,0 l/m 9,7 km/h (2 Bft) O-NO 67 0,000 mm 6,1 UV-I 1088 W/m 14,9 C 20,2 C 20,9 km/h (4 Bft) 100,00 %
17.06.2019 13:08 21,3 C 25,0 C 65 % 1020,4 hPa 0,0 l/m 11,3 km/h (2 Bft) O 90 0,000 mm 6,2 UV-I 380 W/m 14,4 C 19,7 C 25,7 km/h (4 Bft) 95,65 %
17.06.2019 13:07 21,6 C 25,0 C 66 % 1020,5 hPa 0,0 l/m 12,9 km/h (3 Bft) O-SO 112 0,000 mm 4,1 UV-I 380 W/m 15,0 C 19,7 C 22,5 km/h (4 Bft) 95,65 %
17.06.2019 13:06 21,8 C 25,0 C 68 % 1020,4 hPa 0,0 l/m 14,5 km/h (3 Bft) O 90 0,000 mm 5,5 UV-I 406 W/m 15,6 C 19,5 C 24,1 km/h (4 Bft) 100,00 %
17.06.2019 13:05 21,8 C 25,0 C 69 % 1020,5 hPa 0,0 l/m 14,5 km/h (3 Bft) O 90 0,000 mm 4,7 UV-I 406 W/m 15,9 C 19,5 C 19,3 km/h (3 Bft) 91,30 %
17.06.2019 13:04 21,9 C 25,0 C 64 % 1020,5 hPa 0,0 l/m 12,9 km/h (3 Bft) O 90 0,000 mm 3,5 UV-I 1093 W/m 14,8 C 20,0 C 20,9 km/h (4 Bft) 95,65 %
17.06.2019 13:03 22,0 C 25,0 C 67 % 1020,7 hPa 0,0 l/m 11,3 km/h (2 Bft) O 90 0,000 mm 6,3 UV-I 1093 W/m 15,6 C 20,5 C 19,3 km/h (3 Bft) 95,65 %
17.06.2019 13:02 22,0 C 25,0 C 65 % 1020,7 hPa 0,0 l/m 16,1 km/h (3 Bft) O 90 0,000 mm 6,3 UV-I 1079 W/m 15,1 C 19,5 C 22,5 km/h (4 Bft) 95,65 %
17.06.2019 13:01 22,0 C 25,0 C 66 % 1020,6 hPa 0,0 l/m 14,5 km/h (3 Bft) O 90 0,000 mm 6,4 UV-I 1072 W/m 15,3 C 19,8 C 19,3 km/h (3 Bft) 100,00 %
17.06.2019 13:00 21,8 C 25,0 C 67 % 1020,7 hPa 0,0 l/m 19,3 km/h (3 Bft) O 90 0,483 mm 6,4 UV-I 1053 W/m 15,4 C 18,6 C 27,4 km/h (4 Bft) 100,00 %
17.06.2019 12:59 21,6 C 24,4 C 74 % 1020,6 hPa 0,0 l/m 17,7 km/h (3 Bft) O 90 0,000 mm 6,3 UV-I 1051 W/m 16,8 C 18,7 C 22,5 km/h (4 Bft) 91,30 %
17.06.2019 12:58 21,4 C 24,4 C 67 % 1020,7 hPa 0,0 l/m 11,3 km/h (2 Bft) O 90 0,000 mm 6,2 UV-I 1049 W/m 15,0 C 19,8 C 16,1 km/h (3 Bft) 86,96 %
17.06.2019 12:57 21,2 C 24,4 C 73 % 1020,7 hPa 0,0 l/m 14,5 km/h (3 Bft) O 90 0,000 mm 6,2 UV-I 1046 W/m 16,2 C 18,8 C 20,9 km/h (4 Bft) 95,65 %
17.06.2019 12:56 21,0 C 24,4 C 71 % 1020,7 hPa 0,0 l/m 14,5 km/h (3 Bft) O 90 0,000 mm 5,9 UV-I 988 W/m 15,5 C 18,6 C 25,7 km/h (4 Bft) 91,30 %
17.06.2019 12:55 20,9 C 24,4 C 68 % 1020,5 hPa 0,0 l/m 9,7 km/h (2 Bft) O-NO 67 0,000 mm 5,7 UV-I 889 W/m 14,8 C 19,7 C 22,5 km/h (4 Bft) 95,65 %
17.06.2019 12:54 21,1 C 24,4 C 67 % 1020,6 hPa 0,0 l/m 11,3 km/h (2 Bft) O-SO 112 0,000 mm 4,0 UV-I 403 W/m 14,7 C 19,5 C 17,7 km/h (3 Bft) 91,30 %
17.06.2019 12:53 21,3 C 24,4 C 67 % 1020,6 hPa 0,0 l/m 12,9 km/h (3 Bft) O-NO 67 0,000 mm 3,3 UV-I 823 W/m 14,9 C 19,3 C 19,3 km/h (3 Bft) 100,00 %
17.06.2019 12:52 21,4 C 24,4 C 70 % 1020,6 hPa 0,0 l/m 11,3 km/h (2 Bft) O 90 0,000 mm 3,3 UV-I 823 W/m 15,7 C 19,8 C 19,3 km/h (3 Bft) 95,65 %
17.06.2019 12:51 21,4 C 24,4 C 71 % 1020,7 hPa 0,0 l/m 11,3 km/h (2 Bft) O-SO 112 0,000 mm 4,5 UV-I 759 W/m 15,9 C 19,8 C 17,7 km/h (3 Bft) 95,65 %
17.06.2019 12:50 21,5 C 24,4 C 72 % 1020,7 hPa 0,0 l/m 17,7 km/h (3 Bft) O 90 0,000 mm 4,9 UV-I 810 W/m 16,2 C 18,5 C 22,5 km/h (4 Bft) 69,57 %
17.06.2019 12:49 21,4 C 24,4 C 72 % 1020,7 hPa 0,0 l/m 16,1 km/h (3 Bft) O-NO 67 0,000 mm 5,1 UV-I 793 W/m 16,1 C 18,7 C 20,9 km/h (4 Bft) 86,96 %
17.06.2019 12:48 21,3 C 24,4 C 69 % 1020,7 hPa 0,0 l/m 11,3 km/h (2 Bft) O-SO 112 0,000 mm 4,9 UV-I 763 W/m 15,4 C 19,7 C 19,3 km/h (3 Bft) 91,30 %
17.06.2019 12:47 21,3 C 24,4 C 66 % 1020,7 hPa 0,0 l/m 12,9 km/h (3 Bft) O 90 0,000 mm 4,8 UV-I 717 W/m 14,7 C 19,3 C 17,7 km/h (3 Bft) 95,65 %
17.06.2019 12:46 21,3 C 24,4 C 72 % 1020,8 hPa 0,0 l/m 16,1 km/h (3 Bft) O 90 0,000 mm 5,0 UV-I 898 W/m 16,0 C 18,6 C 25,7 km/h (4 Bft) 100,00 %
17.06.2019 12:45 21,2 C 24,4 C 69 % 1020,7 hPa 0,0 l/m 19,3 km/h (3 Bft) O 90 0,000 mm 5,3 UV-I 898 W/m 15,3 C 17,9 C 24,1 km/h (4 Bft) 95,65 %
17.06.2019 12:44 21,2 C 24,4 C 68 % 1020,7 hPa 0,0 l/m 14,5 km/h (3 Bft) O 90 0,000 mm 5,4 UV-I 816 W/m 15,1 C 18,8 C 22,5 km/h (4 Bft) 82,61 %
17.06.2019 12:43 21,4 C 24,4 C 72 % 1020,8 hPa 0,0 l/m 11,3 km/h (2 Bft) O 90 0,000 mm 3,2 UV-I 816 W/m 16,1 C 19,8 C 16,1 km/h (3 Bft) 91,30 %
17.06.2019 12:42 21,3 C 24,4 C 71 % 1020,8 hPa 0,0 l/m 12,9 km/h (3 Bft) O 90 0,000 mm 4,4 UV-I 816 W/m 15,8 C 19,3 C 17,7 km/h (3 Bft) 95,65 %
17.06.2019 12:41 21,3 C 24,4 C 72 % 1020,8 hPa 0,0 l/m 12,9 km/h (3 Bft) O 90 0,000 mm 5,6 UV-I 816 W/m 16,0 C 19,3 C 19,3 km/h (3 Bft) 91,30 %
17.06.2019 12:40 21,2 C 23,9 C 73 % 1020,8 hPa 0,0 l/m 12,9 km/h (3 Bft) O-SO 112 0,000 mm 4,9 UV-I 816 W/m 16,2 C 19,2 C 16,1 km/h (3 Bft) 100,00 %
17.06.2019 12:39 21,1 C 23,9 C 75 % 1020,9 hPa 0,0 l/m 17,7 km/h (3 Bft) O-SO 112 0,000 mm 5,2 UV-I 816 W/m 16,5 C 18,0 C 19,3 km/h (3 Bft) 95,65 %
17.06.2019 12:38 20,8 C 23,9 C 72 % 1020,9 hPa 0,0 l/m 12,9 km/h (3 Bft) O 90 0,000 mm 5,1 UV-I 807 W/m 15,6 C 18,7 C 17,7 km/h (3 Bft) 95,65 %
17.06.2019 12:37 20,8 C 23,9 C 70 % 1020,9 hPa 0,0 l/m 12,9 km/h (3 Bft) O 90 0,000 mm 5,1 UV-I 833 W/m 15,1 C 18,7 C 17,7 km/h (3 Bft) 91,30 %
17.06.2019 12:36 20,8 C 23,9 C 69 % 1020,9 hPa 0,0 l/m 12,9 km/h (3 Bft) O 90 0,000 mm 3,6 UV-I 752 W/m 14,9 C 18,7 C 17,7 km/h (3 Bft) 95,65 %
17.06.2019 12:35 20,8 C 23,9 C 71 % 1020,9 hPa 0,0 l/m 16,1 km/h (3 Bft) O 90 0,000 mm 4,8 UV-I 557 W/m 15,3 C 18,0 C 22,5 km/h (4 Bft) 100,00 %
17.06.2019 12:34 20,7 C 23,9 C 74 % 1020,8 hPa 0,0 l/m 12,9 km/h (3 Bft) O 90 0,000 mm 3,8 UV-I 557 W/m 15,9 C 18,6 C 20,9 km/h (4 Bft) 100,00 %
17.06.2019 12:33 20,7 C 23,9 C 74 % 1020,8 hPa 0,0 l/m 12,9 km/h (3 Bft) O-NO 67 0,000 mm 4,2 UV-I 557 W/m 15,9 C 18,6 C 24,1 km/h (4 Bft) 95,65 %
17.06.2019 12:32 20,4 C 23,9 C 71 % 1020,9 hPa 0,0 l/m 19,3 km/h (3 Bft) O-SO 112 0,000 mm 4,2 UV-I 557 W/m 15,0 C 16,8 C 22,5 km/h (4 Bft) 100,00 %
17.06.2019 12:31 20,4 C 23,9 C 74 % 1020,8 hPa 0,0 l/m 9,7 km/h (2 Bft) O-SO 112 0,000 mm 3,6 UV-I 557 W/m 15,6 C 19,2 C 16,1 km/h (3 Bft) 100,00 %
17.06.2019 12:30 20,4 C 23,9 C 69 % 1020,8 hPa 0,0 l/m 9,7 km/h (2 Bft) O-SO 112 0,000 mm 3,4 UV-I 557 W/m 14,5 C 19,2 C 12,9 km/h (3 Bft) 95,65 %
17.06.2019 12:29 20,6 C 23,9 C 69 % 1020,9 hPa 0,0 l/m 9,7 km/h (2 Bft) O 90 0,000 mm 3,3 UV-I 313 W/m 14,7 C 19,4 C 12,9 km/h (3 Bft) 95,65 %
17.06.2019 12:28 20,7 C 23,9 C 69 % 1020,9 hPa 0,0 l/m 12,9 km/h (3 Bft) O 90 0,000 mm 3,0 UV-I 313 W/m 14,8 C 18,6 C 17,7 km/h (3 Bft) 100,00 %
17.06.2019 12:27 20,9 C 24,4 C 71 % 1020,9 hPa 0,0 l/m 12,9 km/h (3 Bft) O-SO 112 0,000 mm 2,8 UV-I 476 W/m 15,4 C 18,8 C 16,1 km/h (3 Bft) 100,00 %
17.06.2019 12:26 20,9 C 24,4 C 70 % 1020,9 hPa 0,0 l/m 9,7 km/h (2 Bft) O 90 0,000 mm 3,5 UV-I 476 W/m 15,2 C 19,7 C 16,1 km/h (3 Bft) 100,00 %
17.06.2019 12:25 21,0 C 24,4 C 74 % 1020,9 hPa 0,0 l/m 16,1 km/h (3 Bft) O-SO 112 0,000 mm 3,9 UV-I 591 W/m 16,2 C 18,2 C 19,3 km/h (3 Bft) 100,00 %
17.06.2019 12:24 21,0 C 24,4 C 69 % 1021,0 hPa 0,0 l/m 17,7 km/h (3 Bft) O-SO 112 0,000 mm 4,2 UV-I 591 W/m 15,1 C 17,9 C 22,5 km/h (4 Bft) 95,65 %
17.06.2019 12:23 21,1 C 24,4 C 74 % 1020,9 hPa 0,0 l/m 17,7 km/h (3 Bft) O-SO 112 0,000 mm 3,8 UV-I 534 W/m 16,3 C 18,0 C 22,5 km/h (4 Bft) 86,96 %
17.06.2019 12:22 21,1 C 24,4 C 71 % 1020,9 hPa 0,0 l/m 17,7 km/h (3 Bft) O-SO 112 0,000 mm 3,5 UV-I 478 W/m 15,6 C 18,0 C 22,5 km/h (4 Bft) 100,00 %
17.06.2019 12:21 21,2 C 24,4 C 73 % 1020,9 hPa 0,0 l/m 12,9 km/h (3 Bft) O-SO 112 0,000 mm 3,6 UV-I 496 W/m 16,2 C 19,2 C 16,1 km/h (3 Bft) 100,00 %
17.06.2019 12:20 21,3 C 25,0 C 69 % 1021,0 hPa 0,0 l/m 12,9 km/h (3 Bft) O-SO 112 0,000 mm 3,7 UV-I 540 W/m 15,4 C 19,3 C 17,7 km/h (3 Bft) 95,65 %
17.06.2019 12:19 21,4 C 25,0 C 70 % 1020,9 hPa 0,0 l/m 11,3 km/h (2 Bft) O 90 0,000 mm 3,9 UV-I 898 W/m 15,7 C 19,8 C 17,7 km/h (3 Bft) 95,65 %
17.06.2019 12:18 21,4 C 25,0 C 73 % 1020,9 hPa 0,0 l/m 8,0 km/h (2 Bft) O 90 0,000 mm 4,4 UV-I 898 W/m 16,4 C 20,8 C 17,7 km/h (3 Bft) 100,00 %
17.06.2019 12:17 21,5 C 25,0 C 70 % 1021,0 hPa 0,0 l/m 11,3 km/h (2 Bft) O 90 0,000 mm 5,1 UV-I 898 W/m 15,8 C 19,9 C 17,7 km/h (3 Bft) 100,00 %
17.06.2019 12:16 21,4 C 25,6 C 71 % 1020,9 hPa 0,0 l/m 11,3 km/h (2 Bft) O 90 0,000 mm 5,5 UV-I 981 W/m 15,9 C 19,8 C 16,1 km/h (3 Bft) 95,65 %
17.06.2019 12:15 21,3 C 25,6 C 75 % 1021,0 hPa 0,0 l/m 14,5 km/h (3 Bft) O-SO 112 0,000 mm 5,6 UV-I 981 W/m 16,7 C 18,9 C 16,1 km/h (3 Bft) 95,65 %
17.06.2019 12:14 21,1 C 25,6 C 71 % 1021,0 hPa 0,0 l/m 9,7 km/h (2 Bft) O 90 0,000 mm 5,5 UV-I 954 W/m 15,6 C 19,9 C 16,1 km/h (3 Bft) 91,30 %
17.06.2019 12:13 21,1 C 25,6 C 71 % 1020,9 hPa 0,0 l/m 12,9 km/h (3 Bft) O 90 0,000 mm 4,9 UV-I 889 W/m 15,6 C 19,1 C 17,7 km/h (3 Bft) 100,00 %
17.06.2019 12:12 20,9 C 25,6 C 69 % 1021,0 hPa 0,0 l/m 12,9 km/h (3 Bft) O 90 0,000 mm 5,2 UV-I 889 W/m 15,0 C 18,8 C 20,9 km/h (4 Bft) 100,00 %
17.06.2019 12:11 21,0 C 25,6 C 70 % 1021,0 hPa 0,0 l/m 12,9 km/h (3 Bft) O-SO 112 0,000 mm 5,2 UV-I 858 W/m 15,3 C 19,0 C 17,7 km/h (3 Bft) 95,65 %
17.06.2019 12:10 21,1 C 25,0 C 69 % 1021,0 hPa 0,0 l/m 12,9 km/h (3 Bft) O-SO 112 0,000 mm 5,0 UV-I 858 W/m 15,2 C 19,1 C 19,3 km/h (3 Bft) 100,00 %
17.06.2019 12:09 21,1 C 25,0 C 69 % 1021,0 hPa 0,0 l/m 14,5 km/h (3 Bft) O 90 0,000 mm 4,8 UV-I 773 W/m 15,2 C 18,7 C 17,7 km/h (3 Bft) 95,65 %
17.06.2019 12:08 21,1 C 25,0 C 72 % 1021,0 hPa 0,0 l/m 14,5 km/h (3 Bft) O 90 0,000 mm 5,3 UV-I 863 W/m 15,8 C 18,7 C 17,7 km/h (3 Bft) 95,65 %
17.06.2019 12:07 20,9 C 25,0 C 71 % 1021,0 hPa 0,0 l/m 12,9 km/h (3 Bft) O 90 0,000 mm 5,3 UV-I 893 W/m 15,4 C 18,8 C 16,1 km/h (3 Bft) 82,61 %
17.06.2019 12:06 20,9 C 25,0 C 72 % 1021,0 hPa 0,0 l/m 14,5 km/h (3 Bft) O-SO 112 0,000 mm 5,0 UV-I 717 W/m 15,7 C 18,5 C 17,7 km/h (3 Bft) 95,65 %
17.06.2019 12:05 20,8 C 25,0 C 73 % 1021,1 hPa 0,0 l/m 14,5 km/h (3 Bft) O 90 0,000 mm 4,8 UV-I 717 W/m 15,8 C 18,3 C 17,7 km/h (3 Bft) 95,65 %
17.06.2019 12:04 20,8 C 25,0 C 70 % 1021,1 hPa 0,0 l/m 8,0 km/h (2 Bft) O-SO 112 0,000 mm 4,4 UV-I 671 W/m 15,1 C 20,2 C 14,5 km/h (3 Bft) 100,00 %
17.06.2019 12:03 21,0 C 25,0 C 70 % 1021,1 hPa 0,0 l/m 6,4 km/h (2 Bft) O 90 0,000 mm 4,4 UV-I 673 W/m 15,3 C 21,0 C 11,3 km/h (2 Bft) 100,00 %
17.06.2019 12:02 21,2 C 25,6 C 71 % 1021,1 hPa 0,0 l/m 12,9 km/h (3 Bft) O-SO 112 0,000 mm 4,4 UV-I 872 W/m 15,7 C 19,2 C 17,7 km/h (3 Bft) 91,30 %
17.06.2019 12:01 21,3 C 25,6 C 75 % 1021,1 hPa 0,0 l/m 14,5 km/h (3 Bft) O 90 0,000 mm 4,9 UV-I 872 W/m 16,7 C 18,9 C 19,3 km/h (3 Bft) 100,00 %
17.06.2019 12:00 21,1 C 25,6 C 71 % 1021,1 hPa 0,0 l/m 11,3 km/h (2 Bft) O-SO 112 0,457 mm 5,0 UV-I 865 W/m 15,6 C 19,5 C 16,1 km/h (3 Bft) 95,65 %
17.06.2019 11:59 21,0 C 25,6 C 70 % 1021,1 hPa 0,0 l/m 11,3 km/h (2 Bft) O 90 0,000 mm 5,1 UV-I 896 W/m 15,3 C 19,4 C 14,5 km/h (3 Bft) 95,65 %
17.06.2019 11:58 20,8 C 25,6 C 68 % 1021,1 hPa 0,0 l/m 12,9 km/h (3 Bft) O 90 0,000 mm 5,3 UV-I 940 W/m 14,7 C 18,7 C 16,1 km/h (3 Bft) 95,65 %
17.06.2019 11:57 20,9 C 25,0 C 71 % 1021,2 hPa 0,0 l/m 14,5 km/h (3 Bft) O-SO 112 0,000 mm 5,2 UV-I 895 W/m 15,4 C 18,5 C 19,3 km/h (3 Bft) 100,00 %
17.06.2019 11:56 20,9 C 25,0 C 74 % 1021,2 hPa 0,0 l/m 16,1 km/h (3 Bft) O 90 0,000 mm 5,0 UV-I 863 W/m 16,1 C 18,1 C 19,3 km/h (3 Bft) 95,65 %
17.06.2019 11:55 20,8 C 25,0 C 76 % 1021,1 hPa 0,0 l/m 12,9 km/h (3 Bft) O-SO 112 0,000 mm 5,1 UV-I 888 W/m 16,4 C 18,7 C 17,7 km/h (3 Bft) 95,65 %
17.06.2019 11:54 20,6 C 25,0 C 71 % 1021,1 hPa 0,0 l/m 14,5 km/h (3 Bft) O 90 0,000 mm 5,0 UV-I 861 W/m 15,2 C 18,1 C 20,9 km/h (4 Bft) 91,30 %
17.06.2019 11:53 20,5 C 24,4 C 71 % 1021,0 hPa 0,0 l/m 16,1 km/h (3 Bft) O-SO 112 0,000 mm 5,0 UV-I 823 W/m 15,1 C 17,6 C 22,5 km/h (4 Bft) 86,96 %
17.06.2019 11:52 20,4 C 24,4 C 69 % 1021,0 hPa 0,0 l/m 16,1 km/h (3 Bft) O-SO 112 0,000 mm 5,0 UV-I 833 W/m 14,5 C 17,5 C 20,9 km/h (4 Bft) 73,91 %
17.06.2019 11:51 20,4 C 24,4 C 70 % 1021,1 hPa 0,0 l/m 9,7 km/h (2 Bft) O-SO 112 0,000 mm 5,0 UV-I 854 W/m 14,7 C 19,2 C 17,7 km/h (3 Bft) 95,65 %
17.06.2019 11:50 20,4 C 24,4 C 72 % 1021,0 hPa 0,0 l/m 12,9 km/h (3 Bft) O-SO 112 0,000 mm 4,7 UV-I 814 W/m 15,2 C 18,2 C 20,9 km/h (4 Bft) 91,30 %
17.06.2019 11:49 20,4 C 24,4 C 75 % 1021,2 hPa 0,0 l/m 12,9 km/h (3 Bft) O-SO 112 0,000 mm 4,8 UV-I 819 W/m 15,8 C 18,2 C 19,3 km/h (3 Bft) 100,00 %
17.06.2019 11:48 20,3 C 23,9 C 70 % 1021,2 hPa 0,0 l/m 11,3 km/h (2 Bft) NO 45 0,000 mm 4,9 UV-I 826 W/m 14,6 C 18,6 C 17,7 km/h (3 Bft) 82,61 %
17.06.2019 11:47 20,3 C 23,9 C 72 % 1021,1 hPa 0,0 l/m 12,9 km/h (3 Bft) O-NO 67 0,000 mm 4,9 UV-I 856 W/m 15,1 C 18,1 C 20,9 km/h (4 Bft) 91,30 %
17.06.2019 11:46 20,3 C 23,9 C 72 % 1021,2 hPa 0,0 l/m 9,7 km/h (2 Bft) O-NO 67 0,000 mm 4,9 UV-I 772 W/m 15,1 C 19,1 C 12,9 km/h (3 Bft) 91,30 %
17.06.2019 11:45 20,3 C 23,9 C 72 % 1021,1 hPa 0,0 l/m 6,4 km/h (2 Bft) O 90 0,000 mm 5,1 UV-I 772 W/m 15,1 C 20,3 C 12,9 km/h (3 Bft) 100,00 %
17.06.2019 11:44 20,4 C 23,9 C 72 % 1021,2 hPa 0,0 l/m 9,7 km/h (2 Bft) O 90 0,000 mm 4,4 UV-I 772 W/m 15,2 C 19,2 C 19,3 km/h (3 Bft) 91,30 %
17.06.2019 11:43 20,4 C 23,9 C 70 % 1021,2 hPa 0,0 l/m 11,3 km/h (2 Bft) O 90 0,000 mm 4,4 UV-I 772 W/m 14,7 C 18,7 C 17,7 km/h (3 Bft) 95,65 %
17.06.2019 11:42 20,6 C 23,9 C 72 % 1021,2 hPa 0,0 l/m 11,3 km/h (2 Bft) O-NO 67 0,000 mm 4,7 UV-I 858 W/m 15,4 C 18,9 C 19,3 km/h (3 Bft) 100,00 %
17.06.2019 11:41 20,6 C 23,9 C 73 % 1021,2 hPa 0,0 l/m 12,9 km/h (3 Bft) O 90 0,000 mm 4,9 UV-I 905 W/m 15,6 C 18,5 C 20,9 km/h (4 Bft) 82,61 %
17.06.2019 11:40 20,5 C 23,9 C 75 % 1021,2 hPa 0,0 l/m 12,9 km/h (3 Bft) O 90 0,000 mm 4,6 UV-I 809 W/m 15,9 C 18,4 C 19,3 km/h (3 Bft) 95,65 %
17.06.2019 11:39 20,4 C 23,9 C 75 % 1021,2 hPa 0,0 l/m 14,5 km/h (3 Bft) O-SO 112 0,000 mm 4,3 UV-I 334 W/m 15,8 C 17,9 C 20,9 km/h (4 Bft) 95,65 %
17.06.2019 11:38 20,3 C 23,9 C 75 % 1021,2 hPa 0,0 l/m 11,3 km/h (2 Bft) O 90 0,000 mm 4,1 UV-I 334 W/m 15,7 C 18,6 C 16,1 km/h (3 Bft) 100,00 %
17.06.2019 11:37 20,4 C 23,9 C 74 % 1021,2 hPa 0,0 l/m 9,7 km/h (2 Bft) O 90 0,000 mm 2,8 UV-I 334 W/m 15,6 C 19,2 C 17,7 km/h (3 Bft) 95,65 %
17.06.2019 11:36 20,6 C 23,9 C 71 % 1021,2 hPa 0,0 l/m 12,9 km/h (3 Bft) O-SO 112 0,000 mm 2,6 UV-I 485 W/m 15,2 C 18,5 C 20,9 km/h (4 Bft) 86,96 %
17.06.2019 11:35 20,7 C 23,9 C 75 % 1021,2 hPa 0,0 l/m 16,1 km/h (3 Bft) O-SO 112 0,000 mm 3,3 UV-I 485 W/m 16,1 C 17,9 C 22,5 km/h (4 Bft) 95,65 %
17.06.2019 11:34 20,7 C 23,9 C 73 % 1021,2 hPa 0,0 l/m 16,1 km/h (3 Bft) O 90 0,000 mm 3,3 UV-I 809 W/m 15,7 C 17,9 C 20,9 km/h (4 Bft) 91,30 %
17.06.2019 11:33 20,7 C 23,9 C 77 % 1021,2 hPa 0,0 l/m 12,9 km/h (3 Bft) O-SO 112 0,000 mm 4,4 UV-I 809 W/m 16,5 C 18,6 C 19,3 km/h (3 Bft) 91,30 %
17.06.2019 11:32 20,5 C 23,9 C 75 % 1021,2 hPa 0,0 l/m 8,0 km/h (2 Bft) O 90 0,000 mm 4,5 UV-I 844 W/m 15,9 C 19,9 C 16,1 km/h (3 Bft) 91,30 %
17.06.2019 11:31 20,3 C 23,9 C 77 % 1021,2 hPa 0,0 l/m 8,0 km/h (2 Bft) O 90 0,000 mm 4,6 UV-I 847 W/m 16,1 C 19,7 C 16,1 km/h (3 Bft) 100,00 %
17.06.2019 11:30 20,2 C 23,9 C 75 % 1021,2 hPa 0,0 l/m 8,0 km/h (2 Bft) O 90 0,000 mm 4,5 UV-I 807 W/m 15,6 C 19,6 C 16,1 km/h (3 Bft) 82,61 %
17.06.2019 11:29 20,1 C 23,9 C 73 % 1021,2 hPa 0,0 l/m 9,7 km/h (2 Bft) O 90 0,000 mm 4,6 UV-I 828 W/m 15,1 C 18,8 C 14,5 km/h (3 Bft) 95,65 %
17.06.2019 11:28 20,1 C 23,9 C 74 % 1021,2 hPa 0,0 l/m 8,0 km/h (2 Bft) O 90 0,000 mm 4,7 UV-I 874 W/m 15,3 C 19,5 C 16,1 km/h (3 Bft) 91,30 %
17.06.2019 11:27 20,1 C 23,9 C 74 % 1021,2 hPa 0,0 l/m 12,9 km/h (3 Bft) O-NO 67 0,000 mm 4,6 UV-I 874 W/m 15,3 C 17,9 C 17,7 km/h (3 Bft) 91,30 %
17.06.2019 11:26 20,2 C 23,9 C 75 % 1021,2 hPa 0,0 l/m 11,3 km/h (2 Bft) O 90 0,000 mm 2,8 UV-I 874 W/m 15,6 C 18,5 C 17,7 km/h (3 Bft) 91,30 %
17.06.2019 11:25 20,3 C 23,9 C 76 % 1021,3 hPa 0,0 l/m 12,9 km/h (3 Bft) O-SO 112 0,000 mm 4,2 UV-I 874 W/m 15,9 C 18,1 C 17,7 km/h (3 Bft) 91,30 %
17.06.2019 11:24 20,3 C 23,9 C 74 % 1021,2 hPa 0,0 l/m 12,9 km/h (3 Bft) O-SO 112 0,000 mm 3,3 UV-I 874 W/m 15,5 C 18,1 C 20,9 km/h (4 Bft) 100,00 %
17.06.2019 11:23 20,5 C 23,9 C 73 % 1021,2 hPa 0,0 l/m 9,7 km/h (2 Bft) O 90 0,000 mm 3,3 UV-I 874 W/m 15,5 C 19,3 C 22,5 km/h (4 Bft) 95,65 %
17.06.2019 11:22 20,5 C 23,9 C 75 % 1021,3 hPa 0,0 l/m 6,4 km/h (2 Bft) O 90 0,000 mm 3,8 UV-I 874 W/m 15,9 C 20,5 C 12,9 km/h (3 Bft) 100,00 %
17.06.2019 11:21 20,4 C 23,9 C 75 % 1021,2 hPa 0,0 l/m 6,4 km/h (2 Bft) O 90 0,000 mm 4,5 UV-I 874 W/m 15,8 C 20,4 C 17,7 km/h (3 Bft) 91,30 %
17.06.2019 11:20 20,4 C 23,9 C 73 % 1021,2 hPa 0,0 l/m 3,2 km/h (1 Bft) O 90 0,000 mm 4,5 UV-I 846 W/m 15,4 C 20,4 C 6,4 km/h (2 Bft) 100,00 %
17.06.2019 11:19 20,5 C 23,9 C 74 % 1021,3 hPa 0,0 l/m 8,0 km/h (2 Bft) O-SO 112 0,000 mm 4,3 UV-I 800 W/m 15,7 C 19,9 C 12,9 km/h (3 Bft) 91,30 %
17.06.2019 11:18 20,4 C 23,9 C 72 % 1021,3 hPa 0,0 l/m 12,9 km/h (3 Bft) O 90 0,000 mm 4,4 UV-I 803 W/m 15,2 C 18,2 C 17,7 km/h (3 Bft) 91,30 %
17.06.2019 11:17 20,3 C 23,9 C 72 % 1021,3 hPa 0,0 l/m 6,4 km/h (2 Bft) O-SO 112 0,000 mm 4,6 UV-I 853 W/m 15,1 C 20,3 C 11,3 km/h (2 Bft) 100,00 %
17.06.2019 11:16 20,2 C 23,9 C 75 % 1021,3 hPa 0,0 l/m 11,3 km/h (2 Bft) O-SO 112 0,000 mm 4,5 UV-I 703 W/m 15,6 C 18,5 C 22,5 km/h (4 Bft) 95,65 %
17.06.2019 11:15 20,2 C 23,9 C 76 % 1021,3 hPa 0,0 l/m 12,9 km/h (3 Bft) O-SO 112 0,000 mm 4,2 UV-I 703 W/m 15,8 C 18,0 C 20,9 km/h (4 Bft) 95,65 %
17.06.2019 11:14 20,1 C 23,3 C 76 % 1021,3 hPa 0,0 l/m 12,9 km/h (3 Bft) O-SO 112 0,000 mm 4,5 UV-I 831 W/m 15,7 C 17,9 C 16,1 km/h (3 Bft) 95,65 %
17.06.2019 11:13 20,0 C 23,3 C 75 % 1021,3 hPa 0,0 l/m 14,5 km/h (3 Bft) O 90 0,000 mm 2,9 UV-I 831 W/m 15,4 C 17,4 C 19,3 km/h (3 Bft) 100,00 %
17.06.2019 11:12 19,9 C 23,3 C 76 % 1021,3 hPa 0,0 l/m 11,3 km/h (2 Bft) O-SO 112 0,000 mm 2,9 UV-I 831 W/m 15,5 C 18,1 C 14,5 km/h (3 Bft) 91,30 %
17.06.2019 11:11 19,8 C 23,3 C 74 % 1021,3 hPa 0,0 l/m 9,7 km/h (2 Bft) SO 135 0,000 mm 4,2 UV-I 831 W/m 15,0 C 18,5 C 17,7 km/h (3 Bft) 86,96 %
17.06.2019 11:10 19,7 C 23,3 C 75 % 1021,2 hPa 0,0 l/m 8,0 km/h (2 Bft) O-SO 112 0,000 mm 4,4 UV-I 830 W/m 15,1 C 19,0 C 12,9 km/h (3 Bft) 95,65 %
17.06.2019 11:09 19,6 C 23,3 C 74 % 1021,3 hPa 0,0 l/m 9,7 km/h (2 Bft) O 90 0,000 mm 4,6 UV-I 886 W/m 14,8 C 18,3 C 14,5 km/h (3 Bft) 86,96 %
17.06.2019 11:08 19,7 C 23,3 C 74 % 1021,2 hPa 0,0 l/m 6,4 km/h (2 Bft) SO 135 0,000 mm 2,8 UV-I 330 W/m 14,9 C 19,7 C 16,1 km/h (3 Bft) 100,00 %
17.06.2019 11:07 19,8 C 23,3 C 75 % 1021,2 hPa 0,0 l/m 12,9 km/h (3 Bft) O 90 0,000 mm 2,7 UV-I 796 W/m 15,2 C 17,5 C 19,3 km/h (3 Bft) 100,00 %
17.06.2019 11:06 19,8 C 23,3 C 73 % 1021,2 hPa 0,0 l/m 8,0 km/h (2 Bft) O 90 0,000 mm 4,0 UV-I 796 W/m 14,8 C 19,1 C 14,5 km/h (3 Bft) 100,00 %
17.06.2019 11:05 19,8 C 23,3 C 73 % 1021,2 hPa 0,0 l/m 4,8 km/h (1 Bft) O 90 0,000 mm 4,1 UV-I 789 W/m 14,8 C 19,8 C 9,7 km/h (2 Bft) 91,30 %
17.06.2019 11:04 19,9 C 23,3 C 75 % 1021,2 hPa 0,0 l/m 9,7 km/h (2 Bft) O 90 0,000 mm 4,2 UV-I 777 W/m 15,3 C 18,6 C 17,7 km/h (3 Bft) 100,00 %
17.06.2019 11:03 20,0 C 23,3 C 73 % 1021,2 hPa 0,0 l/m 9,7 km/h (2 Bft) O-NO 67 0,000 mm 3,8 UV-I 747 W/m 15,0 C 18,7 C 17,7 km/h (3 Bft) 95,65 %
17.06.2019 11:02 20,1 C 23,3 C 76 % 1021,3 hPa 0,0 l/m 8,0 km/h (2 Bft) O-SO 112 0,000 mm 3,9 UV-I 761 W/m 15,7 C 19,5 C 16,1 km/h (3 Bft) 100,00 %
17.06.2019 11:01 20,1 C 23,3 C 75 % 1021,3 hPa 0,0 l/m 9,7 km/h (2 Bft) O-NO 67 0,000 mm 3,8 UV-I 703 W/m 15,5 C 18,8 C 14,5 km/h (3 Bft) 95,65 %
17.06.2019 11:00 20,0 C 23,3 C 78 % 1021,3 hPa 0,0 l/m 14,5 km/h (3 Bft) O 90 0,381 mm 3,9 UV-I 779 W/m 16,0 C 17,4 C 17,7 km/h (3 Bft) 95,65 %
17.06.2019 10:59 19,8 C 22,8 C 78 % 1021,4 hPa 0,0 l/m 14,5 km/h (3 Bft) O 90 0,000 mm 4,2 UV-I 875 W/m 15,8 C 17,1 C 16,1 km/h (3 Bft) 100,00 %
17.06.2019 10:58 19,6 C 22,8 C 78 % 1021,3 hPa 0,0 l/m 8,0 km/h (2 Bft) O 90 0,000 mm 4,1 UV-I 318 W/m 15,7 C 18,9 C 12,9 km/h (3 Bft) 91,30 %
17.06.2019 10:57 19,6 C 22,8 C 76 % 1021,3 hPa 0,0 l/m 12,9 km/h (3 Bft) O 90 0,000 mm 3,0 UV-I 318 W/m 15,2 C 17,3 C 16,1 km/h (3 Bft) 100,00 %
17.06.2019 10:56 19,6 C 22,8 C 75 % 1021,3 hPa 0,0 l/m 12,9 km/h (3 Bft) O-SO 112 0,000 mm 3,3 UV-I 318 W/m 15,0 C 17,3 C 14,5 km/h (3 Bft) 95,65 %
17.06.2019 10:55 19,7 C 22,8 C 77 % 1021,3 hPa 0,0 l/m 11,3 km/h (2 Bft) O 90 0,000 mm 2,5 UV-I 318 W/m 15,5 C 17,9 C 16,1 km/h (3 Bft) 100,00 %
17.06.2019 10:54 19,6 C 22,8 C 79 % 1021,4 hPa 0,0 l/m 12,9 km/h (3 Bft) O 90 0,000 mm 2,5 UV-I 775 W/m 15,9 C 17,3 C 16,1 km/h (3 Bft) 91,30 %
17.06.2019 10:53 19,3 C 22,8 C 79 % 1021,3 hPa 0,0 l/m 8,0 km/h (2 Bft) O 90 0,000 mm 3,8 UV-I 775 W/m 15,6 C 18,6 C 16,1 km/h (3 Bft) 100,00 %
17.06.2019 10:52 19,2 C 22,8 C 76 % 1021,3 hPa 0,0 l/m 6,4 km/h (2 Bft) O 90 0,000 mm 3,7 UV-I 478 W/m 14,9 C 19,2 C 12,9 km/h (3 Bft) 95,65 %
17.06.2019 10:51 19,3 C 22,8 C 76 % 1021,3 hPa 0,0 l/m 4,8 km/h (1 Bft) O 90 0,000 mm 3,1 UV-I 478 W/m 15,0 C 19,3 C 8,0 km/h (2 Bft) 91,30 %
17.06.2019 10:50 19,4 C 22,8 C 76 % 1021,4 hPa 0,0 l/m 8,0 km/h (2 Bft) O 90 0,000 mm 2,8 UV-I 434 W/m 15,1 C 18,7 C 12,9 km/h (3 Bft) 95,65 %
17.06.2019 10:49 19,6 C 22,8 C 76 % 1021,4 hPa 0,0 l/m 11,3 km/h (2 Bft) O-NO 67 0,000 mm 2,5 UV-I 422 W/m 15,2 C 17,8 C 16,1 km/h (3 Bft) 95,65 %
17.06.2019 10:48 19,7 C 22,8 C 78 % 1021,3 hPa 0,0 l/m 12,9 km/h (3 Bft) O 90 0,000 mm 2,8 UV-I 320 W/m 15,8 C 17,4 C 17,7 km/h (3 Bft) 86,96 %
17.06.2019 10:47 19,6 C 22,8 C 78 % 1021,4 hPa 0,0 l/m 11,3 km/h (2 Bft) O 90 0,000 mm 3,0 UV-I 320 W/m 15,7 C 17,8 C 19,3 km/h (3 Bft) 95,65 %
17.06.2019 10:46 19,7 C 22,8 C 78 % 1021,4 hPa 0,0 l/m 11,3 km/h (2 Bft) O-SO 112 0,000 mm 3,9 UV-I 320 W/m 15,8 C 17,9 C 16,1 km/h (3 Bft) 95,65 %
17.06.2019 10:45 19,7 C 22,8 C 79 % 1021,3 hPa 0,0 l/m 12,9 km/h (3 Bft) O 90 0,000 mm 2,5 UV-I 320 W/m 16,0 C 17,4 C 16,1 km/h (3 Bft) 91,30 %
17.06.2019 10:44 19,7 C 23,3 C 77 % 1021,4 hPa 0,0 l/m 11,3 km/h (2 Bft) O 90 0,000 mm 4,0 UV-I 677 W/m 15,5 C 17,9 C 14,5 km/h (3 Bft) 95,65 %
17.06.2019 10:43 19,8 C 23,3 C 76 % 1021,4 hPa 0,0 l/m 14,5 km/h (3 Bft) O 90 0,000 mm 2,6 UV-I 677 W/m 15,4 C 17,1 C 20,9 km/h (4 Bft) 95,65 %
17.06.2019 10:42 19,9 C 23,3 C 76 % 1021,4 hPa 0,0 l/m 12,9 km/h (3 Bft) O 90 0,000 mm 3,5 UV-I 677 W/m 15,5 C 17,7 C 19,3 km/h (3 Bft) 100,00 %
17.06.2019 10:41 19,9 C 23,3 C 77 % 1021,4 hPa 0,0 l/m 11,3 km/h (2 Bft) O-SO 112 0,000 mm 3,0 UV-I 585 W/m 15,7 C 18,1 C 16,1 km/h (3 Bft) 95,65 %
17.06.2019 10:40 20,0 C 23,9 C 76 % 1021,4 hPa 0,0 l/m 6,4 km/h (2 Bft) O-SO 112 0,000 mm 3,3 UV-I 970 W/m 15,6 C 20,0 C 14,5 km/h (3 Bft) 100,00 %
17.06.2019 10:39 20,2 C 23,9 C 77 % 1021,4 hPa 0,0 l/m 4,8 km/h (1 Bft) O 90 0,000 mm 4,0 UV-I 970 W/m 16,0 C 20,2 C 12,9 km/h (3 Bft) 100,00 %
17.06.2019 10:38 20,3 C 23,9 C 77 % 1021,3 hPa 0,0 l/m 9,7 km/h (2 Bft) O-SO 112 0,000 mm 3,0 UV-I 970 W/m 16,1 C 19,1 C 12,9 km/h (3 Bft) 100,00 %
17.06.2019 10:37 20,2 C 23,9 C 79 % 1021,4 hPa 0,0 l/m 12,9 km/h (3 Bft) O 90 0,000 mm 4,3 UV-I 970 W/m 16,4 C 18,0 C 16,1 km/h (3 Bft) 78,26 %
17.06.2019 10:36 20,1 C 23,3 C 76 % 1021,5 hPa 0,0 l/m 16,1 km/h (3 Bft) O 90 0,000 mm 4,2 UV-I 958 W/m 15,7 C 17,1 C 17,7 km/h (3 Bft) 100,00 %
17.06.2019 10:35 20,1 C 23,3 C 79 % 1021,5 hPa 0,0 l/m 16,1 km/h (3 Bft) O 90 0,000 mm 4,2 UV-I 942 W/m 16,3 C 17,1 C 19,3 km/h (3 Bft) 95,65 %
17.06.2019 10:34 19,9 C 22,8 C 78 % 1021,4 hPa 0,0 l/m 14,5 km/h (3 Bft) O 90 0,000 mm 4,3 UV-I 958 W/m 15,9 C 17,3 C 19,3 km/h (3 Bft) 100,00 %
17.06.2019 10:33 19,8 C 22,8 C 80 % 1021,4 hPa 0,0 l/m 14,5 km/h (3 Bft) O-SO 112 0,000 mm 4,3 UV-I 991 W/m 16,2 C 17,1 C 17,7 km/h (3 Bft) 95,65 %
17.06.2019 10:32 19,6 C 22,2 C 80 % 1021,4 hPa 0,0 l/m 11,3 km/h (2 Bft) O 90 0,000 mm 2,9 UV-I 425 W/m 16,1 C 17,8 C 19,3 km/h (3 Bft) 100,00 %
17.06.2019 10:31 19,4 C 22,2 C 78 % 1021,4 hPa 0,0 l/m 11,3 km/h (2 Bft) O-SO 112 0,000 mm 4,0 UV-I 1037 W/m 15,5 C 17,6 C 16,1 km/h (3 Bft) 95,65 %
17.06.2019 10:30 19,2 C 21,7 C 79 % 1021,4 hPa 0,0 l/m 14,5 km/h (3 Bft) O-SO 112 0,000 mm 4,3 UV-I 1037 W/m 15,5 C 16,4 C 17,7 km/h (3 Bft) 86,96 %
17.06.2019 10:29 18,7 C 21,7 C 83 % 1021,4 hPa 0,0 l/m 14,5 km/h (3 Bft) O 90 0,000 mm 4,2 UV-I 1037 W/m 15,8 C 15,8 C 19,3 km/h (3 Bft) 100,00 %
17.06.2019 10:28 18,3 C 21,1 C 81 % 1021,4 hPa 0,0 l/m 11,3 km/h (2 Bft) O-SO 112 0,000 mm 3,3 UV-I 227 W/m 15,0 C 16,3 C 17,7 km/h (3 Bft) 95,65 %
17.06.2019 10:27 18,2 C 21,1 C 79 % 1021,4 hPa 0,0 l/m 9,7 km/h (2 Bft) O 90 0,000 mm 1,6 UV-I 227 W/m 14,5 C 16,8 C 14,5 km/h (3 Bft) 91,30 %
17.06.2019 10:26 18,3 C 21,1 C 80 % 1021,5 hPa 0,0 l/m 9,7 km/h (2 Bft) O 90 0,000 mm 1,6 UV-I 204 W/m 14,8 C 16,9 C 12,9 km/h (3 Bft) 100,00 %
17.06.2019 10:25 18,4 C 21,7 C 78 % 1021,4 hPa 0,0 l/m 6,4 km/h (2 Bft) O 90 0,000 mm 1,6 UV-I 118 W/m 14,5 C 18,4 C 14,5 km/h (3 Bft) 95,65 %
17.06.2019 10:24 18,6 C 21,7 C 79 % 1021,4 hPa 0,0 l/m 9,7 km/h (2 Bft) O 90 0,000 mm 1,8 UV-I 121 W/m 14,9 C 17,2 C 17,7 km/h (3 Bft) 100,00 %
17.06.2019 10:23 18,8 C 22,2 C 80 % 1021,5 hPa 0,0 l/m 11,3 km/h (2 Bft) O 90 0,000 mm 2,1 UV-I 151 W/m 15,3 C 16,9 C 14,5 km/h (3 Bft) 95,65 %
17.06.2019 10:22 18,8 C 22,2 C 77 % 1021,4 hPa 0,0 l/m 11,3 km/h (2 Bft) O 90 0,000 mm 2,2 UV-I 260 W/m 14,7 C 16,9 C 16,1 km/h (3 Bft) 100,00 %
17.06.2019 10:21 19,1 C 22,2 C 77 % 1021,4 hPa 0,0 l/m 11,3 km/h (2 Bft) O-SO 112 0,000 mm 2,2 UV-I 432 W/m 15,0 C 17,2 C 14,5 km/h (3 Bft) 100,00 %
17.06.2019 10:20 19,3 C 22,8 C 76 % 1021,5 hPa 0,0 l/m 11,3 km/h (2 Bft) O 90 0,000 mm 2,7 UV-I 432 W/m 15,0 C 17,4 C 16,1 km/h (3 Bft) 91,30 %
17.06.2019 10:19 19,4 C 22,8 C 79 % 1021,5 hPa 0,0 l/m 14,5 km/h (3 Bft) O 90 0,000 mm 2,5 UV-I 322 W/m 15,7 C 16,6 C 20,9 km/h (4 Bft) 100,00 %
17.06.2019 10:18 19,4 C 22,8 C 79 % 1021,5 hPa 0,0 l/m 14,5 km/h (3 Bft) O 90 0,000 mm 3,3 UV-I 322 W/m 15,7 C 16,6 C 22,5 km/h (4 Bft) 100,00 %
17.06.2019 10:17 19,3 C 22,8 C 82 % 1021,5 hPa 0,0 l/m 14,5 km/h (3 Bft) O 90 0,000 mm 2,4 UV-I 322 W/m 16,1 C 16,5 C 24,1 km/h (4 Bft) 100,00 %
17.06.2019 10:16 19,1 C 22,2 C 81 % 1021,5 hPa 0,0 l/m 14,5 km/h (3 Bft) O-SO 112 0,000 mm 3,2 UV-I 322 W/m 15,8 C 16,3 C 24,1 km/h (4 Bft) 86,96 %
17.06.2019 10:15 18,8 C 22,2 C 80 % 1021,4 hPa 0,0 l/m 11,3 km/h (2 Bft) O 90 0,000 mm 3,5 UV-I 322 W/m 15,3 C 16,9 C 20,9 km/h (4 Bft) 91,30 %
17.06.2019 10:14 18,7 C 22,2 C 79 % 1021,5 hPa 0,0 l/m 8,0 km/h (2 Bft) O-NO 67 0,000 mm 2,0 UV-I 322 W/m 15,0 C 18,0 C 14,5 km/h (3 Bft) 100,00 %
17.06.2019 10:13 18,9 C 22,8 C 77 % 1021,5 hPa 0,0 l/m 8,0 km/h (2 Bft) O 90 0,000 mm 1,9 UV-I 311 W/m 14,8 C 18,2 C 12,9 km/h (3 Bft) 95,65 %
17.06.2019 10:12 19,1 C 22,8 C 79 % 1021,6 hPa 0,0 l/m 12,9 km/h (3 Bft) O 90 0,000 mm 2,0 UV-I 257 W/m 15,4 C 16,7 C 17,7 km/h (3 Bft) 95,65 %
17.06.2019 10:11 19,2 C 22,8 C 76 % 1021,5 hPa 0,0 l/m 12,9 km/h (3 Bft) O 90 0,000 mm 3,3 UV-I 257 W/m 14,9 C 16,8 C 17,7 km/h (3 Bft) 100,00 %
17.06.2019 10:10 19,5 C 23,3 C 78 % 1021,5 hPa 0,0 l/m 11,3 km/h (2 Bft) O 90 0,000 mm 1,9 UV-I 257 W/m 15,6 C 17,7 C 16,1 km/h (3 Bft) 100,00 %
17.06.2019 10:09 19,8 C 23,3 C 75 % 1021,5 hPa 0,0 l/m 12,9 km/h (3 Bft) O-NO 67 0,000 mm 2,0 UV-I 239 W/m 15,2 C 17,5 C 16,1 km/h (3 Bft) 91,30 %
17.06.2019 10:08 20,1 C 23,9 C 77 % 1021,5 hPa 0,0 l/m 12,9 km/h (3 Bft) O 90 0,000 mm 2,1 UV-I 891 W/m 15,9 C 17,9 C 17,7 km/h (3 Bft) 100,00 %
17.06.2019 10:07 20,1 C 23,9 C 78 % 1021,5 hPa 0,0 l/m 14,5 km/h (3 Bft) O-SO 112 0,000 mm 3,6 UV-I 891 W/m 16,1 C 17,5 C 17,7 km/h (3 Bft) 100,00 %
17.06.2019 10:06 20,2 C 23,9 C 76 % 1021,6 hPa 0,0 l/m 16,1 km/h (3 Bft) O-SO 112 0,000 mm 3,6 UV-I 902 W/m 15,8 C 17,2 C 19,3 km/h (3 Bft) 100,00 %
17.06.2019 10:05 20,2 C 23,3 C 78 % 1021,6 hPa 0,0 l/m 16,1 km/h (3 Bft) O 90 0,000 mm 3,6 UV-I 907 W/m 16,2 C 17,2 C 20,9 km/h (4 Bft) 100,00 %
17.06.2019 10:04 20,2 C 23,3 C 81 % 1021,6 hPa 0,0 l/m 16,1 km/h (3 Bft) O 90 0,000 mm 3,6 UV-I 928 W/m 16,8 C 17,2 C 20,9 km/h (4 Bft) 91,30 %
17.06.2019 10:03 19,8 C 22,8 C 81 % 1021,6 hPa 0,0 l/m 14,5 km/h (3 Bft) O-SO 112 0,000 mm 3,6 UV-I 933 W/m 16,4 C 17,1 C 20,9 km/h (4 Bft) 91,30 %
17.06.2019 10:02 19,5 C 22,2 C 81 % 1021,6 hPa 0,0 l/m 14,5 km/h (3 Bft) O-SO 112 0,000 mm 3,6 UV-I 933 W/m 16,1 C 16,8 C 20,9 km/h (4 Bft) 91,30 %
17.06.2019 10:01 19,2 C 21,7 C 82 % 1021,7 hPa 0,0 l/m 14,5 km/h (3 Bft) O 90 0,000 mm 3,3 UV-I 867 W/m 16,0 C 16,4 C 20,9 km/h (4 Bft) 95,65 %
17.06.2019 10:00 18,9 C 21,7 C 82 % 1021,5 hPa 0,0 l/m 12,9 km/h (3 Bft) O 90 0,279 mm 3,2 UV-I 875 W/m 15,8 C 16,5 C 19,3 km/h (3 Bft) 91,30 %
17.06.2019 09:59 18,7 C 21,1 C 81 % 1021,5 hPa 0,0 l/m 8,0 km/h (2 Bft) O-SO 112 0,000 mm 3,1 UV-I 796 W/m 15,4 C 18,0 C 12,9 km/h (3 Bft) 95,65 %
17.06.2019 09:58 18,6 C 21,1 C 80 % 1021,5 hPa 0,0 l/m 4,8 km/h (1 Bft) O-SO 112 0,000 mm 2,0 UV-I 346 W/m 15,1 C 18,6 C 8,0 km/h (2 Bft) 91,30 %
17.06.2019 09:57 18,7 C 21,1 C 80 % 1021,5 hPa 0,0 l/m 6,4 km/h (2 Bft) O-SO 112 0,000 mm 2,7 UV-I 397 W/m 15,2 C 18,7 C 11,3 km/h (2 Bft) 95,65 %
17.06.2019 09:56 18,6 C 21,1 C 81 % 1021,5 hPa 0,0 l/m 6,4 km/h (2 Bft) O 90 0,000 mm 3,3 UV-I 397 W/m 15,3 C 18,6 C 11,3 km/h (2 Bft) 95,65 %
17.06.2019 09:55 18,5 C 21,1 C 80 % 1021,5 hPa 0,0 l/m 4,8 km/h (1 Bft) O 90 0,000 mm 2,4 UV-I 397 W/m 15,0 C 18,5 C 8,0 km/h (2 Bft) 86,96 %
17.06.2019 09:54 18,6 C 21,1 C 82 % 1021,6 hPa 0,0 l/m 6,4 km/h (2 Bft) O-SO 112 0,000 mm 2,1 UV-I 397 W/m 15,5 C 18,6 C 14,5 km/h (3 Bft) 95,65 %
17.06.2019 09:53 18,4 C 21,1 C 80 % 1021,6 hPa 0,0 l/m 6,4 km/h (2 Bft) O 90 0,000 mm 3,1 UV-I 397 W/m 14,9 C 18,4 C 14,5 km/h (3 Bft) 100,00 %
17.06.2019 09:52 18,4 C 21,1 C 83 % 1021,6 hPa 0,0 l/m 4,8 km/h (1 Bft) O 90 0,000 mm 2,2 UV-I 397 W/m 15,5 C 18,4 C 11,3 km/h (2 Bft) 86,96 %
17.06.2019 09:51 18,3 C 21,1 C 81 % 1021,6 hPa 0,0 l/m 6,4 km/h (2 Bft) O 90 0,000 mm 2,2 UV-I 397 W/m 15,0 C 18,3 C 12,9 km/h (3 Bft) 95,65 %
17.06.2019 09:50 18,3 C 21,1 C 80 % 1021,6 hPa 0,0 l/m 6,4 km/h (2 Bft) O-NO 67 0,000 mm 2,9 UV-I 446 W/m 14,8 C 18,3 C 11,3 km/h (2 Bft) 91,30 %
17.06.2019 09:49 18,4 C 21,1 C 79 % 1021,6 hPa 0,0 l/m 4,8 km/h (1 Bft) O-SO 112 0,000 mm 1,8 UV-I 243 W/m 14,7 C 18,4 C 6,4 km/h (2 Bft) 100,00 %
17.06.2019 09:48 18,6 C 21,1 C 80 % 1021,6 hPa 0,0 l/m 6,4 km/h (2 Bft) O 90 0,000 mm 2,9 UV-I 243 W/m 15,1 C 18,6 C 12,9 km/h (3 Bft) 91,30 %
17.06.2019 09:47 18,7 C 21,1 C 79 % 1021,7 hPa 0,0 l/m 8,0 km/h (2 Bft) O 90 0,000 mm 1,6 UV-I 243 W/m 15,0 C 18,0 C 14,5 km/h (3 Bft) 95,65 %
17.06.2019 09:46 18,9 C 21,1 C 80 % 1021,6 hPa 0,0 l/m 9,7 km/h (2 Bft) O-SO 112 0,000 mm 1,6 UV-I 243 W/m 15,4 C 17,5 C 14,5 km/h (3 Bft) 91,30 %
17.06.2019 09:45 19,3 C 21,7 C 79 % 1021,7 hPa 0,0 l/m 8,0 km/h (2 Bft) O 90 0,000 mm 1,7 UV-I 837 W/m 15,6 C 18,6 C 14,5 km/h (3 Bft) 95,65 %
17.06.2019 09:44 19,5 C 21,7 C 79 % 1021,6 hPa 0,0 l/m 8,0 km/h (2 Bft) O 90 0,000 mm 2,0 UV-I 837 W/m 15,8 C 18,8 C 14,5 km/h (3 Bft) 95,65 %
17.06.2019 09:43 19,6 C 21,7 C 83 % 1021,6 hPa 0,0 l/m 9,7 km/h (2 Bft) O 90 0,000 mm 2,1 UV-I 837 W/m 16,6 C 18,3 C 14,5 km/h (3 Bft) 100,00 %
17.06.2019 09:42 19,3 C 21,7 C 80 % 1021,6 hPa 0,0 l/m 6,4 km/h (2 Bft) O 90 0,000 mm 2,9 UV-I 837 W/m 15,8 C 19,3 C 14,5 km/h (3 Bft) 95,65 %
17.06.2019 09:41 19,3 C 21,7 C 80 % 1021,6 hPa 0,0 l/m 3,2 km/h (1 Bft) O-SO 112 0,000 mm 2,7 UV-I 831 W/m 15,8 C 19,3 C 17,7 km/h (3 Bft) 91,30 %
17.06.2019 09:40 19,2 C 21,7 C 81 % 1021,6 hPa 0,0 l/m 8,0 km/h (2 Bft) O-SO 112 0,000 mm 2,7 UV-I 831 W/m 15,9 C 18,5 C 14,5 km/h (3 Bft) 100,00 %
17.06.2019 09:39 19,0 C 21,1 C 82 % 1021,6 hPa 0,0 l/m 11,3 km/h (2 Bft) O 90 0,000 mm 2,8 UV-I 865 W/m 15,9 C 17,1 C 17,7 km/h (3 Bft) 100,00 %
17.06.2019 09:38 18,8 C 21,1 C 82 % 1021,7 hPa 0,0 l/m 9,7 km/h (2 Bft) O 90 0,000 mm 2,8 UV-I 849 W/m 15,7 C 17,4 C 12,9 km/h (3 Bft) 91,30 %
17.06.2019 09:37 18,5 C 20,6 C 82 % 1021,6 hPa 0,0 l/m 9,7 km/h (2 Bft) O-SO 112 0,000 mm 2,8 UV-I 789 W/m 15,4 C 17,1 C 12,9 km/h (3 Bft) 100,00 %
17.06.2019 09:36 18,1 C 20,0 C 81 % 1021,7 hPa 0,0 l/m 8,0 km/h (2 Bft) O-NO 67 0,000 mm 2,7 UV-I 789 W/m 14,8 C 17,4 C 11,3 km/h (2 Bft) 100,00 %
17.06.2019 09:35 18,0 C 20,0 C 81 % 1021,7 hPa 0,0 l/m 4,8 km/h (1 Bft) O-NO 67 0,000 mm 2,7 UV-I 802 W/m 14,7 C 18,0 C 9,7 km/h (2 Bft) 100,00 %
17.06.2019 09:34 17,9 C 20,0 C 81 % 1021,7 hPa 0,0 l/m 4,8 km/h (1 Bft) O-NO 67 0,000 mm 2,4 UV-I 710 W/m 14,6 C 17,9 C 9,7 km/h (2 Bft) 95,65 %
17.06.2019 09:33 17,8 C 20,0 C 82 % 1021,7 hPa 0,0 l/m 6,4 km/h (2 Bft) O-NO 67 0,000 mm 2,6 UV-I 710 W/m 14,7 C 17,8 C 12,9 km/h (3 Bft) 100,00 %
17.06.2019 09:32 17,8 C 19,4 C 83 % 1021,7 hPa 0,0 l/m 8,0 km/h (2 Bft) O 90 0,000 mm 2,5 UV-I 680 W/m 14,9 C 17,0 C 14,5 km/h (3 Bft) 100,00 %
17.06.2019 09:31 17,7 C 19,4 C 82 % 1021,7 hPa 0,0 l/m 4,8 km/h (1 Bft) O-SO 112 0,000 mm 2,0 UV-I 680 W/m 14,6 C 17,7 C 8,0 km/h (2 Bft) 91,30 %
17.06.2019 09:30 17,7 C 19,4 C 82 % 1021,7 hPa 0,0 l/m 6,4 km/h (2 Bft) NO 45 0,000 mm 2,4 UV-I 680 W/m 14,6 C 17,7 C 11,3 km/h (2 Bft) 95,65 %
17.06.2019 09:29 17,7 C 19,4 C 82 % 1021,7 hPa 0,0 l/m 3,2 km/h (1 Bft) NO 45 0,000 mm 1,8 UV-I 220 W/m 14,6 C 17,7 C 4,8 km/h (1 Bft) 100,00 %
17.06.2019 09:28 17,7 C 19,4 C 81 % 1021,7 hPa 0,0 l/m 3,2 km/h (1 Bft) NO 45 0,000 mm 1,5 UV-I 220 W/m 14,4 C 17,7 C 6,4 km/h (2 Bft) 100,00 %
17.06.2019 09:27 17,8 C 19,4 C 81 % 1021,7 hPa 0,0 l/m 6,4 km/h (2 Bft) O-NO 67 0,000 mm 1,5 UV-I 197 W/m 14,5 C 17,8 C 12,9 km/h (3 Bft) 95,65 %
17.06.2019 09:26 17,9 C 19,4 C 80 % 1021,7 hPa 0,0 l/m 9,7 km/h (2 Bft) O 90 0,000 mm 1,5 UV-I 199 W/m 14,4 C 16,4 C 12,9 km/h (3 Bft) 86,96 %
17.06.2019 09:25 18,1 C 19,4 C 81 % 1021,7 hPa 0,0 l/m 3,2 km/h (1 Bft) O-NO 67 0,000 mm 1,6 UV-I 236 W/m 14,8 C 18,1 C 11,3 km/h (2 Bft) 95,65 %
17.06.2019 09:24 18,1 C 19,4 C 82 % 1021,7 hPa 0,0 l/m 1,6 km/h (1 Bft) O-SO 112 0,000 mm 1,7 UV-I 754 W/m 15,0 C 18,1 C 6,4 km/h (2 Bft) 95,65 %
17.06.2019 09:23 18,1 C 19,4 C 83 % 1021,7 hPa 0,0 l/m 3,2 km/h (1 Bft) NW 315 0,000 mm 2,3 UV-I 754 W/m 15,2 C 18,1 C 4,8 km/h (1 Bft) 100,00 %
17.06.2019 09:22 17,8 C 19,4 C 82 % 1021,7 hPa 0,0 l/m 1,6 km/h (1 Bft) O-SO 112 0,000 mm 2,3 UV-I 754 W/m 14,7 C 17,8 C 6,4 km/h (2 Bft) 100,00 %
17.06.2019 09:21 17,7 C 18,9 C 84 % 1021,7 hPa 0,0 l/m 4,8 km/h (1 Bft) SO 135 0,000 mm 2,4 UV-I 737 W/m 15,0 C 17,7 C 11,3 km/h (2 Bft) 95,65 %
17.06.2019 09:20 17,4 C 18,9 C 82 % 1021,8 hPa 0,0 l/m 8,0 km/h (2 Bft) O-NO 67 0,000 mm 2,4 UV-I 492 W/m 14,3 C 16,6 C 12,9 km/h (3 Bft) 95,65 %
17.06.2019 09:19 17,2 C 18,3 C 84 % 1021,8 hPa 0,0 l/m 9,7 km/h (2 Bft) O-NO 67 0,000 mm 2,1 UV-I 492 W/m 14,5 C 15,7 C 16,1 km/h (3 Bft) 91,30 %
17.06.2019 09:18 17,1 C 18,3 C 83 % 1021,8 hPa 0,0 l/m 12,9 km/h (3 Bft) O-NO 67 0,000 mm 1,9 UV-I 193 W/m 14,2 C 14,4 C 16,1 km/h (3 Bft) 95,65 %
17.06.2019 09:17 17,0 C 18,3 C 84 % 1021,8 hPa 0,0 l/m 4,8 km/h (1 Bft) O-NO 67 0,000 mm 1,4 UV-I 193 W/m 14,3 C 17,0 C 11,3 km/h (2 Bft) 95,65 %
17.06.2019 09:16 17,0 C 18,3 C 84 % 1021,9 hPa 0,0 l/m 4,8 km/h (1 Bft) O-NO 67 0,000 mm 1,9 UV-I 193 W/m 14,3 C 17,0 C 6,4 km/h (2 Bft) 91,30 %
17.06.2019 09:15 16,9 C 17,8 C 84 % 1021,9 hPa 0,0 l/m 4,8 km/h (1 Bft) O-NO 67 0,000 mm 1,3 UV-I 193 W/m 14,2 C 16,9 C 6,4 km/h (2 Bft) 95,65 %
17.06.2019 09:14 16,9 C 17,8 C 84 % 1021,9 hPa 0,0 l/m 4,8 km/h (1 Bft) O-NO 67 0,000 mm 1,3 UV-I 197 W/m 14,2 C 16,9 C 6,4 km/h (2 Bft) 95,65 %
17.06.2019 09:13 16,9 C 17,8 C 83 % 1021,8 hPa 0,0 l/m 6,4 km/h (2 Bft) O-NO 67 0,000 mm 1,4 UV-I 251 W/m 14,0 C 16,9 C 12,9 km/h (3 Bft) 91,30 %
17.06.2019 09:12 16,9 C 17,8 C 84 % 1021,9 hPa 0,0 l/m 4,8 km/h (1 Bft) O-NO 67 0,000 mm 1,4 UV-I 267 W/m 14,2 C 16,9 C 9,7 km/h (2 Bft) 73,91 %
17.06.2019 09:11 16,9 C 17,8 C 84 % 1021,9 hPa 0,0 l/m 4,8 km/h (1 Bft) O-NO 67 0,000 mm 1,3 UV-I 239 W/m 14,2 C 16,9 C 12,9 km/h (3 Bft) 95,65 %
17.06.2019 09:10 16,9 C 17,8 C 84 % 1021,9 hPa 0,0 l/m 3,2 km/h (1 Bft) O-NO 67 0,000 mm 1,2 UV-I 244 W/m 14,2 C 16,9 C 9,7 km/h (2 Bft) 91,30 %
17.06.2019 09:09 16,8 C 17,8 C 84 % 1021,9 hPa 0,0 l/m 4,8 km/h (1 Bft) O-NO 67 0,000 mm 1,2 UV-I 230 W/m 14,1 C 16,8 C 9,7 km/h (2 Bft) 100,00 %
17.06.2019 09:08 16,9 C 17,8 C 83 % 1021,9 hPa 0,0 l/m 6,4 km/h (2 Bft) O 90 0,000 mm 1,1 UV-I 216 W/m 14,0 C 16,9 C 11,3 km/h (2 Bft) 91,30 %
17.06.2019 09:07 16,9 C 17,8 C 84 % 1021,9 hPa 0,0 l/m 3,2 km/h (1 Bft) O 90 0,000 mm 1,1 UV-I 209 W/m 14,2 C 16,9 C 8,0 km/h (2 Bft) 86,96 %
17.06.2019 09:06 16,9 C 17,8 C 84 % 1021,8 hPa 0,0 l/m 3,2 km/h (1 Bft) O 90 0,000 mm 1,0 UV-I 178 W/m 14,2 C 16,9 C 6,4 km/h (2 Bft) 100,00 %
17.06.2019 09:05 17,0 C 17,8 C 83 % 1021,9 hPa 0,0 l/m 6,4 km/h (2 Bft) O 90 0,000 mm 1,0 UV-I 160 W/m 14,1 C 17,0 C 9,7 km/h (2 Bft) 82,61 %
17.06.2019 09:04 17,1 C 17,8 C 84 % 1022,0 hPa 0,0 l/m 3,2 km/h (1 Bft) O 90 0,000 mm 1,1 UV-I 148 W/m 14,4 C 17,1 C 11,3 km/h (2 Bft) 95,65 %
17.06.2019 09:03 17,1 C 17,8 C 84 % 1021,9 hPa 0,0 l/m 6,4 km/h (2 Bft) O 90 0,000 mm 1,1 UV-I 167 W/m 14,4 C 17,1 C 11,3 km/h (2 Bft) 86,96 %
17.06.2019 09:02 17,1 C 18,3 C 83 % 1021,9 hPa 0,0 l/m 3,2 km/h (1 Bft) O-SO 112 0,000 mm 1,2 UV-I 186 W/m 14,2 C 17,1 C 6,4 km/h (2 Bft) 100,00 %
17.06.2019 09:01 17,2 C 18,3 C 83 % 1022,0 hPa 0,0 l/m 8,0 km/h (2 Bft) O 90 0,000 mm 1,2 UV-I 202 W/m 14,3 C 16,4 C 11,3 km/h (2 Bft) 91,30 %
17.06.2019 09:00 17,2 C 18,3 C 83 % 1022,0 hPa 0,0 l/m 6,4 km/h (2 Bft) O-NO 67 0,152 mm 1,2 UV-I 218 W/m 14,3 C 17,2 C 11,3 km/h (2 Bft) 100,00 %
17.06.2019 08:59 17,2 C 18,3 C 83 % 1022,0 hPa 0,0 l/m 6,4 km/h (2 Bft) O 90 0,000 mm 1,1 UV-I 230 W/m 14,3 C 17,2 C 12,9 km/h (3 Bft) 91,30 %
17.06.2019 08:58 17,3 C 18,3 C 82 % 1022,0 hPa 0,0 l/m 6,4 km/h (2 Bft) O 90 0,000 mm 1,0 UV-I 209 W/m 14,2 C 17,3 C 9,7 km/h (2 Bft) 91,30 %
17.06.2019 08:57 17,4 C 18,3 C 83 % 1022,0 hPa 0,0 l/m 3,2 km/h (1 Bft) O 90 0,000 mm 1,0 UV-I 211 W/m 14,5 C 17,4 C 6,4 km/h (2 Bft) 95,65 %
17.06.2019 08:56 17,4 C 18,3 C 82 % 1022,0 hPa 0,0 l/m 3,2 km/h (1 Bft) O 90 0,000 mm 0,9 UV-I 193 W/m 14,3 C 17,4 C 4,8 km/h (1 Bft) 91,30 %
17.06.2019 08:55 17,5 C 18,3 C 82 % 1022,0 hPa 0,0 l/m 6,4 km/h (2 Bft) O 90 0,000 mm 1,0 UV-I 185 W/m 14,4 C 17,5 C 11,3 km/h (2 Bft) 95,65 %
17.06.2019 08:54 17,7 C 18,3 C 82 % 1022,0 hPa 0,0 l/m 9,7 km/h (2 Bft) O 90 0,000 mm 1,0 UV-I 179 W/m 14,6 C 16,2 C 11,3 km/h (2 Bft) 91,30 %
17.06.2019 08:53 17,7 C 17,8 C 84 % 1022,0 hPa 0,0 l/m 9,7 km/h (2 Bft) O 90 0,000 mm 1,1 UV-I 193 W/m 15,0 C 16,2 C 11,3 km/h (2 Bft) 100,00 %
17.06.2019 08:52 17,6 C 17,8 C 83 % 1022,0 hPa 0,0 l/m 8,0 km/h (2 Bft) O 90 0,000 mm 1,2 UV-I 522 W/m 14,7 C 16,8 C 14,5 km/h (3 Bft) 91,30 %
17.06.2019 08:51 17,6 C 18,3 C 84 % 1022,0 hPa 0,0 l/m 4,8 km/h (1 Bft) O-NO 67 0,000 mm 1,3 UV-I 522 W/m 14,9 C 17,6 C 9,7 km/h (2 Bft) 95,65 %
17.06.2019 08:50 17,5 C 17,8 C 85 % 1022,0 hPa 0,0 l/m 4,8 km/h (1 Bft) O-SO 112 0,000 mm 1,3 UV-I 522 W/m 14,9 C 17,5 C 8,0 km/h (2 Bft) 95,65 %
17.06.2019 08:49 17,3 C 17,8 C 84 % 1022,0 hPa 0,0 l/m 6,4 km/h (2 Bft) O-SO 112 0,000 mm 1,7 UV-I 522 W/m 14,6 C 17,3 C 11,3 km/h (2 Bft) 95,65 %
17.06.2019 08:48 17,1 C 17,8 C 83 % 1022,0 hPa 0,0 l/m 4,8 km/h (1 Bft) NO 45 0,000 mm 1,5 UV-I 522 W/m 14,2 C 17,1 C 8,0 km/h (2 Bft) 91,30 %
17.06.2019 08:47 17,1 C 17,8 C 83 % 1022,0 hPa 0,0 l/m 8,0 km/h (2 Bft) O-NO 67 0,000 mm 1,3 UV-I 448 W/m 14,2 C 16,3 C 12,9 km/h (3 Bft) 91,30 %
17.06.2019 08:46 17,1 C 17,8 C 83 % 1022,0 hPa 0,0 l/m 3,2 km/h (1 Bft) O 90 0,000 mm 1,5 UV-I 448 W/m 14,2 C 17,1 C 6,4 km/h (2 Bft) 100,00 %
17.06.2019 08:45 17,1 C 17,8 C 84 % 1021,9 hPa 0,0 l/m 4,8 km/h (1 Bft) O 90 0,000 mm 1,2 UV-I 448 W/m 14,4 C 17,1 C 6,4 km/h (2 Bft) 86,96 %
17.06.2019 08:44 17,1 C 17,8 C 83 % 1022,0 hPa 0,0 l/m 3,2 km/h (1 Bft) O-NO 67 0,000 mm 1,4 UV-I 448 W/m 14,2 C 17,1 C 9,7 km/h (2 Bft) 95,65 %
17.06.2019 08:43 17,2 C 17,8 C 83 % 1022,0 hPa 0,0 l/m 4,8 km/h (1 Bft) O-SO 112 0,000 mm 1,3 UV-I 156 W/m 14,3 C 17,2 C 11,3 km/h (2 Bft) 91,30 %
17.06.2019 08:42 17,3 C 17,8 C 83 % 1022,0 hPa 0,0 l/m 3,2 km/h (1 Bft) O-SO 112 0,000 mm 1,0 UV-I 156 W/m 14,4 C 17,3 C 8,0 km/h (2 Bft) 95,65 %
17.06.2019 08:41 17,4 C 17,8 C 83 % 1022,0 hPa 0,0 l/m 4,8 km/h (1 Bft) O 90 0,000 mm 1,0 UV-I 111 W/m 14,5 C 17,4 C 8,0 km/h (2 Bft) 95,65 %
17.06.2019 08:40 17,6 C 17,8 C 82 % 1022,1 hPa 0,0 l/m 4,8 km/h (1 Bft) O 90 0,000 mm 1,0 UV-I 114 W/m 14,5 C 17,6 C 9,7 km/h (2 Bft) 91,30 %
17.06.2019 08:39 17,7 C 17,8 C 83 % 1022,0 hPa 0,0 l/m 8,0 km/h (2 Bft) O-SO 112 0,000 mm 1,1 UV-I 492 W/m 14,8 C 16,9 C 9,7 km/h (2 Bft) 86,96 %
17.06.2019 08:38 17,7 C 17,8 C 85 % 1022,2 hPa 0,0 l/m 9,7 km/h (2 Bft) O 90 0,000 mm 1,3 UV-I 492 W/m 15,1 C 16,2 C 12,9 km/h (3 Bft) 95,65 %
17.06.2019 08:37 17,6 C 17,8 C 84 % 1022,1 hPa 0,0 l/m 8,0 km/h (2 Bft) O 90 0,000 mm 1,5 UV-I 492 W/m 14,9 C 16,8 C 12,9 km/h (3 Bft) 91,30 %
17.06.2019 08:36 17,4 C 17,8 C 86 % 1022,1 hPa 0,0 l/m 12,9 km/h (3 Bft) O-SO 112 0,000 mm 1,5 UV-I 492 W/m 15,0 C 14,7 C 14,5 km/h (3 Bft) 95,65 %
17.06.2019 08:35 17,2 C 17,2 C 85 % 1022,2 hPa 0,0 l/m 9,7 km/h (2 Bft) O-SO 112 0,000 mm 1,5 UV-I 519 W/m 14,7 C 15,7 C 14,5 km/h (3 Bft) 95,65 %
17.06.2019 08:34 17,0 C 17,2 C 85 % 1022,1 hPa 0,0 l/m 6,4 km/h (2 Bft) O-SO 112 0,000 mm 1,4 UV-I 483 W/m 14,5 C 17,0 C 12,9 km/h (3 Bft) 95,65 %
17.06.2019 08:33 16,9 C 17,2 C 84 % 1022,2 hPa 0,0 l/m 3,2 km/h (1 Bft) O 90 0,000 mm 1,3 UV-I 445 W/m 14,2 C 16,9 C 12,9 km/h (3 Bft) 100,00 %
17.06.2019 08:32 16,8 C 17,2 C 85 % 1022,2 hPa 0,0 l/m 8,0 km/h (2 Bft) O-NO 67 0,000 mm 1,3 UV-I 441 W/m 14,3 C 16,0 C 11,3 km/h (2 Bft) 95,65 %
17.06.2019 08:31 16,7 C 17,2 C 84 % 1022,2 hPa 0,0 l/m 8,0 km/h (2 Bft) O 90 0,000 mm 1,2 UV-I 408 W/m 14,0 C 15,9 C 12,9 km/h (3 Bft) 91,30 %
17.06.2019 08:30 16,7 C 17,2 C 84 % 1022,2 hPa 0,0 l/m 3,2 km/h (1 Bft) O 90 0,000 mm 0,9 UV-I 343 W/m 14,0 C 16,7 C 8,0 km/h (2 Bft) 95,65 %
17.06.2019 08:29 16,7 C 17,2 C 84 % 1022,2 hPa 0,0 l/m 3,2 km/h (1 Bft) O-SO 112 0,000 mm 1,0 UV-I 197 W/m 14,0 C 16,7 C 14,5 km/h (3 Bft) 91,30 %
17.06.2019 08:28 16,7 C 17,2 C 85 % 1022,2 hPa 0,0 l/m 6,4 km/h (2 Bft) O-SO 112 0,000 mm 0,9 UV-I 193 W/m 14,2 C 16,7 C 14,5 km/h (3 Bft) 100,00 %
17.06.2019 08:27 16,7 C 16,7 C 84 % 1022,3 hPa 0,0 l/m 6,4 km/h (2 Bft) O-SO 112 0,000 mm 0,9 UV-I 199 W/m 14,0 C 16,7 C 11,3 km/h (2 Bft) 95,65 %
17.06.2019 08:26 16,7 C 16,7 C 84 % 1022,2 hPa 0,0 l/m 4,8 km/h (1 Bft) O-SO 112 0,000 mm 0,9 UV-I 178 W/m 14,0 C 16,7 C 8,0 km/h (2 Bft) 100,00 %
17.06.2019 08:25 16,8 C 16,7 C 84 % 1022,3 hPa 0,0 l/m 6,4 km/h (2 Bft) O 90 0,000 mm 0,9 UV-I 176 W/m 14,1 C 16,8 C 11,3 km/h (2 Bft) 95,65 %
17.06.2019 08:24 16,8 C 16,7 C 84 % 1022,3 hPa 0,0 l/m 6,4 km/h (2 Bft) O 90 0,000 mm 0,9 UV-I 193 W/m 14,1 C 16,8 C 9,7 km/h (2 Bft) 100,00 %
17.06.2019 08:23 16,9 C 16,7 C 83 % 1022,2 hPa 0,0 l/m 4,8 km/h (1 Bft) O-SO 112 0,000 mm 0,9 UV-I 188 W/m 14,0 C 16,9 C 6,4 km/h (2 Bft) 86,96 %
17.06.2019 08:22 16,9 C 16,7 C 83 % 1022,3 hPa 0,0 l/m 3,2 km/h (1 Bft) O-SO 112 0,000 mm 0,9 UV-I 165 W/m 14,0 C 16,9 C 6,4 km/h (2 Bft) 91,30 %
17.06.2019 08:21 17,1 C 16,7 C 84 % 1022,2 hPa 0,0 l/m 6,4 km/h (2 Bft) O-SO 112 0,000 mm 0,9 UV-I 343 W/m 14,4 C 17,1 C 12,9 km/h (3 Bft) 100,00 %
17.06.2019 08:20 17,0 C 16,7 C 84 % 1022,2 hPa 0,0 l/m 6,4 km/h (2 Bft) O 90 0,000 mm 1,2 UV-I 343 W/m 14,3 C 17,0 C 11,3 km/h (2 Bft) 95,65 %
17.06.2019 08:19 16,9 C 16,7 C 84 % 1022,2 hPa 0,0 l/m 3,2 km/h (1 Bft) O 90 0,000 mm 1,1 UV-I 322 W/m 14,2 C 16,9 C 6,4 km/h (2 Bft) 95,65 %
17.06.2019 08:18 16,9 C 16,7 C 84 % 1022,2 hPa 0,0 l/m 6,4 km/h (2 Bft) O 90 0,000 mm 1,2 UV-I 323 W/m 14,2 C 16,9 C 11,3 km/h (2 Bft) 100,00 %
17.06.2019 08:17 16,9 C 16,7 C 84 % 1022,1 hPa 0,0 l/m 6,4 km/h (2 Bft) O 90 0,000 mm 1,0 UV-I 283 W/m 14,2 C 16,9 C 11,3 km/h (2 Bft) 100,00 %
17.06.2019 08:16 16,9 C 16,7 C 84 % 1022,1 hPa 0,0 l/m 1,6 km/h (1 Bft) O 90 0,000 mm 1,0 UV-I 262 W/m 14,2 C 16,9 C 3,2 km/h (1 Bft) 95,65 %
17.06.2019 08:15 16,9 C 16,7 C 84 % 1022,1 hPa 0,0 l/m 1,6 km/h (1 Bft) O 90 0,000 mm 0,9 UV-I 255 W/m 14,2 C 16,9 C 3,2 km/h (1 Bft) 100,00 %
17.06.2019 08:14 16,9 C 16,7 C 83 % 1022,2 hPa 0,0 l/m 3,2 km/h (1 Bft) O 90 0,000 mm 1,0 UV-I 295 W/m 14,0 C 16,9 C 4,8 km/h (1 Bft) 100,00 %
17.06.2019 08:13 16,9 C 16,7 C 84 % 1022,1 hPa 0,0 l/m 3,2 km/h (1 Bft) O 90 0,000 mm 1,0 UV-I 267 W/m 14,2 C 16,9 C 9,7 km/h (2 Bft) 86,96 %
17.06.2019 08:12 17,1 C 16,7 C 84 % 1022,1 hPa 0,0 l/m 4,8 km/h (1 Bft) O 90 0,000 mm 1,0 UV-I 267 W/m 14,4 C 17,1 C 9,7 km/h (2 Bft) 91,30 %
17.06.2019 08:11 17,2 C 16,7 C 84 % 1022,1 hPa 0,0 l/m 6,4 km/h (2 Bft) O-SO 112 0,000 mm 1,0 UV-I 294 W/m 14,5 C 17,2 C 12,9 km/h (3 Bft) 95,65 %
17.06.2019 08:10 17,2 C 16,7 C 85 % 1022,1 hPa 0,0 l/m 4,8 km/h (1 Bft) O-SO 112 0,000 mm 0,9 UV-I 294 W/m 14,7 C 17,2 C 8,0 km/h (2 Bft) 91,30 %
17.06.2019 08:09 17,2 C 16,7 C 85 % 1022,1 hPa 0,0 l/m 3,2 km/h (1 Bft) O-SO 112 0,000 mm 1,0 UV-I 294 W/m 14,7 C 17,2 C 6,4 km/h (2 Bft) 82,61 %
17.06.2019 08:08 17,2 C 16,7 C 85 % 1022,1 hPa 0,0 l/m 4,8 km/h (1 Bft) O-SO 112 0,000 mm 1,0 UV-I 232 W/m 14,7 C 17,2 C 11,3 km/h (2 Bft) 100,00 %
17.06.2019 08:07 17,2 C 16,7 C 85 % 1022,1 hPa 0,0 l/m 8,0 km/h (2 Bft) O-SO 112 0,000 mm 1,0 UV-I 283 W/m 14,7 C 16,4 C 11,3 km/h (2 Bft) 95,65 %
17.06.2019 08:06 17,2 C 16,7 C 85 % 1022,1 hPa 0,0 l/m 8,0 km/h (2 Bft) O-SO 112 0,000 mm 1,0 UV-I 265 W/m 14,7 C 16,4 C 11,3 km/h (2 Bft) 100,00 %
17.06.2019 08:05 17,1 C 16,7 C 85 % 1022,1 hPa 0,0 l/m 4,8 km/h (1 Bft) O-SO 112 0,000 mm 0,9 UV-I 279 W/m 14,6 C 17,1 C 8,0 km/h (2 Bft) 91,30 %
17.06.2019 08:04 17,1 C 16,7 C 85 % 1022,1 hPa 0,0 l/m 4,8 km/h (1 Bft) O-SO 112 0,000 mm 0,9 UV-I 244 W/m 14,6 C 17,1 C 12,9 km/h (3 Bft) 95,65 %
17.06.2019 08:03 17,1 C 16,7 C 84 % 1022,0 hPa 0,0 l/m 4,8 km/h (1 Bft) O-SO 112 0,000 mm 0,9 UV-I 246 W/m 14,4 C 17,1 C 8,0 km/h (2 Bft) 91,30 %
17.06.2019 08:02 17,1 C 16,7 C 84 % 1022,1 hPa 0,0 l/m 3,2 km/h (1 Bft) O 90 0,000 mm 1,0 UV-I 251 W/m 14,4 C 17,1 C 4,8 km/h (1 Bft) 95,65 %
17.06.2019 08:01 17,0 C 16,7 C 84 % 1022,1 hPa 0,0 l/m 3,2 km/h (1 Bft) O-SO 112 0,000 mm 1,0 UV-I 323 W/m 14,3 C 17,0 C 8,0 km/h (2 Bft) 95,65 %
17.06.2019 08:00 17,1 C 16,7 C 85 % 1022,0 hPa 0,0 l/m 1,6 km/h (1 Bft) O-SO 112 0,152 mm 1,0 UV-I 338 W/m 14,6 C 17,1 C 4,8 km/h (1 Bft) 100,00 %
17.06.2019 07:59 17,0 C 16,7 C 84 % 1022,0 hPa 0,0 l/m 6,4 km/h (2 Bft) O-SO 112 0,000 mm 1,0 UV-I 327 W/m 14,3 C 17,0 C 12,9 km/h (3 Bft) 95,65 %
17.06.2019 07:58 17,0 C 16,7 C 84 % 1022,0 hPa 0,0 l/m 6,4 km/h (2 Bft) O-NO 67 0,000 mm 1,0 UV-I 320 W/m 14,3 C 17,0 C 11,3 km/h (2 Bft) 91,30 %
17.06.2019 07:57 17,0 C 16,7 C 84 % 1022,0 hPa 0,0 l/m 8,0 km/h (2 Bft) O-NO 67 0,000 mm 1,0 UV-I 316 W/m 14,3 C 16,2 C 12,9 km/h (3 Bft) 86,96 %
17.06.2019 07:56 17,0 C 16,7 C 84 % 1022,0 hPa 0,0 l/m 4,8 km/h (1 Bft) O 90 0,000 mm 0,9 UV-I 285 W/m 14,3 C 17,0 C 9,7 km/h (2 Bft) 100,00 %
17.06.2019 07:55 17,0 C 16,7 C 84 % 1022,0 hPa 0,0 l/m 3,2 km/h (1 Bft) O 90 0,000 mm 0,9 UV-I 318 W/m 14,3 C 17,0 C 6,4 km/h (2 Bft) 91,30 %
17.06.2019 07:54 16,9 C 16,7 C 84 % 1022,0 hPa 0,0 l/m 1,6 km/h (1 Bft) O 90 0,000 mm 0,9 UV-I 318 W/m 14,2 C 16,9 C 6,4 km/h (2 Bft) 91,30 %
17.06.2019 07:53 16,9 C 16,7 C 84 % 1022,0 hPa 0,0 l/m 4,8 km/h (1 Bft) O 90 0,000 mm 1,0 UV-I 327 W/m 14,2 C 16,9 C 8,0 km/h (2 Bft) 100,00 %
17.06.2019 07:52 16,9 C 16,7 C 84 % 1021,9 hPa 0,0 l/m 4,8 km/h (1 Bft) O-SO 112 0,000 mm 0,9 UV-I 323 W/m 14,2 C 16,9 C 8,0 km/h (2 Bft) 100,00 %
17.06.2019 07:51 16,8 C 16,7 C 85 % 1022,0 hPa 0,0 l/m 4,8 km/h (1 Bft) SO 135 0,000 mm 0,9 UV-I 311 W/m 14,3 C 16,8 C 8,0 km/h (2 Bft) 95,65 %
17.06.2019 07:50 16,8 C 16,7 C 84 % 1022,0 hPa 0,0 l/m 4,8 km/h (1 Bft) O-NO 67 0,000 mm 0,9 UV-I 311 W/m 14,1 C 16,8 C 6,4 km/h (2 Bft) 95,65 %
17.06.2019 07:49 16,7 C 16,7 C 85 % 1022,0 hPa 0,0 l/m 3,2 km/h (1 Bft) O 90 0,000 mm 0,9 UV-I 313 W/m 14,2 C 16,7 C 9,7 km/h (2 Bft) 100,00 %
17.06.2019 07:48 16,8 C 16,7 C 85 % 1022,0 hPa 0,0 l/m 6,4 km/h (2 Bft) O-NO 67 0,000 mm 0,9 UV-I 315 W/m 14,3 C 16,8 C 11,3 km/h (2 Bft) 91,30 %
17.06.2019 07:47 16,7 C 16,7 C 85 % 1022,0 hPa 0,0 l/m 4,8 km/h (1 Bft) O 90 0,000 mm 0,9 UV-I 306 W/m 14,2 C 16,7 C 11,3 km/h (2 Bft) 95,65 %
17.06.2019 07:46 16,8 C 16,7 C 85 % 1022,0 hPa 0,0 l/m 1,6 km/h (1 Bft) O-SO 112 0,000 mm 0,9 UV-I 294 W/m 14,3 C 16,8 C 6,4 km/h (2 Bft) 100,00 %
17.06.2019 07:45 16,7 C 16,7 C 85 % 1022,0 hPa 0,0 l/m 1,6 km/h (1 Bft) O-SO 112 0,000 mm 0,8 UV-I 274 W/m 14,2 C 16,7 C 4,8 km/h (1 Bft) 100,00 %
17.06.2019 07:44 16,7 C 16,7 C 85 % 1022,0 hPa 0,0 l/m 1,6 km/h (1 Bft) O-SO 112 0,000 mm 0,8 UV-I 269 W/m 14,2 C 16,7 C 4,8 km/h (1 Bft) 100,00 %
17.06.2019 07:43 16,7 C 16,7 C 85 % 1022,0 hPa 0,0 l/m 3,2 km/h (1 Bft) O-SO 112 0,000 mm 0,8 UV-I 260 W/m 14,2 C 16,7 C 8,0 km/h (2 Bft) 100,00 %
17.06.2019 07:42 16,7 C 16,7 C 84 % 1022,0 hPa 0,0 l/m 0,0 km/h (0 Bft) O 90 0,000 mm 0,8 UV-I 241 W/m 14,0 C 16,7 C 3,2 km/h (1 Bft) 100,00 %
17.06.2019 07:41 16,7 C 16,7 C 84 % 1022,1 hPa 0,0 l/m 1,6 km/h (1 Bft) O 90 0,000 mm 0,8 UV-I 232 W/m 14,0 C 16,7 C 3,2 km/h (1 Bft) 86,96 %
17.06.2019 07:40 16,7 C 16,7 C 84 % 1022,0 hPa 0,0 l/m 1,6 km/h (1 Bft) O 90 0,000 mm 0,8 UV-I 229 W/m 14,0 C 16,7 C 3,2 km/h (1 Bft) 100,00 %
17.06.2019 07:39 16,7 C 16,7 C 84 % 1022,1 hPa 0,0 l/m 1,6 km/h (1 Bft) O 90 0,000 mm 0,8 UV-I 234 W/m 14,0 C 16,7 C 3,2 km/h (1 Bft) 100,00 %
17.06.2019 07:38 16,7 C 16,7 C 85 % 1022,1 hPa 0,0 l/m 1,6 km/h (1 Bft) O 90 0,000 mm 0,7 UV-I 241 W/m 14,2 C 16,7 C 4,8 km/h (1 Bft) 95,65 %
17.06.2019 07:37 16,7 C 16,7 C 86 % 1022,0 hPa 0,0 l/m 4,8 km/h (1 Bft) O 90 0,000 mm 0,7 UV-I 244 W/m 14,3 C 16,7 C 6,4 km/h (2 Bft) 100,00 %
17.06.2019 07:36 16,6 C 16,7 C 85 % 1022,1 hPa 0,0 l/m 0,0 km/h (0 Bft) O 90 0,000 mm 0,7 UV-I 246 W/m 14,1 C 16,6 C 3,2 km/h (1 Bft) 82,61 %
17.06.2019 07:35 16,6 C 16,7 C 85 % 1022,1 hPa 0,0 l/m 0,0 km/h (0 Bft) O 90 0,000 mm 0,7 UV-I 234 W/m 14,1 C 16,6 C 1,6 km/h (1 Bft) 100,00 %
17.06.2019 07:34 16,6 C 16,1 C 85 % 1022,1 hPa 0,0 l/m 3,2 km/h (1 Bft) O 90 0,000 mm 0,7 UV-I 255 W/m 14,1 C 16,6 C 4,8 km/h (1 Bft) 91,30 %
17.06.2019 07:33 16,6 C 16,1 C 85 % 1022,1 hPa 0,0 l/m 1,6 km/h (1 Bft) O 90 0,000 mm 0,7 UV-I 239 W/m 14,1 C 16,6 C 3,2 km/h (1 Bft) 100,00 %
17.06.2019 07:32 16,6 C 16,1 C 85 % 1022,1 hPa 0,0 l/m 1,6 km/h (1 Bft) O 90 0,000 mm 0,7 UV-I 255 W/m 14,1 C 16,6 C 6,4 km/h (2 Bft) 100,00 %
17.06.2019 07:31 16,6 C 16,1 C 85 % 1022,1 hPa 0,0 l/m 3,2 km/h (1 Bft) O 90 0,000 mm 0,7 UV-I 241 W/m 14,1 C 16,6 C 8,0 km/h (2 Bft) 100,00 %
17.06.2019 07:30 16,5 C 16,1 C 85 % 1022,1 hPa 0,0 l/m 3,2 km/h (1 Bft) O 90 0,000 mm 0,7 UV-I 232 W/m 14,0 C 16,5 C 4,8 km/h (1 Bft) 95,65 %
17.06.2019 07:29 16,6 C 16,1 C 85 % 1022,1 hPa 0,0 l/m 1,6 km/h (1 Bft) O 90 0,000 mm 0,6 UV-I 237 W/m 14,1 C 16,6 C 6,4 km/h (2 Bft) 100,00 %
17.06.2019 07:28 16,6 C 16,1 C 85 % 1022,1 hPa 0,0 l/m 1,6 km/h (1 Bft) O 90 0,000 mm 0,6 UV-I 213 W/m 14,1 C 16,6 C 4,8 km/h (1 Bft) 95,65 %
17.06.2019 07:27 16,5 C 16,1 C 85 % 1022,2 hPa 0,0 l/m 3,2 km/h (1 Bft) O 90 0,000 mm 0,6 UV-I 241 W/m 14,0 C 16,5 C 6,4 km/h (2 Bft) 91,30 %
17.06.2019 07:26 16,6 C 16,1 C 85 % 1022,2 hPa 0,0 l/m 6,4 km/h (2 Bft) O 90 0,000 mm 0,6 UV-I 246 W/m 14,1 C 16,6 C 8,0 km/h (2 Bft) 100,00 %
17.06.2019 07:25 16,5 C 16,1 C 85 % 1022,2 hPa 0,0 l/m 1,6 km/h (1 Bft) O 90 0,000 mm 0,6 UV-I 253 W/m 14,0 C 16,5 C 6,4 km/h (2 Bft) 100,00 %
17.06.2019 07:24 16,6 C 16,1 C 86 % 1022,2 hPa 0,0 l/m 6,4 km/h (2 Bft) O 90 0,000 mm 0,6 UV-I 251 W/m 14,2 C 16,6 C 8,0 km/h (2 Bft) 100,00 %
17.06.2019 07:23 16,4 C 16,1 C 85 % 1022,2 hPa 0,0 l/m 1,6 km/h (1 Bft) O 90 0,000 mm 0,6 UV-I 244 W/m 13,9 C 16,4 C 4,8 km/h (1 Bft) 95,65 %
17.06.2019 07:22 16,4 C 16,1 C 85 % 1022,1 hPa 0,0 l/m 4,8 km/h (1 Bft) O 90 0,000 mm 0,6 UV-I 239 W/m 13,9 C 16,4 C 9,7 km/h (2 Bft) 100,00 %
17.06.2019 07:21 16,4 C 16,1 C 85 % 1022,2 hPa 0,0 l/m 9,7 km/h (2 Bft) O 90 0,000 mm 0,6 UV-I 243 W/m 13,9 C 14,8 C 11,3 km/h (2 Bft) 100,00 %
17.06.2019 07:20 16,4 C 16,1 C 85 % 1022,1 hPa 0,0 l/m 4,8 km/h (1 Bft) O 90 0,000 mm 0,6 UV-I 246 W/m 13,9 C 16,4 C 9,7 km/h (2 Bft) 95,65 %
17.06.2019 07:19 16,4 C 16,1 C 85 % 1022,1 hPa 0,0 l/m 1,6 km/h (1 Bft) O 90 0,000 mm 0,6 UV-I 244 W/m 13,9 C 16,4 C 4,8 km/h (1 Bft) 100,00 %
17.06.2019 07:18 16,4 C 16,1 C 86 % 1022,1 hPa 0,0 l/m 3,2 km/h (1 Bft) O 90 0,000 mm 0,6 UV-I 255 W/m 14,1 C 16,4 C 6,4 km/h (2 Bft) 95,65 %
17.06.2019 07:17 16,4 C 16,1 C 86 % 1022,1 hPa 0,0 l/m 6,4 km/h (2 Bft) O-SO 112 0,000 mm 0,5 UV-I 260 W/m 14,1 C 16,4 C 11,3 km/h (2 Bft) 100,00 %
17.06.2019 07:16 16,4 C 16,1 C 86 % 1022,2 hPa 0,0 l/m 4,8 km/h (1 Bft) O 90 0,000 mm 0,5 UV-I 264 W/m 14,1 C 16,4 C 6,4 km/h (2 Bft) 95,65 %
17.06.2019 07:15 16,3 C 16,1 C 86 % 1022,2 hPa 0,0 l/m 6,4 km/h (2 Bft) O-SO 112 0,000 mm 0,5 UV-I 264 W/m 14,0 C 16,3 C 8,0 km/h (2 Bft) 100,00 %
17.06.2019 07:14 16,3 C 16,1 C 86 % 1022,2 hPa 0,0 l/m 4,8 km/h (1 Bft) O-SO 112 0,000 mm 0,5 UV-I 276 W/m 14,0 C 16,3 C 8,0 km/h (2 Bft) 95,65 %
17.06.2019 07:13 16,2 C 16,1 C 86 % 1022,2 hPa 0,0 l/m 1,6 km/h (1 Bft) O 90 0,000 mm 0,5 UV-I 276 W/m 13,9 C 16,2 C 4,8 km/h (1 Bft) 91,30 %
17.06.2019 07:12 16,1 C 16,1 C 86 % 1022,1 hPa 0,0 l/m 4,8 km/h (1 Bft) O 90 0,000 mm 0,5 UV-I 272 W/m 13,8 C 16,1 C 8,0 km/h (2 Bft) 95,65 %
17.06.2019 07:11 16,1 C 16,1 C 86 % 1022,1 hPa 0,0 l/m 1,6 km/h (1 Bft) O 90 0,000 mm 0,5 UV-I 255 W/m 13,8 C 16,1 C 3,2 km/h (1 Bft) 95,65 %
17.06.2019 07:10 15,9 C 16,1 C 86 % 1022,1 hPa 0,0 l/m 4,8 km/h (1 Bft) O 90 0,000 mm 0,0 UV-I 255 W/m 13,6 C 15,9 C 6,4 km/h (2 Bft) 95,65 %
17.06.2019 07:09 15,9 C 16,1 C 86 % 1022,1 hPa 0,0 l/m 1,6 km/h (1 Bft) O 90 0,000 mm 0,0 UV-I 225 W/m 13,6 C 15,9 C 4,8 km/h (1 Bft) 100,00 %
17.06.2019 07:08 15,8 C 16,1 C 85 % 1022,1 hPa 0,0 l/m 1,6 km/h (1 Bft) O 90 0,000 mm 0,0 UV-I 185 W/m 13,3 C 15,8 C 3,2 km/h (1 Bft) 95,65 %
17.06.2019 07:07 15,8 C 16,1 C 85 % 1022,2 hPa 0,0 l/m 3,2 km/h (1 Bft) O 90 0,000 mm 0,0 UV-I 134 W/m 13,3 C 15,8 C 4,8 km/h (1 Bft) 95,65 %
17.06.2019 07:06 15,8 C 16,1 C 85 % 1022,1 hPa 0,0 l/m 3,2 km/h (1 Bft) O 90 0,000 mm 0,0 UV-I 132 W/m 13,3 C 15,8 C 4,8 km/h (1 Bft) 91,30 %
17.06.2019 07:05 15,8 C 16,1 C 85 % 1022,2 hPa 0,0 l/m 3,2 km/h (1 Bft) O 90 0,000 mm 0,0 UV-I 137 W/m 13,3 C 15,8 C 4,8 km/h (1 Bft) 91,30 %
17.06.2019 07:04 15,8 C 16,1 C 85 % 1022,1 hPa 0,0 l/m 1,6 km/h (1 Bft) O 90 0,000 mm 0,0 UV-I 146 W/m 13,3 C 15,8 C 3,2 km/h (1 Bft) 100,00 %
17.06.2019 07:03 15,8 C 16,1 C 85 % 1022,1 hPa 0,0 l/m 1,6 km/h (1 Bft) O 90 0,000 mm 0,0 UV-I 176 W/m 13,3 C 15,8 C 3,2 km/h (1 Bft) 100,00 %
17.06.2019 07:02 15,8 C 16,1 C 85 % 1022,1 hPa 0,0 l/m 1,6 km/h (1 Bft) O 90 0,000 mm 0,0 UV-I 163 W/m 13,3 C 15,8 C 3,2 km/h (1 Bft) 100,00 %
17.06.2019 07:01 15,8 C 16,1 C 85 % 1022,0 hPa 0,0 l/m 1,6 km/h (1 Bft) O 90 0,000 mm 0,0 UV-I 128 W/m 13,3 C 15,8 C 3,2 km/h (1 Bft) 95,65 %
17.06.2019 07:00 15,8 C 16,1 C 85 % 1022,2 hPa 0,0 l/m 1,6 km/h (1 Bft) O 90 0,051 mm 0,0 UV-I 130 W/m 13,3 C 15,8 C 3,2 km/h (1 Bft) 100,00 %
17.06.2019 06:59 15,8 C 16,1 C 85 % 1022,1 hPa 0,0 l/m 3,2 km/h (1 Bft) O 90 0,000 mm 0,0 UV-I 130 W/m 13,3 C 15,8 C 4,8 km/h (1 Bft) 95,65 %
17.06.2019 06:58 15,8 C 16,1 C 85 % 1022,1 hPa 0,0 l/m 3,2 km/h (1 Bft) O 90 0,000 mm 0,0 UV-I 127 W/m 13,3 C 15,8 C 4,8 km/h (1 Bft) 95,65 %
17.06.2019 06:57 15,7 C 16,1 C 85 % 1022,1 hPa 0,0 l/m 4,8 km/h (1 Bft) O 90 0,000 mm 0,0 UV-I 130 W/m 13,2 C 15,7 C 6,4 km/h (2 Bft) 95,65 %
17.06.2019 06:56 15,7 C 16,1 C 85 % 1022,1 hPa 0,0 l/m 4,8 km/h (1 Bft) O 90 0,000 mm 0,0 UV-I 121 W/m 13,2 C 15,7 C 4,8 km/h (1 Bft) 95,65 %
17.06.2019 06:55 15,7 C 16,1 C 85 % 1022,1 hPa 0,0 l/m 1,6 km/h (1 Bft) O 90 0,000 mm 0,0 UV-I 118 W/m 13,2 C 15,7 C 4,8 km/h (1 Bft) 100,00 %
17.06.2019 06:54 15,8 C 16,1 C 85 % 1022,1 hPa 0,0 l/m 3,2 km/h (1 Bft) O 90 0,000 mm 0,0 UV-I 118 W/m 13,3 C 15,8 C 3,2 km/h (1 Bft) 95,65 %
17.06.2019 06:53 15,8 C 15,6 C 86 % 1022,2 hPa 0,0 l/m 3,2 km/h (1 Bft) O 90 0,000 mm 0,0 UV-I 118 W/m 13,5 C 15,8 C 4,8 km/h (1 Bft) 100,00 %
17.06.2019 06:52 15,9 C 15,6 C 86 % 1022,2 hPa 0,0 l/m 3,2 km/h (1 Bft) O 90 0,000 mm 0,0 UV-I 118 W/m 13,6 C 15,9 C 6,4 km/h (2 Bft) 95,65 %
17.06.2019 06:51 15,8 C 15,6 C 86 % 1022,1 hPa 0,0 l/m 3,2 km/h (1 Bft) O 90 0,000 mm 0,0 UV-I 120 W/m 13,5 C 15,8 C 4,8 km/h (1 Bft) 95,65 %
17.06.2019 06:50 15,9 C 15,6 C 86 % 1022,1 hPa 0,0 l/m 1,6 km/h (1 Bft) O 90 0,000 mm 0,0 UV-I 120 W/m 13,6 C 15,9 C 4,8 km/h (1 Bft) 95,65 %
17.06.2019 06:49 15,8 C 15,6 C 87 % 1022,2 hPa 0,0 l/m 4,8 km/h (1 Bft) O 90 0,000 mm 0,0 UV-I 121 W/m 13,6 C 15,8 C 6,4 km/h (2 Bft) 100,00 %
17.06.2019 06:48 15,7 C 15,6 C 86 % 1022,1 hPa 0,0 l/m 4,8 km/h (1 Bft) O 90 0,000 mm 0,0 UV-I 123 W/m 13,4 C 15,7 C 6,4 km/h (2 Bft) 95,65 %
17.06.2019 06:47 15,7 C 15,6 C 86 % 1022,1 hPa 0,0 l/m 4,8 km/h (1 Bft) O 90 0,000 mm 0,0 UV-I 123 W/m 13,4 C 15,7 C 6,4 km/h (2 Bft) 95,65 %
17.06.2019 06:46 15,7 C 15,6 C 85 % 1022,1 hPa 0,0 l/m 4,8 km/h (1 Bft) O 90 0,000 mm 0,0 UV-I 121 W/m 13,2 C 15,7 C 4,8 km/h (1 Bft) 100,00 %
17.06.2019 06:45 15,7 C 15,6 C 86 % 1022,1 hPa 0,0 l/m 4,8 km/h (1 Bft) O 90 0,000 mm 0,0 UV-I 121 W/m 13,4 C 15,7 C 6,4 km/h (2 Bft) 95,65 %
17.06.2019 06:44 15,7 C 15,6 C 85 % 1022,1 hPa 0,0 l/m 3,2 km/h (1 Bft) O 90 0,000 mm 0,0 UV-I 120 W/m 13,2 C 15,7 C 4,8 km/h (1 Bft) 95,65 %
17.06.2019 06:43 15,8 C 15,6 C 86 % 1022,1 hPa 0,0 l/m 3,2 km/h (1 Bft) O 90 0,000 mm 0,0 UV-I 120 W/m 13,5 C 15,8 C 4,8 km/h (1 Bft) 95,65 %
17.06.2019 06:42 15,8 C 15,6 C 87 % 1022,0 hPa 0,0 l/m 4,8 km/h (1 Bft) O 90 0,000 mm 0,0 UV-I 118 W/m 13,6 C 15,8 C 6,4 km/h (2 Bft) 100,00 %
17.06.2019 06:41 15,8 C 15,6 C 87 % 1022,1 hPa 0,0 l/m 3,2 km/h (1 Bft) O 90 0,000 mm 0,0 UV-I 116 W/m 13,6 C 15,8 C 4,8 km/h (1 Bft) 95,65 %
17.06.2019 06:40 15,7 C 15,6 C 87 % 1022,1 hPa 0,0 l/m 1,6 km/h (1 Bft) O 90 0,000 mm 0,0 UV-I 114 W/m 13,5 C 15,7 C 4,8 km/h (1 Bft) 100,00 %
17.06.2019 06:39 15,7 C 15,6 C 87 % 1022,1 hPa 0,0 l/m 3,2 km/h (1 Bft) O 90 0,000 mm 0,0 UV-I 116 W/m 13,5 C 15,7 C 4,8 km/h (1 Bft) 95,65 %
17.06.2019 06:38 15,7 C 15,6 C 87 % 1022,1 hPa 0,0 l/m 4,8 km/h (1 Bft) O 90 0,000 mm 0,0 UV-I 114 W/m 13,5 C 15,7 C 6,4 km/h (2 Bft) 95,65 %
17.06.2019 06:37 15,8 C 15,0 C 87 % 1022,1 hPa 0,0 l/m 3,2 km/h (1 Bft) O 90 0,000 mm 0,0 UV-I 113 W/m 13,6 C 15,8 C 6,4 km/h (2 Bft) 95,65 %
17.06.2019 06:36 15,8 C 15,0 C 88 % 1022,1 hPa 0,0 l/m 4,8 km/h (1 Bft) O 90 0,000 mm 0,0 UV-I 111 W/m 13,8 C 15,8 C 6,4 km/h (2 Bft) 95,65 %
17.06.2019 06:35 15,8 C 15,0 C 88 % 1022,1 hPa 0,0 l/m 4,8 km/h (1 Bft) O 90 0,000 mm 0,0 UV-I 109 W/m 13,8 C 15,8 C 6,4 km/h (2 Bft) 95,65 %
17.06.2019 06:34 15,7 C 15,0 C 88 % 1022,1 hPa 0,0 l/m 4,8 km/h (1 Bft) O 90 0,000 mm 0,0 UV-I 109 W/m 13,7 C 15,7 C 8,0 km/h (2 Bft) 95,65 %
17.06.2019 06:33 15,7 C 15,0 C 88 % 1022,1 hPa 0,0 l/m 4,8 km/h (1 Bft) O 90 0,000 mm 0,0 UV-I 107 W/m 13,7 C 15,7 C 8,0 km/h (2 Bft) 100,00 %
17.06.2019 06:32 15,7 C 15,0 C 88 % 1022,1 hPa 0,0 l/m 4,8 km/h (1 Bft) O 90 0,000 mm 0,0 UV-I 105 W/m 13,7 C 15,7 C 8,0 km/h (2 Bft) 91,30 %
17.06.2019 06:31 15,7 C 15,0 C 88 % 1022,1 hPa 0,0 l/m 4,8 km/h (1 Bft) O 90 0,000 mm 0,0 UV-I 104 W/m 13,7 C 15,7 C 8,0 km/h (2 Bft) 95,65 %
17.06.2019 06:30 15,7 C 15,0 C 88 % 1022,1 hPa 0,0 l/m 4,8 km/h (1 Bft) O 90 0,000 mm 0,0 UV-I 102 W/m 13,7 C 15,7 C 6,4 km/h (2 Bft) 95,65 %
17.06.2019 06:29 15,7 C 15,0 C 88 % 1022,1 hPa 0,0 l/m 4,8 km/h (1 Bft) O 90 0,000 mm 0,0 UV-I 102 W/m 13,7 C 15,7 C 8,0 km/h (2 Bft) 100,00 %
17.06.2019 06:28 15,7 C 15,0 C 88 % 1022,2 hPa 0,0 l/m 4,8 km/h (1 Bft) O 90 0,000 mm 0,0 UV-I 100 W/m 13,7 C 15,7 C 9,7 km/h (2 Bft) 100,00 %
17.06.2019 06:27 15,6 C 15,0 C 88 % 1022,1 hPa 0,0 l/m 6,4 km/h (2 Bft) O 90 0,000 mm 0,0 UV-I 100 W/m 13,6 C 15,6 C 11,3 km/h (2 Bft) 91,30 %
17.06.2019 06:26 15,6 C 15,0 C 88 % 1022,1 hPa 0,0 l/m 4,8 km/h (1 Bft) O-NO 67 0,000 mm 0,0 UV-I 98 W/m 13,6 C 15,6 C 6,4 km/h (2 Bft) 100,00 %
17.06.2019 06:25 15,6 C 15,0 C 88 % 1022,1 hPa 0,0 l/m 3,2 km/h (1 Bft) O-NO 67 0,000 mm 0,0 UV-I 100 W/m 13,6 C 15,6 C 4,8 km/h (1 Bft) 91,30 %
17.06.2019 06:24 15,6 C 15,0 C 87 % 1022,1 hPa 0,0 l/m 3,2 km/h (1 Bft) NW 315 0,000 mm 0,0 UV-I 98 W/m 13,4 C 15,6 C 6,4 km/h (2 Bft) 100,00 %
17.06.2019 06:23 15,6 C 15,0 C 87 % 1022,0 hPa 0,0 l/m 4,8 km/h (1 Bft) NW 315 0,000 mm 0,0 UV-I 97 W/m 13,4 C 15,6 C 4,8 km/h (1 Bft) 91,30 %
17.06.2019 06:22 15,6 C 14,4 C 87 % 1022,0 hPa 0,0 l/m 1,6 km/h (1 Bft) W-NW 292 0,000 mm 0,0 UV-I 95 W/m 13,4 C 15,6 C 4,8 km/h (1 Bft) 100,00 %
17.06.2019 06:21 15,6 C 14,4 C 87 % 1022,0 hPa 0,0 l/m 0,0 km/h (0 Bft) W-NW 292 0,000 mm 0,0 UV-I 93 W/m 13,4 C 15,6 C 3,2 km/h (1 Bft) 91,30 %
17.06.2019 06:20 15,6 C 14,4 C 87 % 1022,0 hPa 0,0 l/m 1,6 km/h (1 Bft) W-NW 292 0,000 mm 0,0 UV-I 90 W/m 13,4 C 15,6 C 4,8 km/h (1 Bft) 91,30 %
17.06.2019 06:19 15,6 C 14,4 C 87 % 1021,9 hPa 0,0 l/m 3,2 km/h (1 Bft) W-NW 292 0,000 mm 0,0 UV-I 90 W/m 13,4 C 15,6 C 4,8 km/h (1 Bft) 100,00 %
17.06.2019 06:18 15,6 C 14,4 C 87 % 1022,0 hPa 0,0 l/m 1,6 km/h (1 Bft) W-NW 292 0,000 mm 0,0 UV-I 88 W/m 13,4 C 15,6 C 4,8 km/h (1 Bft) 95,65 %
17.06.2019 06:17 15,6 C 14,4 C 87 % 1022,0 hPa 0,0 l/m 1,6 km/h (1 Bft) W-NW 292 0,000 mm 0,0 UV-I 86 W/m 13,4 C 15,6 C 3,2 km/h (1 Bft) 100,00 %
17.06.2019 06:16 15,7 C 14,4 C 86 % 1021,9 hPa 0,0 l/m 3,2 km/h (1 Bft) W-NW 292 0,000 mm 0,0 UV-I 84 W/m 13,4 C 15,7 C 4,8 km/h (1 Bft) 91,30 %
17.06.2019 06:15 15,7 C 14,4 C 86 % 1022,0 hPa 0,0 l/m 3,2 km/h (1 Bft) W-NW 292 0,000 mm 0,0 UV-I 83 W/m 13,4 C 15,7 C 4,8 km/h (1 Bft) 100,00 %
17.06.2019 06:14 15,7 C 14,4 C 86 % 1021,9 hPa 0,0 l/m 3,2 km/h (1 Bft) W-NW 292 0,000 mm 0,0 UV-I 83 W/m 13,4 C 15,7 C 4,8 km/h (1 Bft) 95,65 %
17.06.2019 06:13 15,7 C 14,4 C 86 % 1021,9 hPa 0,0 l/m 3,2 km/h (1 Bft) W-NW 292 0,000 mm 0,0 UV-I 79 W/m 13,4 C 15,7 C 4,8 km/h (1 Bft) 100,00 %
17.06.2019 06:12 15,7 C 14,4 C 86 % 1021,9 hPa 0,0 l/m 3,2 km/h (1 Bft) W-NW 292 0,000 mm 0,0 UV-I 77 W/m 13,4 C 15,7 C 4,8 km/h (1 Bft) 100,00 %
17.06.2019 06:11 15,8 C 14,4 C 86 % 1021,9 hPa 0,0 l/m 3,2 km/h (1 Bft) W-NW 292 0,000 mm 0,0 UV-I 77 W/m 13,5 C 15,8 C 4,8 km/h (1 Bft) 100,00 %
17.06.2019 06:10 15,8 C 14,4 C 85 % 1021,9 hPa 0,0 l/m 3,2 km/h (1 Bft) W-NW 292 0,000 mm 0,0 UV-I 76 W/m 13,3 C 15,8 C 4,8 km/h (1 Bft) 91,30 %
17.06.2019 06:09 15,8 C 14,4 C 85 % 1021,9 hPa 0,0 l/m 0,0 km/h (0 Bft) W 270 0,000 mm 0,0 UV-I 74 W/m 13,3 C 15,8 C 1,6 km/h (1 Bft) 91,30 %
17.06.2019 06:08 15,8 C 14,4 C 85 % 1021,9 hPa 0,0 l/m 1,6 km/h (1 Bft) W 270 0,000 mm 0,0 UV-I 74 W/m 13,3 C 15,8 C 3,2 km/h (1 Bft) 100,00 %
17.06.2019 06:07 15,7 C 14,4 C 85 % 1021,9 hPa 0,0 l/m 1,6 km/h (1 Bft) W 270 0,000 mm 0,0 UV-I 76 W/m 13,2 C 15,7 C 3,2 km/h (1 Bft) 100,00 %
17.06.2019 06:06 15,7 C 14,4 C 86 % 1021,9 hPa 0,0 l/m 1,6 km/h (1 Bft) W 270 0,000 mm 0,0 UV-I 77 W/m 13,4 C 15,7 C 3,2 km/h (1 Bft) 100,00 %
17.06.2019 06:05 15,7 C 13,9 C 86 % 1021,9 hPa 0,0 l/m 0,0 km/h (0 Bft) W 270 0,000 mm 0,0 UV-I 79 W/m 13,4 C 15,7 C 1,6 km/h (1 Bft) 100,00 %
17.06.2019 06:04 15,6 C 13,9 C 86 % 1021,9 hPa 0,0 l/m 0,0 km/h (0 Bft) W 270 0,000 mm 0,0 UV-I 77 W/m 13,3 C 15,6 C 1,6 km/h (1 Bft) 95,65 %
17.06.2019 06:03 15,6 C 13,9 C 86 % 1021,9 hPa 0,0 l/m 1,6 km/h (1 Bft) W 270 0,000 mm 0,0 UV-I 76 W/m 13,3 C 15,6 C 3,2 km/h (1 Bft) 100,00 %
17.06.2019 06:02 15,6 C 13,9 C 86 % 1021,9 hPa 0,0 l/m 1,6 km/h (1 Bft) W 270 0,000 mm 0,0 UV-I 74 W/m 13,3 C 15,6 C 3,2 km/h (1 Bft) 95,65 %
17.06.2019 06:01 15,6 C 13,9 C 86 % 1021,9 hPa 0,0 l/m 1,6 km/h (1 Bft) W 270 0,000 mm 0,0 UV-I 74 W/m 13,3 C 15,6 C 3,2 km/h (1 Bft) 100,00 %
17.06.2019 06:00 15,6 C 13,9 C 86 % 1021,9 hPa 0,0 l/m 1,6 km/h (1 Bft) W 270 0,025 mm 0,0 UV-I 74 W/m 13,3 C 15,6 C 3,2 km/h (1 Bft) 100,00 %
17.06.2019 05:59 15,6 C 13,9 C 86 % 1022,0 hPa 0,0 l/m 3,2 km/h (1 Bft) W 270 0,000 mm 0,0 UV-I 72 W/m 13,3 C 15,6 C 3,2 km/h (1 Bft) 100,00 %
17.06.2019 05:58 15,5 C 13,9 C 86 % 1022,0 hPa 0,0 l/m 1,6 km/h (1 Bft) W 270 0,000 mm 0,0 UV-I 72 W/m 13,2 C 15,5 C 3,2 km/h (1 Bft) 100,00 %
17.06.2019 05:57 15,4 C 13,9 C 86 % 1022,0 hPa 0,0 l/m 1,6 km/h (1 Bft) W 270 0,000 mm 0,0 UV-I 70 W/m 13,1 C 15,4 C 1,6 km/h (1 Bft) 100,00 %
17.06.2019 05:56 15,5 C 13,9 C 86 % 1022,0 hPa 0,0 l/m 1,6 km/h (1 Bft) W 270 0,000 mm 0,0 UV-I 67 W/m 13,2 C 15,5 C 3,2 km/h (1 Bft) 100,00 %
17.06.2019 05:55 15,4 C 13,3 C 86 % 1022,0 hPa 0,0 l/m 1,6 km/h (1 Bft) W 270 0,000 mm 0,0 UV-I 67 W/m 13,1 C 15,4 C 1,6 km/h (1 Bft) 95,65 %
17.06.2019 05:54 15,4 C 13,3 C 86 % 1022,0 hPa 0,0 l/m 0,0 km/h (0 Bft) W 270 0,000 mm 0,0 UV-I 65 W/m 13,1 C 15,4 C 1,6 km/h (1 Bft) 100,00 %
17.06.2019 05:53 15,3 C 13,3 C 86 % 1022,0 hPa 0,0 l/m 0,0 km/h (0 Bft) N 0 0,000 mm 0,0 UV-I 65 W/m 13,0 C 15,3 C 0,0 km/h (0 Bft) 100,00 %
17.06.2019 05:52 15,3 C 13,3 C 86 % 1022,0 hPa 0,0 l/m 0,0 km/h (0 Bft) N 0 0,000 mm 0,0 UV-I 62 W/m 13,0 C 15,3 C 0,0 km/h (0 Bft) 100,00 %
17.06.2019 05:51 15,3 C 13,3 C 86 % 1022,0 hPa 0,0 l/m 0,0 km/h (0 Bft) N 0 0,000 mm 0,0 UV-I 58 W/m 13,0 C 15,3 C 0,0 km/h (0 Bft) 100,00 %
17.06.2019 05:50 15,2 C 13,3 C 86 % 1022,0 hPa 0,0 l/m 0,0 km/h (0 Bft) N 0 0,000 mm 0,0 UV-I 58 W/m 12,9 C 15,2 C 0,0 km/h (0 Bft) 100,00 %
17.06.2019 05:49 15,2 C 13,3 C 86 % 1022,0 hPa 0,0 l/m 0,0 km/h (0 Bft) N 0 0,000 mm 0,0 UV-I 54 W/m 12,9 C 15,2 C 0,0 km/h (0 Bft) 100,00 %
17.06.2019 05:48 15,2 C 13,3 C 86 % 1022,0 hPa 0,0 l/m 0,0 km/h (0 Bft) N 0 0,000 mm 0,0 UV-I 53 W/m 12,9 C 15,2 C 0,0 km/h (0 Bft) 95,65 %
17.06.2019 05:47 15,2 C 13,3 C 86 % 1022,0 hPa 0,0 l/m 0,0 km/h (0 Bft) N 0 0,000 mm 0,0 UV-I 49 W/m 12,9 C 15,2 C 0,0 km/h (0 Bft) 100,00 %
17.06.2019 05:46 15,2 C 13,3 C 86 % 1022,0 hPa 0,0 l/m 0,0 km/h (0 Bft) N 0 0,000 mm 0,0 UV-I 47 W/m 12,9 C 15,2 C 0,0 km/h (0 Bft) 100,00 %
17.06.2019 05:45 15,2 C 13,3 C 86 % 1022,0 hPa 0,0 l/m 0,0 km/h (0 Bft) N 0 0,000 mm 0,0 UV-I 46 W/m 12,9 C 15,2 C 0,0 km/h (0 Bft) 100,00 %
17.06.2019 05:44 15,2 C 13,3 C 86 % 1022,0 hPa 0,0 l/m 0,0 km/h (0 Bft) N 0 0,000 mm 0,0 UV-I 44 W/m 12,9 C 15,2 C 0,0 km/h (0 Bft) 100,00 %
17.06.2019 05:43 15,1 C 12,8 C 87 % 1022,0 hPa 0,0 l/m 0,0 km/h (0 Bft) N 0 0,000 mm 0,0 UV-I 42 W/m 13,0 C 15,1 C 0,0 km/h (0 Bft) 100,00 %
17.06.2019 05:42 15,1 C 12,8 C 87 % 1022,0 hPa 0,0 l/m 0,0 km/h (0 Bft) N 0 0,000 mm 0,0 UV-I 42 W/m 13,0 C 15,1 C 0,0 km/h (0 Bft) 100,00 %
17.06.2019 05:41 15,1 C 12,8 C 87 % 1022,0 hPa 0,0 l/m 0,0 km/h (0 Bft) N 0 0,000 mm 0,0 UV-I 40 W/m 13,0 C 15,1 C 0,0 km/h (0 Bft) 95,65 %
17.06.2019 05:40 15,1 C 12,8 C 87 % 1022,0 hPa 0,0 l/m 0,0 km/h (0 Bft) N 0 0,000 mm 0,0 UV-I 39 W/m 13,0 C 15,1 C 0,0 km/h (0 Bft) 95,65 %
17.06.2019 05:39 15,1 C 12,8 C 87 % 1022,0 hPa 0,0 l/m 0,0 km/h (0 Bft) N 0 0,000 mm 0,0 UV-I 37 W/m 13,0 C 15,1 C 0,0 km/h (0 Bft) 100,00 %
17.06.2019 05:38 15,1 C 12,8 C 87 % 1022,1 hPa 0,0 l/m 0,0 km/h (0 Bft) N 0 0,000 mm 0,0 UV-I 35 W/m 13,0 C 15,1 C 0,0 km/h (0 Bft) 100,00 %
17.06.2019 05:37 15,1 C 12,8 C 87 % 1022,0 hPa 0,0 l/m 0,0 km/h (0 Bft) N 0 0,000 mm 0,0 UV-I 35 W/m 13,0 C 15,1 C 0,0 km/h (0 Bft) 100,00 %
17.06.2019 05:36 15,1 C 12,8 C 87 % 1022,0 hPa 0,0 l/m 0,0 km/h (0 Bft) N 0 0,000 mm 0,0 UV-I 33 W/m 13,0 C 15,1 C 0,0 km/h (0 Bft) 100,00 %
17.06.2019 05:35 15,0 C 12,8 C 87 % 1022,0 hPa 0,0 l/m 0,0 km/h (0 Bft) N 0 0,000 mm 0,0 UV-I 33 W/m 12,9 C 15,0 C 0,0 km/h (0 Bft) 100,00 %
17.06.2019 05:34 15,1 C 12,8 C 87 % 1022,0 hPa 0,0 l/m 0,0 km/h (0 Bft) N 0 0,000 mm 0,0 UV-I 32 W/m 13,0 C 15,1 C 0,0 km/h (0 Bft) 91,30 %
17.06.2019 05:33 15,1 C 12,8 C 87 % 1022,0 hPa 0,0 l/m 0,0 km/h (0 Bft) N 0 0,000 mm 0,0 UV-I 28 W/m 13,0 C 15,1 C 0,0 km/h (0 Bft) 95,65 %
17.06.2019 05:32 15,1 C 12,8 C 87 % 1022,0 hPa 0,0 l/m 0,0 km/h (0 Bft) N 0 0,000 mm 0,0 UV-I 28 W/m 13,0 C 15,1 C 0,0 km/h (0 Bft) 95,65 %
17.06.2019 05:31 15,1 C 12,8 C 87 % 1022,0 hPa 0,0 l/m 0,0 km/h (0 Bft) N 0 0,000 mm 0,0 UV-I 28 W/m 13,0 C 15,1 C 0,0 km/h (0 Bft) 95,65 %
17.06.2019 05:30 15,1 C 12,8 C 87 % 1022,0 hPa 0,0 l/m 0,0 km/h (0 Bft) N 0 0,000 mm 0,0 UV-I 26 W/m 13,0 C 15,1 C 0,0 km/h (0 Bft) 100,00 %
17.06.2019 05:29 15,1 C 12,8 C 87 % 1022,1 hPa 0,0 l/m 0,0 km/h (0 Bft) N 0 0,000 mm 0,0 UV-I 26 W/m 13,0 C 15,1 C 0,0 km/h (0 Bft) 95,65 %
17.06.2019 05:28 15,1 C 12,8 C 87 % 1022,1 hPa 0,0 l/m 0,0 km/h (0 Bft) N 0 0,000 mm 0,0 UV-I 23 W/m 13,0 C 15,1 C 0,0 km/h (0 Bft) 100,00 %
17.06.2019 05:27 15,1 C 12,8 C 87 % 1022,1 hPa 0,0 l/m 0,0 km/h (0 Bft) N 0 0,000 mm 0,0 UV-I 23 W/m 13,0 C 15,1 C 0,0 km/h (0 Bft) 91,30 %
17.06.2019 05:26 15,1 C 12,8 C 87 % 1022,1 hPa 0,0 l/m 0,0 km/h (0 Bft) N 0 0,000 mm 0,0 UV-I 23 W/m 13,0 C 15,1 C 0,0 km/h (0 Bft) 100,00 %
17.06.2019 05:25 15,1 C 12,8 C 87 % 1022,1 hPa 0,0 l/m 0,0 km/h (0 Bft) N 0 0,000 mm 0,0 UV-I 21 W/m 13,0 C 15,1 C 0,0 km/h (0 Bft) 95,65 %
17.06.2019 05:24 15,1 C 12,8 C 87 % 1022,1 hPa 0,0 l/m 0,0 km/h (0 Bft) N 0 0,000 mm 0,0 UV-I 21 W/m 13,0 C 15,1 C 0,0 km/h (0 Bft) 95,65 %
17.06.2019 05:23 15,1 C 12,8 C 87 % 1022,1 hPa 0,0 l/m 0,0 km/h (0 Bft) N 0 0,000 mm 0,0 UV-I 19 W/m 13,0 C 15,1 C 0,0 km/h (0 Bft) 95,65 %
17.06.2019 05:22 15,0 C 12,8 C 87 % 1022,1 hPa 0,0 l/m 0,0 km/h (0 Bft) N 0 0,000 mm 0,0 UV-I 18 W/m 12,9 C 15,0 C 0,0 km/h (0 Bft) 100,00 %
17.06.2019 05:21 14,9 C 12,8 C 87 % 1022,1 hPa 0,0 l/m 0,0 km/h (0 Bft) N 0 0,000 mm 0,0 UV-I 18 W/m 12,8 C 14,9 C 0,0 km/h (0 Bft) 95,65 %
17.06.2019 05:20 14,9 C 12,8 C 87 % 1022,1 hPa 0,0 l/m 0,0 km/h (0 Bft) N 0 0,000 mm 0,0 UV-I 16 W/m 12,8 C 14,9 C 0,0 km/h (0 Bft) 95,65 %
17.06.2019 05:19 14,9 C 12,8 C 87 % 1022,1 hPa 0,0 l/m 0,0 km/h (0 Bft) N 0 0,000 mm 0,0 UV-I 16 W/m 12,8 C 14,9 C 0,0 km/h (0 Bft) 95,65 %
17.06.2019 05:18 14,9 C 12,8 C 87 % 1022,2 hPa 0,0 l/m 0,0 km/h (0 Bft) N 0 0,000 mm 0,0 UV-I 14 W/m 12,8 C 14,9 C 0,0 km/h (0 Bft) 100,00 %
17.06.2019 05:17 14,8 C 12,8 C 87 % 1022,2 hPa 0,0 l/m 0,0 km/h (0 Bft) N 0 0,000 mm 0,0 UV-I 14 W/m 12,7 C 14,8 C 0,0 km/h (0 Bft) 100,00 %
17.06.2019 05:16 14,8 C 12,8 C 87 % 1022,2 hPa 0,0 l/m 0,0 km/h (0 Bft) N 0 0,000 mm 0,0 UV-I 12 W/m 12,7 C 14,8 C 0,0 km/h (0 Bft) 100,00 %
17.06.2019 05:15 14,8 C 12,8 C 87 % 1022,2 hPa 0,0 l/m 0,0 km/h (0 Bft) N 0 0,000 mm 0,0 UV-I 11 W/m 12,7 C 14,8 C 0,0 km/h (0 Bft) 100,00 %
17.06.2019 05:14 14,8 C 12,8 C 87 % 1022,2 hPa 0,0 l/m 0,0 km/h (0 Bft) N 0 0,000 mm 0,0 UV-I 9 W/m 12,7 C 14,8 C 0,0 km/h (0 Bft) 100,00 %
17.06.2019 05:13 14,8 C 12,8 C 87 % 1022,2 hPa 0,0 l/m 0,0 km/h (0 Bft) N 0 0,000 mm 0,0 UV-I 7 W/m 12,7 C 14,8 C 0,0 km/h (0 Bft) 95,65 %
17.06.2019 05:12 14,8 C 12,8 C 87 % 1022,2 hPa 0,0 l/m 0,0 km/h (0 Bft) N 0 0,000 mm 0,0 UV-I 7 W/m 12,7 C 14,8 C 0,0 km/h (0 Bft) 100,00 %
17.06.2019 05:11 14,8 C 12,8 C 87 % 1022,2 hPa 0,0 l/m 0,0 km/h (0 Bft) NO 45 0,000 mm 0,0 UV-I 7 W/m 12,7 C 14,8 C 1,6 km/h (1 Bft) 100,00 %
17.06.2019 05:10 14,8 C 12,8 C 87 % 1022,2 hPa 0,0 l/m 0,0 km/h (0 Bft) N 0 0,000 mm 0,0 UV-I 7 W/m 12,7 C 14,8 C 0,0 km/h (0 Bft) 95,65 %
17.06.2019 05:09 14,8 C 12,8 C 87 % 1022,2 hPa 0,0 l/m 0,0 km/h (0 Bft) N 0 0,000 mm 0,0 UV-I 7 W/m 12,7 C 14,8 C 0,0 km/h (0 Bft) 100,00 %
17.06.2019 05:08 14,8 C 12,8 C 87 % 1022,3 hPa 0,0 l/m 0,0 km/h (0 Bft) N 0 0,000 mm 0,0 UV-I 5 W/m 12,7 C 14,8 C 0,0 km/h (0 Bft) 100,00 %
17.06.2019 05:07 14,8 C 12,8 C 87 % 1022,2 hPa 0,0 l/m 0,0 km/h (0 Bft) N 0 0,000 mm 0,0 UV-I 5 W/m 12,7 C 14,8 C 0,0 km/h (0 Bft) 100,00 %
17.06.2019 05:06 14,9 C 12,8 C 87 % 1022,2 hPa 0,0 l/m 0,0 km/h (0 Bft) N 0 0,000 mm 0,0 UV-I 5 W/m 12,8 C 14,9 C 0,0 km/h (0 Bft) 91,30 %
17.06.2019 05:05 14,9 C 12,8 C 87 % 1022,2 hPa 0,0 l/m 0,0 km/h (0 Bft) NO 45 0,000 mm 0,0 UV-I 0 W/m 12,8 C 14,9 C 1,6 km/h (1 Bft) 100,00 %
17.06.2019 05:04 14,9 C 12,8 C 87 % 1022,2 hPa 0,0 l/m 0,0 km/h (0 Bft) NO 45 0,000 mm 0,0 UV-I 0 W/m 12,8 C 14,9 C 1,6 km/h (1 Bft) 95,65 %
17.06.2019 05:03 14,9 C 12,8 C 87 % 1022,2 hPa 0,0 l/m 0,0 km/h (0 Bft) N 0 0,000 mm 0,0 UV-I 0 W/m 12,8 C 14,9 C 0,0 km/h (0 Bft) 95,65 %
17.06.2019 05:02 14,9 C 12,8 C 87 % 1022,1 hPa 0,0 l/m 0,0 km/h (0 Bft) N 0 0,000 mm 0,0 UV-I 0 W/m 12,8 C 14,9 C 0,0 km/h (0 Bft) 100,00 %
17.06.2019 05:01 14,9 C 12,8 C 87 % 1022,2 hPa 0,0 l/m 0,0 km/h (0 Bft) N 0 0,000 mm 0,0 UV-I 0 W/m 12,8 C 14,9 C 0,0 km/h (0 Bft) 95,65 %
17.06.2019 05:00 14,9 C 12,8 C 87 % 1022,3 hPa 0,0 l/m 0,0 km/h (0 Bft) N 0 0,000 mm 0,0 UV-I 0 W/m 12,8 C 14,9 C 0,0 km/h (0 Bft) 100,00 %
17.06.2019 04:59 14,9 C 12,8 C 87 % 1022,2 hPa 0,0 l/m 0,0 km/h (0 Bft) N 0 0,000 mm 0,0 UV-I 0 W/m 12,8 C 14,9 C 0,0 km/h (0 Bft) 91,30 %
17.06.2019 04:58 14,9 C 12,8 C 87 % 1022,2 hPa 0,0 l/m 0,0 km/h (0 Bft) NO 45 0,000 mm 0,0 UV-I 0 W/m 12,8 C 14,9 C 1,6 km/h (1 Bft) 100,00 %
17.06.2019 04:57 14,9 C 12,8 C 87 % 1022,3 hPa 0,0 l/m 0,0 km/h (0 Bft) NO 45 0,000 mm 0,0 UV-I 0 W/m 12,8 C 14,9 C 1,6 km/h (1 Bft) 95,65 %
17.06.2019 04:56 14,9 C 12,8 C 87 % 1022,2 hPa 0,0 l/m 0,0 km/h (0 Bft) NO 45 0,000 mm 0,0 UV-I 0 W/m 12,8 C 14,9 C 1,6 km/h (1 Bft) 100,00 %
17.06.2019 04:55 15,0 C 12,8 C 87 % 1022,2 hPa 0,0 l/m 0,0 km/h (0 Bft) N 0 0,000 mm 0,0 UV-I 0 W/m 12,9 C 15,0 C 0,0 km/h (0 Bft) 95,65 %
17.06.2019 04:54 14,9 C 12,8 C 87 % 1022,2 hPa 0,0 l/m 0,0 km/h (0 Bft) N 0 0,000 mm 0,0 UV-I 0 W/m 12,8 C 14,9 C 0,0 km/h (0 Bft) 91,30 %
17.06.2019 04:53 14,9 C 12,8 C 87 % 1022,2 hPa 0,0 l/m 0,0 km/h (0 Bft) NO 45 0,000 mm 0,0 UV-I 0 W/m 12,8 C 14,9 C 1,6 km/h (1 Bft) 100,00 %
17.06.2019 04:52 14,9 C 12,8 C 87 % 1022,2 hPa 0,0 l/m 1,6 km/h (1 Bft) NO 45 0,000 mm 0,0 UV-I 0 W/m 12,8 C 14,9 C 3,2 km/h (1 Bft) 91,30 %
17.06.2019 04:51 14,9 C 12,8 C 87 % 1022,2 hPa 0,0 l/m 0,0 km/h (0 Bft) NO 45 0,000 mm 0,0 UV-I 0 W/m 12,8 C 14,9 C 1,6 km/h (1 Bft) 100,00 %
17.06.2019 04:50 14,9 C 12,8 C 87 % 1022,2 hPa 0,0 l/m 0,0 km/h (0 Bft) N 0 0,000 mm 0,0 UV-I 0 W/m 12,8 C 14,9 C 0,0 km/h (0 Bft) 95,65 %
17.06.2019 04:49 14,9 C 12,8 C 87 % 1022,2 hPa 0,0 l/m 0,0 km/h (0 Bft) N 0 0,000 mm 0,0 UV-I 0 W/m 12,8 C 14,9 C 0,0 km/h (0 Bft) 100,00 %
17.06.2019 04:48 14,9 C 12,2 C 88 % 1022,2 hPa 0,0 l/m 0,0 km/h (0 Bft) NO 45 0,000 mm 0,0 UV-I 0 W/m 12,9 C 14,9 C 1,6 km/h (1 Bft) 95,65 %
17.06.2019 04:47 14,9 C 12,2 C 88 % 1022,2 hPa 0,0 l/m 0,0 km/h (0 Bft) NO 45 0,000 mm 0,0 UV-I 0 W/m 12,9 C 14,9 C 1,6 km/h (1 Bft) 100,00 %
17.06.2019 04:46 14,9 C 12,8 C 88 % 1022,1 hPa 0,0 l/m 0,0 km/h (0 Bft) NO 45 0,000 mm 0,0 UV-I 0 W/m 12,9 C 14,9 C 1,6 km/h (1 Bft) 95,65 %
17.06.2019 04:45 14,9 C 12,8 C 88 % 1022,2 hPa 0,0 l/m 0,0 km/h (0 Bft) NO 45 0,000 mm 0,0 UV-I 0 W/m 12,9 C 14,9 C 1,6 km/h (1 Bft) 91,30 %
17.06.2019 04:44 14,9 C 12,8 C 88 % 1022,2 hPa 0,0 l/m 0,0 km/h (0 Bft) NO 45 0,000 mm 0,0 UV-I 0 W/m 12,9 C 14,9 C 1,6 km/h (1 Bft) 95,65 %
17.06.2019 04:43 14,9 C 12,8 C 88 % 1022,2 hPa 0,0 l/m 0,0 km/h (0 Bft) N 0 0,000 mm 0,0 UV-I 0 W/m 12,9 C 14,9 C 0,0 km/h (0 Bft) 95,65 %
17.06.2019 04:42 14,8 C 12,8 C 88 % 1022,2 hPa 0,0 l/m 0,0 km/h (0 Bft) N 0 0,000 mm 0,0 UV-I 0 W/m 12,8 C 14,8 C 0,0 km/h (0 Bft) 100,00 %
17.06.2019 04:41 14,8 C 12,8 C 88 % 1022,1 hPa 0,0 l/m 1,6 km/h (1 Bft) NO 45 0,000 mm 0,0 UV-I 0 W/m 12,8 C 14,8 C 1,6 km/h (1 Bft) 95,65 %
17.06.2019 04:40 14,8 C 12,8 C 88 % 1022,1 hPa 0,0 l/m 1,6 km/h (1 Bft) NO 45 0,000 mm 0,0 UV-I 0 W/m 12,8 C 14,8 C 1,6 km/h (1 Bft) 95,65 %
17.06.2019 04:39 14,8 C 12,8 C 88 % 1022,2 hPa 0,0 l/m 0,0 km/h (0 Bft) NO 45 0,000 mm 0,0 UV-I 0 W/m 12,8 C 14,8 C 1,6 km/h (1 Bft) 95,65 %
17.06.2019 04:38 14,8 C 12,8 C 88 % 1022,2 hPa 0,0 l/m 0,0 km/h (0 Bft) NO 45 0,000 mm 0,0 UV-I 0 W/m 12,8 C 14,8 C 1,6 km/h (1 Bft) 95,65 %
17.06.2019 04:37 14,8 C 12,8 C 88 % 1022,2 hPa 0,0 l/m 1,6 km/h (1 Bft) NO 45 0,000 mm 0,0 UV-I 0 W/m 12,8 C 14,8 C 3,2 km/h (1 Bft) 91,30 %
17.06.2019 04:36 14,7 C 12,8 C 88 % 1022,2 hPa 0,0 l/m 1,6 km/h (1 Bft) NO 45 0,000 mm 0,0 UV-I 0 W/m 12,7 C 14,7 C 3,2 km/h (1 Bft) 91,30 %
17.06.2019 04:35 14,7 C 12,8 C 88 % 1022,1 hPa 0,0 l/m 0,0 km/h (0 Bft) NO 45 0,000 mm 0,0 UV-I 0 W/m 12,7 C 14,7 C 3,2 km/h (1 Bft) 100,00 %
17.06.2019 04:34 14,7 C 12,8 C 88 % 1022,2 hPa 0,0 l/m 0,0 km/h (0 Bft) NO 45 0,000 mm 0,0 UV-I 0 W/m 12,7 C 14,7 C 1,6 km/h (1 Bft) 91,30 %
17.06.2019 04:33 14,7 C 12,8 C 88 % 1022,2 hPa 0,0 l/m 0,0 km/h (0 Bft) NO 45 0,000 mm 0,0 UV-I 0 W/m 12,7 C 14,7 C 1,6 km/h (1 Bft) 95,65 %
17.06.2019 04:32 14,7 C 12,8 C 88 % 1022,2 hPa 0,0 l/m 1,6 km/h (1 Bft) NO 45 0,000 mm 0,0 UV-I 0 W/m 12,7 C 14,7 C 3,2 km/h (1 Bft) 91,30 %
17.06.2019 04:31 14,7 C 12,8 C 87 % 1022,2 hPa 0,0 l/m 1,6 km/h (1 Bft) NO 45 0,000 mm 0,0 UV-I 0 W/m 12,6 C 14,7 C 3,2 km/h (1 Bft) 95,65 %
17.06.2019 04:30 14,6 C 12,8 C 87 % 1022,2 hPa 0,0 l/m 1,6 km/h (1 Bft) NO 45 0,000 mm 0,0 UV-I 0 W/m 12,5 C 14,6 C 3,2 km/h (1 Bft) 95,65 %
17.06.2019 04:29 14,6 C 12,8 C 87 % 1022,2 hPa 0,0 l/m 0,0 km/h (0 Bft) NO 45 0,000 mm 0,0 UV-I 0 W/m 12,5 C 14,6 C 3,2 km/h (1 Bft) 95,65 %
17.06.2019 04:28 14,6 C 12,8 C 87 % 1022,1 hPa 0,0 l/m 3,2 km/h (1 Bft) NO 45 0,000 mm 0,0 UV-I 0 W/m 12,5 C 14,6 C 4,8 km/h (1 Bft) 100,00 %
17.06.2019 04:27 14,6 C 12,8 C 87 % 1022,2 hPa 0,0 l/m 1,6 km/h (1 Bft) NO 45 0,000 mm 0,0 UV-I 0 W/m 12,5 C 14,6 C 3,2 km/h (1 Bft) 95,65 %
17.06.2019 04:26 14,7 C 12,8 C 87 % 1022,2 hPa 0,0 l/m 1,6 km/h (1 Bft) NO 45 0,000 mm 0,0 UV-I 0 W/m 12,6 C 14,7 C 1,6 km/h (1 Bft) 100,00 %
17.06.2019 04:25 14,7 C 12,8 C 87 % 1022,2 hPa 0,0 l/m 1,6 km/h (1 Bft) NO 45 0,000 mm 0,0 UV-I 0 W/m 12,6 C 14,7 C 3,2 km/h (1 Bft) 100,00 %
17.06.2019 04:24 14,7 C 12,8 C 86 % 1022,1 hPa 0,0 l/m 0,0 km/h (0 Bft) NO 45 0,000 mm 0,0 UV-I 0 W/m 12,4 C 14,7 C 1,6 km/h (1 Bft) 100,00 %
17.06.2019 04:23 14,7 C 12,8 C 86 % 1022,2 hPa 0,0 l/m 0,0 km/h (0 Bft) NO 45 0,000 mm 0,0 UV-I 0 W/m 12,4 C 14,7 C 1,6 km/h (1 Bft) 95,65 %
17.06.2019 04:22 14,7 C 12,8 C 86 % 1022,2 hPa 0,0 l/m 0,0 km/h (0 Bft) N 0 0,000 mm 0,0 UV-I 0 W/m 12,4 C 14,7 C 0,0 km/h (0 Bft) 100,00 %
17.06.2019 04:21 14,7 C 12,8 C 86 % 1022,2 hPa 0,0 l/m 0,0 km/h (0 Bft) N 0 0,000 mm 0,0 UV-I 0 W/m 12,4 C 14,7 C 0,0 km/h (0 Bft) 100,00 %
17.06.2019 04:20 14,7 C 12,8 C 86 % 1022,2 hPa 0,0 l/m 0,0 km/h (0 Bft) NO 45 0,000 mm 0,0 UV-I 0 W/m 12,4 C 14,7 C 1,6 km/h (1 Bft) 100,00 %
17.06.2019 04:19 14,7 C 12,8 C 86 % 1022,1 hPa 0,0 l/m 0,0 km/h (0 Bft) N 0 0,000 mm 0,0 UV-I 0 W/m 12,4 C 14,7 C 0,0 km/h (0 Bft) 100,00 %
17.06.2019 04:18 14,8 C 12,8 C 86 % 1022,1 hPa 0,0 l/m 0,0 km/h (0 Bft) NO 45 0,000 mm 0,0 UV-I 0 W/m 12,5 C 14,8 C 1,6 km/h (1 Bft) 100,00 %
17.06.2019 04:17 14,8 C 12,8 C 86 % 1022,1 hPa 0,0 l/m 1,6 km/h (1 Bft) NO 45 0,000 mm 0,0 UV-I 0 W/m 12,5 C 14,8 C 1,6 km/h (1 Bft) 100,00 %
17.06.2019 04:16 14,8 C 12,8 C 86 % 1022,1 hPa 0,0 l/m 1,6 km/h (1 Bft) NO 45 0,000 mm 0,0 UV-I 0 W/m 12,5 C 14,8 C 3,2 km/h (1 Bft) 95,65 %
17.06.2019 04:15 14,8 C 12,8 C 86 % 1022,1 hPa 0,0 l/m 1,6 km/h (1 Bft) NO 45 0,000 mm 0,0 UV-I 0 W/m 12,5 C 14,8 C 3,2 km/h (1 Bft) 100,00 %
17.06.2019 04:14 14,9 C 12,8 C 86 % 1022,1 hPa 0,0 l/m 1,6 km/h (1 Bft) NO 45 0,000 mm 0,0 UV-I 0 W/m 12,6 C 14,9 C 1,6 km/h (1 Bft) 100,00 %
17.06.2019 04:13 14,9 C 12,8 C 86 % 1022,1 hPa 0,0 l/m 0,0 km/h (0 Bft) NO 45 0,000 mm 0,0 UV-I 0 W/m 12,6 C 14,9 C 1,6 km/h (1 Bft) 100,00 %
17.06.2019 04:12 14,9 C 12,8 C 86 % 1022,1 hPa 0,0 l/m 0,0 km/h (0 Bft) NO 45 0,000 mm 0,0 UV-I 0 W/m 12,6 C 14,9 C 1,6 km/h (1 Bft) 100,00 %
17.06.2019 04:11 15,0 C 12,8 C 86 % 1022,0 hPa 0,0 l/m 0,0 km/h (0 Bft) NO 45 0,000 mm 0,0 UV-I 0 W/m 12,7 C 15,0 C 1,6 km/h (1 Bft) 100,00 %
17.06.2019 04:10 15,0 C 12,8 C 86 % 1022,1 hPa 0,0 l/m 0,0 km/h (0 Bft) NO 45 0,000 mm 0,0 UV-I 0 W/m 12,7 C 15,0 C 1,6 km/h (1 Bft) 82,61 %
17.06.2019 04:09 15,1 C 12,8 C 86 % 1022,0 hPa 0,0 l/m 0,0 km/h (0 Bft) NO 45 0,000 mm 0,0 UV-I 0 W/m 12,8 C 15,1 C 1,6 km/h (1 Bft) 95,65 %
17.06.2019 04:08 15,1 C 12,8 C 86 % 1022,0 hPa 0,0 l/m 1,6 km/h (1 Bft) NO 45 0,000 mm 0,0 UV-I 0 W/m 12,8 C 15,1 C 4,8 km/h (1 Bft) 100,00 %
17.06.2019 04:07 15,1 C 12,8 C 86 % 1021,9 hPa 0,0 l/m 3,2 km/h (1 Bft) NO 45 0,000 mm 0,0 UV-I 0 W/m 12,8 C 15,1 C 4,8 km/h (1 Bft) 91,30 %
17.06.2019 04:06 15,1 C 12,8 C 86 % 1022,0 hPa 0,0 l/m 3,2 km/h (1 Bft) NO 45 0,000 mm 0,0 UV-I 0 W/m 12,8 C 15,1 C 4,8 km/h (1 Bft) 100,00 %
17.06.2019 04:05 15,1 C 12,8 C 86 % 1021,9 hPa 0,0 l/m 1,6 km/h (1 Bft) NO 45 0,000 mm 0,0 UV-I 0 W/m 12,8 C 15,1 C 4,8 km/h (1 Bft) 100,00 %
17.06.2019 04:04 15,1 C 13,3 C 86 % 1021,9 hPa 0,0 l/m 3,2 km/h (1 Bft) NO 45 0,000 mm 0,0 UV-I 0 W/m 12,8 C 15,1 C 4,8 km/h (1 Bft) 100,00 %
17.06.2019 04:03 15,1 C 13,3 C 86 % 1022,0 hPa 0,0 l/m 3,2 km/h (1 Bft) NO 45 0,000 mm 0,0 UV-I 0 W/m 12,8 C 15,1 C 4,8 km/h (1 Bft) 100,00 %
17.06.2019 04:02 15,1 C 13,3 C 85 % 1021,9 hPa 0,0 l/m 4,8 km/h (1 Bft) NO 45 0,000 mm 0,0 UV-I 0 W/m 12,6 C 15,1 C 6,4 km/h (2 Bft) 95,65 %
17.06.2019 04:01 15,1 C 13,3 C 85 % 1022,1 hPa 0,0 l/m 0,0 km/h (0 Bft) NO 45 0,000 mm 0,0 UV-I 0 W/m 12,6 C 15,1 C 3,2 km/h (1 Bft) 100,00 %
17.06.2019 04:00 15,2 C 13,3 C 85 % 1022,0 hPa 0,0 l/m 0,0 km/h (0 Bft) NO 45 0,025 mm 0,0 UV-I 0 W/m 12,7 C 15,2 C 1,6 km/h (1 Bft) 95,65 %
17.06.2019 03:59 15,2 C 13,3 C 85 % 1022,0 hPa 0,0 l/m 0,0 km/h (0 Bft) NO 45 0,000 mm 0,0 UV-I 0 W/m 12,7 C 15,2 C 1,6 km/h (1 Bft) 95,65 %
17.06.2019 03:58 15,2 C 13,3 C 85 % 1022,1 hPa 0,0 l/m 1,6 km/h (1 Bft) NO 45 0,000 mm 0,0 UV-I 0 W/m 12,7 C 15,2 C 3,2 km/h (1 Bft) 100,00 %
17.06.2019 03:57 15,2 C 13,3 C 85 % 1022,1 hPa 0,0 l/m 0,0 km/h (0 Bft) NO 45 0,000 mm 0,0 UV-I 0 W/m 12,7 C 15,2 C 3,2 km/h (1 Bft) 95,65 %
17.06.2019 03:56 15,2 C 13,3 C 85 % 1022,1 hPa 0,0 l/m 0,0 km/h (0 Bft) NO 45 0,000 mm 0,0 UV-I 0 W/m 12,7 C 15,2 C 1,6 km/h (1 Bft) 100,00 %
17.06.2019 03:55 15,3 C 13,3 C 85 % 1022,0 hPa 0,0 l/m 0,0 km/h (0 Bft) N 0 0,000 mm 0,0 UV-I 0 W/m 12,8 C 15,3 C 0,0 km/h (0 Bft) 95,65 %
17.06.2019 03:54 15,3 C 13,3 C 85 % 1022,0 hPa 0,0 l/m 0,0 km/h (0 Bft) NO 45 0,000 mm 0,0 UV-I 0 W/m 12,8 C 15,3 C 1,6 km/h (1 Bft) 91,30 %
17.06.2019 03:53 15,3 C 13,3 C 85 % 1022,1 hPa 0,0 l/m 0,0 km/h (0 Bft) NO 45 0,000 mm 0,0 UV-I 0 W/m 12,8 C 15,3 C 1,6 km/h (1 Bft) 100,00 %
17.06.2019 03:52 15,4 C 13,3 C 85 % 1022,1 hPa 0,0 l/m 0,0 km/h (0 Bft) N 0 0,000 mm 0,0 UV-I 0 W/m 12,9 C 15,4 C 0,0 km/h (0 Bft) 95,65 %
17.06.2019 03:51 15,4 C 13,3 C 85 % 1022,1 hPa 0,0 l/m 0,0 km/h (0 Bft) NO 45 0,000 mm 0,0 UV-I 0 W/m 12,9 C 15,4 C 1,6 km/h (1 Bft) 100,00 %
17.06.2019 03:50 15,4 C 13,3 C 85 % 1022,0 hPa 0,0 l/m 0,0 km/h (0 Bft) NO 45 0,000 mm 0,0 UV-I 0 W/m 12,9 C 15,4 C 1,6 km/h (1 Bft) 100,00 %
17.06.2019 03:49 15,4 C 13,3 C 85 % 1022,1 hPa 0,0 l/m 0,0 km/h (0 Bft) N 0 0,000 mm 0,0 UV-I 0 W/m 12,9 C 15,4 C 0,0 km/h (0 Bft) 100,00 %
17.06.2019 03:48 15,4 C 13,3 C 85 % 1022,1 hPa 0,0 l/m 0,0 km/h (0 Bft) NO 45 0,000 mm 0,0 UV-I 0 W/m 12,9 C 15,4 C 1,6 km/h (1 Bft) 95,65 %
17.06.2019 03:47 15,5 C 13,3 C 85 % 1022,1 hPa 0,0 l/m 0,0 km/h (0 Bft) NO 45 0,000 mm 0,0 UV-I 0 W/m 13,0 C 15,5 C 1,6 km/h (1 Bft) 91,30 %
17.06.2019 03:46 15,5 C 13,3 C 85 % 1022,1 hPa 0,0 l/m 0,0 km/h (0 Bft) NO 45 0,000 mm 0,0 UV-I 0 W/m 13,0 C 15,5 C 1,6 km/h (1 Bft) 100,00 %
17.06.2019 03:45 15,5 C 13,3 C 85 % 1022,2 hPa 0,0 l/m 0,0 km/h (0 Bft) NO 45 0,000 mm 0,0 UV-I 0 W/m 13,0 C 15,5 C 1,6 km/h (1 Bft) 100,00 %
17.06.2019 03:44 15,5 C 13,3 C 85 % 1022,1 hPa 0,0 l/m 0,0 km/h (0 Bft) NO 45 0,000 mm 0,0 UV-I 0 W/m 13,0 C 15,5 C 1,6 km/h (1 Bft) 95,65 %
17.06.2019 03:43 15,5 C 13,3 C 85 % 1022,1 hPa 0,0 l/m 0,0 km/h (0 Bft) N 0 0,000 mm 0,0 UV-I 0 W/m 13,0 C 15,5 C 0,0 km/h (0 Bft) 100,00 %
17.06.2019 03:42 15,5 C 13,3 C 85 % 1022,1 hPa 0,0 l/m 0,0 km/h (0 Bft) N 0 0,000 mm 0,0 UV-I 0 W/m 13,0 C 15,5 C 0,0 km/h (0 Bft) 91,30 %
17.06.2019 03:41 15,5 C 13,3 C 85 % 1022,1 hPa 0,0 l/m 1,6 km/h (1 Bft) NO 45 0,000 mm 0,0 UV-I 0 W/m 13,0 C 15,5 C 3,2 km/h (1 Bft) 95,65 %
17.06.2019 03:40 15,5 C 13,3 C 85 % 1022,1 hPa 0,0 l/m 1,6 km/h (1 Bft) NO 45 0,000 mm 0,0 UV-I 0 W/m 13,0 C 15,5 C 3,2 km/h (1 Bft) 95,65 %
17.06.2019 03:39 15,4 C 13,3 C 85 % 1022,0 hPa 0,0 l/m 3,2 km/h (1 Bft) NO 45 0,000 mm 0,0 UV-I 0 W/m 12,9 C 15,4 C 4,8 km/h (1 Bft) 100,00 %
17.06.2019 03:38 15,4 C 13,3 C 85 % 1022,0 hPa 0,0 l/m 3,2 km/h (1 Bft) O-NO 67 0,000 mm 0,0 UV-I 0 W/m 12,9 C 15,4 C 6,4 km/h (2 Bft) 95,65 %
17.06.2019 03:37 15,4 C 13,3 C 85 % 1022,0 hPa 0,0 l/m 1,6 km/h (1 Bft) N-NO 22 0,000 mm 0,0 UV-I 0 W/m 12,9 C 15,4 C 3,2 km/h (1 Bft) 100,00 %
17.06.2019 03:36 15,4 C 13,3 C 85 % 1022,0 hPa 0,0 l/m 1,6 km/h (1 Bft) N-NO 22 0,000 mm 0,0 UV-I 0 W/m 12,9 C 15,4 C 3,2 km/h (1 Bft) 95,65 %
17.06.2019 03:35 15,4 C 13,3 C 85 % 1022,0 hPa 0,0 l/m 1,6 km/h (1 Bft) N-NO 22 0,000 mm 0,0 UV-I 0 W/m 12,9 C 15,4 C 4,8 km/h (1 Bft) 100,00 %
17.06.2019 03:34 15,4 C 13,3 C 85 % 1022,0 hPa 0,0 l/m 1,6 km/h (1 Bft) N-NO 22 0,000 mm 0,0 UV-I 0 W/m 12,9 C 15,4 C 3,2 km/h (1 Bft) 91,30 %
17.06.2019 03:33 15,4 C 13,3 C 85 % 1022,1 hPa 0,0 l/m 1,6 km/h (1 Bft) N-NO 22 0,000 mm 0,0 UV-I 0 W/m 12,9 C 15,4 C 6,4 km/h (2 Bft) 100,00 %
17.06.2019 03:32 15,4 C 13,3 C 85 % 1022,1 hPa 0,0 l/m 3,2 km/h (1 Bft) N-NO 22 0,000 mm 0,0 UV-I 0 W/m 12,9 C 15,4 C 4,8 km/h (1 Bft) 95,65 %
17.06.2019 03:31 15,4 C 13,3 C 85 % 1022,2 hPa 0,0 l/m 3,2 km/h (1 Bft) N-NO 22 0,000 mm 0,0 UV-I 0 W/m 12,9 C 15,4 C 6,4 km/h (2 Bft) 100,00 %
17.06.2019 03:30 15,4 C 13,3 C 85 % 1022,2 hPa 0,0 l/m 1,6 km/h (1 Bft) N-NO 22 0,000 mm 0,0 UV-I 0 W/m 12,9 C 15,4 C 3,2 km/h (1 Bft) 95,65 %
17.06.2019 03:29 15,3 C 13,3 C 85 % 1022,2 hPa 0,0 l/m 1,6 km/h (1 Bft) N-NO 22 0,000 mm 0,0 UV-I 0 W/m 12,8 C 15,3 C 3,2 km/h (1 Bft) 100,00 %
17.06.2019 03:28 15,2 C 13,3 C 85 % 1022,2 hPa 0,0 l/m 1,6 km/h (1 Bft) N-NO 22 0,000 mm 0,0 UV-I 0 W/m 12,7 C 15,2 C 3,2 km/h (1 Bft) 100,00 %
17.06.2019 03:27 15,2 C 13,3 C 85 % 1022,2 hPa 0,0 l/m 3,2 km/h (1 Bft) N-NO 22 0,000 mm 0,0 UV-I 0 W/m 12,7 C 15,2 C 6,4 km/h (2 Bft) 95,65 %
17.06.2019 03:26 15,2 C 13,3 C 85 % 1022,2 hPa 0,0 l/m 4,8 km/h (1 Bft) N 360 0,000 mm 0,0 UV-I 0 W/m 12,7 C 15,2 C 8,0 km/h (2 Bft) 95,65 %
17.06.2019 03:25 15,1 C 13,3 C 85 % 1022,2 hPa 0,0 l/m 4,8 km/h (1 Bft) N 360 0,000 mm 0,0 UV-I 0 W/m 12,6 C 15,1 C 9,7 km/h (2 Bft) 100,00 %
17.06.2019 03:24 15,1 C 13,3 C 84 % 1022,2 hPa 0,0 l/m 6,4 km/h (2 Bft) N 360 0,000 mm 0,0 UV-I 0 W/m 12,4 C 15,1 C 9,7 km/h (2 Bft) 100,00 %
17.06.2019 03:23 15,1 C 13,3 C 84 % 1022,2 hPa 0,0 l/m 4,8 km/h (1 Bft) N 360 0,000 mm 0,0 UV-I 0 W/m 12,4 C 15,1 C 8,0 km/h (2 Bft) 100,00 %
17.06.2019 03:22 15,1 C 13,3 C 85 % 1022,3 hPa 0,0 l/m 8,0 km/h (2 Bft) W 270 0,000 mm 0,0 UV-I 0 W/m 12,6 C 14,2 C 11,3 km/h (2 Bft) 100,00 %
17.06.2019 03:21 15,1 C 13,3 C 84 % 1022,2 hPa 0,0 l/m 6,4 km/h (2 Bft) W 270 0,000 mm 0,0 UV-I 0 W/m 12,4 C 15,1 C 9,7 km/h (2 Bft) 100,00 %
17.06.2019 03:20 15,0 C 12,8 C 85 % 1022,2 hPa 0,0 l/m 6,4 km/h (2 Bft) W 270 0,000 mm 0,0 UV-I 0 W/m 12,5 C 15,0 C 11,3 km/h (2 Bft) 95,65 %
17.06.2019 03:19 15,0 C 12,8 C 85 % 1022,2 hPa 0,0 l/m 6,4 km/h (2 Bft) W 270 0,000 mm 0,0 UV-I 0 W/m 12,5 C 15,0 C 11,3 km/h (2 Bft) 95,65 %
17.06.2019 03:18 14,9 C 12,8 C 85 % 1022,3 hPa 0,0 l/m 4,8 km/h (1 Bft) W 270 0,000 mm 0,0 UV-I 0 W/m 12,4 C 14,9 C 9,7 km/h (2 Bft) 100,00 %
17.06.2019 03:17 14,9 C 12,8 C 85 % 1022,2 hPa 0,0 l/m 4,8 km/h (1 Bft) W 270 0,000 mm 0,0 UV-I 0 W/m 12,4 C 14,9 C 9,7 km/h (2 Bft) 95,65 %
17.06.2019 03:16 14,9 C 12,8 C 85 % 1022,3 hPa 0,0 l/m 4,8 km/h (1 Bft) W 270 0,000 mm 0,0 UV-I 0 W/m 12,4 C 14,9 C 9,7 km/h (2 Bft) 100,00 %
17.06.2019 03:15 14,9 C 12,8 C 85 % 1022,2 hPa 0,0 l/m 3,2 km/h (1 Bft) W 270 0,000 mm 0,0 UV-I 0 W/m 12,4 C 14,9 C 9,7 km/h (2 Bft) 100,00 %
17.06.2019 03:14 14,8 C 12,8 C 85 % 1022,2 hPa 0,0 l/m 3,2 km/h (1 Bft) W 270 0,000 mm 0,0 UV-I 0 W/m 12,3 C 14,8 C 4,8 km/h (1 Bft) 95,65 %
17.06.2019 03:13 14,8 C 12,8 C 85 % 1022,1 hPa 0,0 l/m 3,2 km/h (1 Bft) W 270 0,000 mm 0,0 UV-I 0 W/m 12,3 C 14,8 C 6,4 km/h (2 Bft) 91,30 %
17.06.2019 03:12 14,8 C 12,8 C 85 % 1022,1 hPa 0,0 l/m 1,6 km/h (1 Bft) W 270 0,000 mm 0,0 UV-I 0 W/m 12,3 C 14,8 C 9,7 km/h (2 Bft) 100,00 %
17.06.2019 03:11 14,8 C 12,8 C 85 % 1022,2 hPa 0,0 l/m 0,0 km/h (0 Bft) N 0 0,000 mm 0,0 UV-I 0 W/m 12,3 C 14,8 C 0,0 km/h (0 Bft) 100,00 %
17.06.2019 03:10 14,8 C 12,8 C 85 % 1022,1 hPa 0,0 l/m 0,0 km/h (0 Bft) N 0 0,000 mm 0,0 UV-I 0 W/m 12,3 C 14,8 C 0,0 km/h (0 Bft) 100,00 %
17.06.2019 03:09 14,8 C 12,8 C 85 % 1022,1 hPa 0,0 l/m 0,0 km/h (0 Bft) N 0 0,000 mm 0,0 UV-I 0 W/m 12,3 C 14,8 C 0,0 km/h (0 Bft) 95,65 %
17.06.2019 03:08 14,8 C 12,8 C 85 % 1022,2 hPa 0,0 l/m 0,0 km/h (0 Bft) W 270 0,000 mm 0,0 UV-I 0 W/m 12,3 C 14,8 C 1,6 km/h (1 Bft) 100,00 %
17.06.2019 03:07 14,7 C 12,8 C 85 % 1022,1 hPa 0,0 l/m 0,0 km/h (0 Bft) N 0 0,000 mm 0,0 UV-I 0 W/m 12,2 C 14,7 C 0,0 km/h (0 Bft) 100,00 %
17.06.2019 03:06 14,7 C 12,8 C 85 % 1022,2 hPa 0,0 l/m 0,0 km/h (0 Bft) N 0 0,000 mm 0,0 UV-I 0 W/m 12,2 C 14,7 C 0,0 km/h (0 Bft) 95,65 %
17.06.2019 03:05 14,7 C 12,8 C 85 % 1022,2 hPa 0,0 l/m 0,0 km/h (0 Bft) N 0 0,000 mm 0,0 UV-I 0 W/m 12,2 C 14,7 C 0,0 km/h (0 Bft) 95,65 %
17.06.2019 03:04 14,7 C 12,8 C 85 % 1022,2 hPa 0,0 l/m 0,0 km/h (0 Bft) N 0 0,000 mm 0,0 UV-I 0 W/m 12,2 C 14,7 C 0,0 km/h (0 Bft) 91,30 %
17.06.2019 03:03 14,7 C 12,8 C 85 % 1022,2 hPa 0,0 l/m 0,0 km/h (0 Bft) N 0 0,000 mm 0,0 UV-I 0 W/m 12,2 C 14,7 C 0,0 km/h (0 Bft) 100,00 %
17.06.2019 03:02 14,7 C 12,8 C 85 % 1022,2 hPa 0,0 l/m 0,0 km/h (0 Bft) W 270 0,000 mm 0,0 UV-I 0 W/m 12,2 C 14,7 C 1,6 km/h (1 Bft) 95,65 %
17.06.2019 03:01 14,7 C 12,8 C 85 % 1022,2 hPa 0,0 l/m 0,0 km/h (0 Bft) N 0 0,000 mm 0,0 UV-I 0 W/m 12,2 C 14,7 C 0,0 km/h (0 Bft) 95,65 %
17.06.2019 03:00 14,7 C 12,8 C 85 % 1022,2 hPa 0,0 l/m 0,0 km/h (0 Bft) N 0 0,025 mm 0,0 UV-I 0 W/m 12,2 C 14,7 C 0,0 km/h (0 Bft) 100,00 %
17.06.2019 02:59 14,7 C 12,8 C 85 % 1022,2 hPa 0,0 l/m 0,0 km/h (0 Bft) N 0 0,000 mm 0,0 UV-I 0 W/m 12,2 C 14,7 C 0,0 km/h (0 Bft) 91,30 %
17.06.2019 02:58 14,8 C 12,8 C 85 % 1022,1 hPa 0,0 l/m 0,0 km/h (0 Bft) N 0 0,000 mm 0,0 UV-I 0 W/m 12,3 C 14,8 C 0,0 km/h (0 Bft) 100,00 %
17.06.2019 02:57 14,8 C 12,8 C 85 % 1022,1 hPa 0,0 l/m 0,0 km/h (0 Bft) N 0 0,000 mm 0,0 UV-I 0 W/m 12,3 C 14,8 C 0,0 km/h (0 Bft) 95,65 %
17.06.2019 02:56 14,8 C 12,8 C 85 % 1022,1 hPa 0,0 l/m 0,0 km/h (0 Bft) N 0 0,000 mm 0,0 UV-I 0 W/m 12,3 C 14,8 C 0,0 km/h (0 Bft) 100,00 %
17.06.2019 02:55 14,8 C 12,8 C 84 % 1022,1 hPa 0,0 l/m 0,0 km/h (0 Bft) N 0 0,000 mm 0,0 UV-I 0 W/m 12,1 C 14,8 C 0,0 km/h (0 Bft) 95,65 %
17.06.2019 02:54 14,8 C 12,8 C 84 % 1022,2 hPa 0,0 l/m 0,0 km/h (0 Bft) N 0 0,000 mm 0,0 UV-I 0 W/m 12,1 C 14,8 C 0,0 km/h (0 Bft) 100,00 %
17.06.2019 02:53 14,9 C 12,8 C 84 % 1022,1 hPa 0,0 l/m 0,0 km/h (0 Bft) N 0 0,000 mm 0,0 UV-I 0 W/m 12,2 C 14,9 C 0,0 km/h (0 Bft) 95,65 %
17.06.2019 02:52 14,9 C 12,8 C 84 % 1022,1 hPa 0,0 l/m 0,0 km/h (0 Bft) N 0 0,000 mm 0,0 UV-I 0 W/m 12,2 C 14,9 C 0,0 km/h (0 Bft) 91,30 %
17.06.2019 02:51 14,9 C 12,8 C 84 % 1022,2 hPa 0,0 l/m 0,0 km/h (0 Bft) N 0 0,000 mm 0,0 UV-I 0 W/m 12,2 C 14,9 C 0,0 km/h (0 Bft) 95,65 %
17.06.2019 02:50 14,9 C 12,8 C 84 % 1022,2 hPa 0,0 l/m 0,0 km/h (0 Bft) N 0 0,000 mm 0,0 UV-I 0 W/m 12,2 C 14,9 C 0,0 km/h (0 Bft) 95,65 %
17.06.2019 02:49 15,0 C 12,8 C 84 % 1022,2 hPa 0,0 l/m 0,0 km/h (0 Bft) N 0 0,000 mm 0,0 UV-I 0 W/m 12,3 C 15,0 C 0,0 km/h (0 Bft) 95,65 %
17.06.2019 02:48 15,0 C 12,8 C 84 % 1022,2 hPa 0,0 l/m 0,0 km/h (0 Bft) N 0 0,000 mm 0,0 UV-I 0 W/m 12,3 C 15,0 C 0,0 km/h (0 Bft) 91,30 %
17.06.2019 02:47 15,1 C 12,8 C 84 % 1022,2 hPa 0,0 l/m 0,0 km/h (0 Bft) N 0 0,000 mm 0,0 UV-I 0 W/m 12,4 C 15,1 C 0,0 km/h (0 Bft) 95,65 %
17.06.2019 02:46 15,1 C 12,8 C 84 % 1022,2 hPa 0,0 l/m 0,0 km/h (0 Bft) N 0 0,000 mm 0,0 UV-I 0 W/m 12,4 C 15,1 C 0,0 km/h (0 Bft) 95,65 %
17.06.2019 02:45 15,1 C 12,8 C 84 % 1022,3 hPa 0,0 l/m 0,0 km/h (0 Bft) N 0 0,000 mm 0,0 UV-I 0 W/m 12,4 C 15,1 C 0,0 km/h (0 Bft) 91,30 %
17.06.2019 02:44 15,1 C 12,8 C 84 % 1022,3 hPa 0,0 l/m 0,0 km/h (0 Bft) N 0 0,000 mm 0,0 UV-I 0 W/m 12,4 C 15,1 C 0,0 km/h (0 Bft) 91,30 %
17.06.2019 02:43 15,1 C 12,8 C 84 % 1022,2 hPa 0,0 l/m 0,0 km/h (0 Bft) N 0 0,000 mm 0,0 UV-I 0 W/m 12,4 C 15,1 C 0,0 km/h (0 Bft) 91,30 %
17.06.2019 02:42 15,1 C 12,8 C 84 % 1022,3 hPa 0,0 l/m 0,0 km/h (0 Bft) N 0 0,000 mm 0,0 UV-I 0 W/m 12,4 C 15,1 C 0,0 km/h (0 Bft) 100,00 %
17.06.2019 02:41 15,1 C 12,8 C 84 % 1022,3 hPa 0,0 l/m 0,0 km/h (0 Bft) N 0 0,000 mm 0,0 UV-I 0 W/m 12,4 C 15,1 C 0,0 km/h (0 Bft) 91,30 %
17.06.2019 02:40 15,0 C 12,8 C 84 % 1022,4 hPa 0,0 l/m 0,0 km/h (0 Bft) N 0 0,000 mm 0,0 UV-I 0 W/m 12,3 C 15,0 C 0,0 km/h (0 Bft) 95,65 %
17.06.2019 02:39 15,0 C 12,8 C 84 % 1022,4 hPa 0,0 l/m 0,0 km/h (0 Bft) W 270 0,000 mm 0,0 UV-I 0 W/m 12,3 C 15,0 C 1,6 km/h (1 Bft) 95,65 %
17.06.2019 02:38 14,9 C 12,8 C 84 % 1022,4 hPa 0,0 l/m 0,0 km/h (0 Bft) W 270 0,000 mm 0,0 UV-I 0 W/m 12,2 C 14,9 C 1,6 km/h (1 Bft) 91,30 %
17.06.2019 02:37 14,9 C 12,8 C 84 % 1022,4 hPa 0,0 l/m 0,0 km/h (0 Bft) W 270 0,000 mm 0,0 UV-I 0 W/m 12,2 C 14,9 C 1,6 km/h (1 Bft) 95,65 %
17.06.2019 02:36 14,9 C 12,8 C 84 % 1022,4 hPa 0,0 l/m 0,0 km/h (0 Bft) N 0 0,000 mm 0,0 UV-I 0 W/m 12,2 C 14,9 C 0,0 km/h (0 Bft) 95,65 %
17.06.2019 02:35 14,9 C 12,8 C 84 % 1022,3 hPa 0,0 l/m 0,0 km/h (0 Bft) N 0 0,000 mm 0,0 UV-I 0 W/m 12,2 C 14,9 C 0,0 km/h (0 Bft) 95,65 %
17.06.2019 02:34 14,9 C 12,2 C 84 % 1022,4 hPa 0,0 l/m 0,0 km/h (0 Bft) N 0 0,000 mm 0,0 UV-I 0 W/m 12,2 C 14,9 C 0,0 km/h (0 Bft) 95,65 %
17.06.2019 02:33 14,8 C 12,2 C 84 % 1022,3 hPa 0,0 l/m 0,0 km/h (0 Bft) N 0 0,000 mm 0,0 UV-I 0 W/m 12,1 C 14,8 C 0,0 km/h (0 Bft) 100,00 %
17.06.2019 02:32 14,9 C 12,2 C 84 % 1022,4 hPa 0,0 l/m 1,6 km/h (1 Bft) W 270 0,000 mm 0,0 UV-I 0 W/m 12,2 C 14,9 C 3,2 km/h (1 Bft) 95,65 %
17.06.2019 02:31 14,8 C 12,2 C 84 % 1022,3 hPa 0,0 l/m 3,2 km/h (1 Bft) W 270 0,000 mm 0,0 UV-I 0 W/m 12,1 C 14,8 C 4,8 km/h (1 Bft) 95,65 %
17.06.2019 02:30 14,8 C 12,2 C 84 % 1022,3 hPa 0,0 l/m 1,6 km/h (1 Bft) W 270 0,000 mm 0,0 UV-I 0 W/m 12,1 C 14,8 C 3,2 km/h (1 Bft) 95,65 %
17.06.2019 02:29 14,8 C 12,2 C 84 % 1022,3 hPa 0,0 l/m 0,0 km/h (0 Bft) W 270 0,000 mm 0,0 UV-I 0 W/m 12,1 C 14,8 C 3,2 km/h (1 Bft) 95,65 %
17.06.2019 02:28 14,8 C 12,2 C 84 % 1022,3 hPa 0,0 l/m 0,0 km/h (0 Bft) N 0 0,000 mm 0,0 UV-I 0 W/m 12,1 C 14,8 C 0,0 km/h (0 Bft) 91,30 %
17.06.2019 02:27 14,8 C 12,2 C 84 % 1022,3 hPa 0,0 l/m 0,0 km/h (0 Bft) W 270 0,000 mm 0,0 UV-I 0 W/m 12,1 C 14,8 C 1,6 km/h (1 Bft) 100,00 %
17.06.2019 02:26 14,8 C 12,2 C 84 % 1022,3 hPa 0,0 l/m 1,6 km/h (1 Bft) W 270 0,000 mm 0,0 UV-I 0 W/m 12,1 C 14,8 C 3,2 km/h (1 Bft) 95,65 %
17.06.2019 02:25 14,7 C 12,2 C 84 % 1022,2 hPa 0,0 l/m 0,0 km/h (0 Bft) W 270 0,000 mm 0,0 UV-I 0 W/m 12,0 C 14,7 C 3,2 km/h (1 Bft) 95,65 %
17.06.2019 02:24 14,7 C 12,2 C 84 % 1022,2 hPa 0,0 l/m 0,0 km/h (0 Bft) N 0 0,000 mm 0,0 UV-I 0 W/m 12,0 C 14,7 C 0,0 km/h (0 Bft) 95,65 %
17.06.2019 02:23 14,7 C 12,2 C 85 % 1022,3 hPa 0,0 l/m 0,0 km/h (0 Bft) N 0 0,000 mm 0,0 UV-I 0 W/m 12,2 C 14,7 C 0,0 km/h (0 Bft) 100,00 %
17.06.2019 02:22 14,7 C 12,2 C 85 % 1022,2 hPa 0,0 l/m 0,0 km/h (0 Bft) W 270 0,000 mm 0,0 UV-I 0 W/m 12,2 C 14,7 C 1,6 km/h (1 Bft) 95,65 %
17.06.2019 02:21 14,6 C 12,2 C 84 % 1022,3 hPa 0,0 l/m 1,6 km/h (1 Bft) W 270 0,000 mm 0,0 UV-I 0 W/m 11,9 C 14,6 C 3,2 km/h (1 Bft) 95,65 %
17.06.2019 02:20 14,6 C 12,2 C 85 % 1022,2 hPa 0,0 l/m 0,0 km/h (0 Bft) W 270 0,000 mm 0,0 UV-I 0 W/m 12,1 C 14,6 C 1,6 km/h (1 Bft) 100,00 %
17.06.2019 02:19 14,6 C 12,2 C 84 % 1022,3 hPa 0,0 l/m 3,2 km/h (1 Bft) W 270 0,000 mm 0,0 UV-I 0 W/m 11,9 C 14,6 C 4,8 km/h (1 Bft) 100,00 %
17.06.2019 02:18 14,6 C 12,2 C 84 % 1022,3 hPa 0,0 l/m 1,6 km/h (1 Bft) W 270 0,000 mm 0,0 UV-I 0 W/m 11,9 C 14,6 C 4,8 km/h (1 Bft) 95,65 %
17.06.2019 02:17 14,6 C 12,2 C 84 % 1022,3 hPa 0,0 l/m 0,0 km/h (0 Bft) N 0 0,000 mm 0,0 UV-I 0 W/m 11,9 C 14,6 C 0,0 km/h (0 Bft) 91,30 %
17.06.2019 02:16 14,6 C 12,2 C 84 % 1022,2 hPa 0,0 l/m 0,0 km/h (0 Bft) N 0 0,000 mm 0,0 UV-I 0 W/m 11,9 C 14,6 C 0,0 km/h (0 Bft) 100,00 %
17.06.2019 02:15 14,6 C 12,2 C 84 % 1022,2 hPa 0,0 l/m 0,0 km/h (0 Bft) W 270 0,000 mm 0,0 UV-I 0 W/m 11,9 C 14,6 C 1,6 km/h (1 Bft) 100,00 %
17.06.2019 02:14 14,6 C 12,2 C 84 % 1022,2 hPa 0,0 l/m 0,0 km/h (0 Bft) W 270 0,000 mm 0,0 UV-I 0 W/m 11,9 C 14,6 C 1,6 km/h (1 Bft) 95,65 %
17.06.2019 02:13 14,7 C 12,2 C 84 % 1022,2 hPa 0,0 l/m 0,0 km/h (0 Bft) N 0 0,000 mm 0,0 UV-I 0 W/m 12,0 C 14,7 C 0,0 km/h (0 Bft) 95,65 %
17.06.2019 02:12 14,7 C 12,2 C 84 % 1022,2 hPa 0,0 l/m 0,0 km/h (0 Bft) W 270 0,000 mm 0,0 UV-I 0 W/m 12,0 C 14,7 C 1,6 km/h (1 Bft) 100,00 %
17.06.2019 02:11 14,8 C 12,2 C 83 % 1022,2 hPa 0,0 l/m 0,0 km/h (0 Bft) W 270 0,000 mm 0,0 UV-I 0 W/m 11,9 C 14,8 C 1,6 km/h (1 Bft) 100,00 %
17.06.2019 02:10 14,9 C 12,2 C 83 % 1022,2 hPa 0,0 l/m 0,0 km/h (0 Bft) W 270 0,000 mm 0,0 UV-I 0 W/m 12,0 C 14,9 C 1,6 km/h (1 Bft) 95,65 %
17.06.2019 02:09 14,9 C 12,2 C 84 % 1022,2 hPa 0,0 l/m 1,6 km/h (1 Bft) W 270 0,000 mm 0,0 UV-I 0 W/m 12,2 C 14,9 C 3,2 km/h (1 Bft) 100,00 %
17.06.2019 02:08 14,9 C 12,2 C 84 % 1022,2 hPa 0,0 l/m 1,6 km/h (1 Bft) W 270 0,000 mm 0,0 UV-I 0 W/m 12,2 C 14,9 C 3,2 km/h (1 Bft) 100,00 %
17.06.2019 02:07 14,9 C 12,2 C 84 % 1022,2 hPa 0,0 l/m 0,0 km/h (0 Bft) W 270 0,000 mm 0,0 UV-I 0 W/m 12,2 C 14,9 C 1,6 km/h (1 Bft) 100,00 %
17.06.2019 02:06 14,9 C 12,2 C 84 % 1022,1 hPa 0,0 l/m 0,0 km/h (0 Bft) W 270 0,000 mm 0,0 UV-I 0 W/m 12,2 C 14,9 C 1,6 km/h (1 Bft) 91,30 %
17.06.2019 02:05 14,9 C 12,2 C 83 % 1022,1 hPa 0,0 l/m 1,6 km/h (1 Bft) W 270 0,000 mm 0,0 UV-I 0 W/m 12,0 C 14,9 C 3,2 km/h (1 Bft) 95,65 %
17.06.2019 02:04 14,9 C 12,2 C 83 % 1022,1 hPa 0,0 l/m 1,6 km/h (1 Bft) W 270 0,000 mm 0,0 UV-I 0 W/m 12,0 C 14,9 C 3,2 km/h (1 Bft) 95,65 %
17.06.2019 02:03 14,9 C 12,2 C 83 % 1022,1 hPa 0,0 l/m 0,0 km/h (0 Bft) N 0 0,000 mm 0,0 UV-I 0 W/m 12,0 C 14,9 C 0,0 km/h (0 Bft) 95,65 %
17.06.2019 02:02 15,0 C 12,2 C 83 % 1022,1 hPa 0,0 l/m 0,0 km/h (0 Bft) N 0 0,000 mm 0,0 UV-I 0 W/m 12,1 C 15,0 C 0,0 km/h (0 Bft) 100,00 %
17.06.2019 02:01 15,1 C 12,2 C 83 % 1022,1 hPa 0,0 l/m 0,0 km/h (0 Bft) N 0 0,000 mm 0,0 UV-I 0 W/m 12,2 C 15,1 C 0,0 km/h (0 Bft) 100,00 %
17.06.2019 02:00 15,1 C 12,2 C 83 % 1022,0 hPa 0,0 l/m 0,0 km/h (0 Bft) N 0 0,025 mm 0,0 UV-I 0 W/m 12,2 C 15,1 C 0,0 km/h (0 Bft) 100,00 %
17.06.2019 01:59 15,1 C 12,2 C 83 % 1022,0 hPa 0,0 l/m 0,0 km/h (0 Bft) N 0 0,000 mm 0,0 UV-I 0 W/m 12,2 C 15,1 C 0,0 km/h (0 Bft) 95,65 %
17.06.2019 01:58 15,1 C 12,2 C 83 % 1022,0 hPa 0,0 l/m 0,0 km/h (0 Bft) W 270 0,000 mm 0,0 UV-I 0 W/m 12,2 C 15,1 C 1,6 km/h (1 Bft) 100,00 %
17.06.2019 01:57 15,1 C 12,8 C 83 % 1022,0 hPa 0,0 l/m 0,0 km/h (0 Bft) N 0 0,000 mm 0,0 UV-I 0 W/m 12,2 C 15,1 C 0,0 km/h (0 Bft) 100,00 %
17.06.2019 01:56 15,1 C 12,8 C 83 % 1022,0 hPa 0,0 l/m 0,0 km/h (0 Bft) N 0 0,000 mm 0,0 UV-I 0 W/m 12,2 C 15,1 C 0,0 km/h (0 Bft) 91,30 %
17.06.2019 01:55 15,0 C 12,8 C 83 % 1021,9 hPa 0,0 l/m 0,0 km/h (0 Bft) W 270 0,000 mm 0,0 UV-I 0 W/m 12,1 C 15,0 C 1,6 km/h (1 Bft) 100,00 %
17.06.2019 01:54 15,0 C 12,2 C 83 % 1022,0 hPa 0,0 l/m 0,0 km/h (0 Bft) W 270 0,000 mm 0,0 UV-I 0 W/m 12,1 C 15,0 C 1,6 km/h (1 Bft) 91,30 %
17.06.2019 01:53 15,0 C 12,2 C 83 % 1022,0 hPa 0,0 l/m 0,0 km/h (0 Bft) W 270 0,000 mm 0,0 UV-I 0 W/m 12,1 C 15,0 C 1,6 km/h (1 Bft) 95,65 %
17.06.2019 01:52 15,0 C 12,2 C 83 % 1021,9 hPa 0,0 l/m 0,0 km/h (0 Bft) N 0 0,000 mm 0,0 UV-I 0 W/m 12,1 C 15,0 C 0,0 km/h (0 Bft) 100,00 %
17.06.2019 01:51 15,0 C 12,2 C 83 % 1021,8 hPa 0,0 l/m 0,0 km/h (0 Bft) W 270 0,000 mm 0,0 UV-I 0 W/m 12,1 C 15,0 C 1,6 km/h (1 Bft) 95,65 %
17.06.2019 01:50 15,0 C 12,8 C 83 % 1021,8 hPa 0,0 l/m 1,6 km/h (1 Bft) W 270 0,000 mm 0,0 UV-I 0 W/m 12,1 C 15,0 C 3,2 km/h (1 Bft) 100,00 %
17.06.2019 01:49 15,0 C 12,8 C 83 % 1021,8 hPa 0,0 l/m 3,2 km/h (1 Bft) W 270 0,000 mm 0,0 UV-I 0 W/m 12,1 C 15,0 C 4,8 km/h (1 Bft) 91,30 %
17.06.2019 01:48 15,0 C 12,8 C 83 % 1021,8 hPa 0,0 l/m 0,0 km/h (0 Bft) W 270 0,000 mm 0,0 UV-I 0 W/m 12,1 C 15,0 C 1,6 km/h (1 Bft) 100,00 %
17.06.2019 01:47 15,0 C 12,8 C 83 % 1021,7 hPa 0,0 l/m 1,6 km/h (1 Bft) W 270 0,000 mm 0,0 UV-I 0 W/m 12,1 C 15,0 C 3,2 km/h (1 Bft) 91,30 %
17.06.2019 01:46 15,0 C 12,8 C 83 % 1021,8 hPa 0,0 l/m 1,6 km/h (1 Bft) W 270 0,000 mm 0,0 UV-I 0 W/m 12,1 C 15,0 C 4,8 km/h (1 Bft) 100,00 %
17.06.2019 01:45 15,0 C 12,8 C 83 % 1021,8 hPa 0,0 l/m 0,0 km/h (0 Bft) W 270 0,000 mm 0,0 UV-I 0 W/m 12,1 C 15,0 C 3,2 km/h (1 Bft) 95,65 %
17.06.2019 01:44 15,0 C 12,8 C 83 % 1021,8 hPa 0,0 l/m 1,6 km/h (1 Bft) W 270 0,000 mm 0,0 UV-I 0 W/m 12,1 C 15,0 C 4,8 km/h (1 Bft) 95,65 %
17.06.2019 01:43 14,9 C 12,8 C 83 % 1021,8 hPa 0,0 l/m 3,2 km/h (1 Bft) W 270 0,000 mm 0,0 UV-I 0 W/m 12,0 C 14,9 C 6,4 km/h (2 Bft) 91,30 %
17.06.2019 01:42 14,9 C 12,8 C 83 % 1021,8 hPa 0,0 l/m 3,2 km/h (1 Bft) W 270 0,000 mm 0,0 UV-I 0 W/m 12,0 C 14,9 C 4,8 km/h (1 Bft) 95,65 %
17.06.2019 01:41 14,9 C 12,8 C 83 % 1021,8 hPa 0,0 l/m 3,2 km/h (1 Bft) W 270 0,000 mm 0,0 UV-I 0 W/m 12,0 C 14,9 C 6,4 km/h (2 Bft) 65,22 %
17.06.2019 01:40 15,0 C 12,8 C 83 % 1021,8 hPa 0,0 l/m 3,2 km/h (1 Bft) W 270 0,000 mm 0,0 UV-I 0 W/m 12,1 C 15,0 C 4,8 km/h (1 Bft) 86,96 %
17.06.2019 01:39 15,0 C 12,8 C 83 % 1021,8 hPa 0,0 l/m 3,2 km/h (1 Bft) W 270 0,000 mm 0,0 UV-I 0 W/m 12,1 C 15,0 C 9,7 km/h (2 Bft) 100,00 %
17.06.2019 01:38 15,1 C 12,8 C 83 % 1021,8 hPa 0,0 l/m 3,2 km/h (1 Bft) W 270 0,000 mm 0,0 UV-I 0 W/m 12,2 C 15,1 C 4,8 km/h (1 Bft) 95,65 %
17.06.2019 01:37 15,1 C 12,8 C 83 % 1021,8 hPa 0,0 l/m 6,4 km/h (2 Bft) W 270 0,000 mm 0,0 UV-I 0 W/m 12,2 C 15,1 C 9,7 km/h (2 Bft) 100,00 %
17.06.2019 01:36 15,1 C 12,8 C 83 % 1021,8 hPa 0,0 l/m 4,8 km/h (1 Bft) W 270 0,000 mm 0,0 UV-I 0 W/m 12,2 C 15,1 C 6,4 km/h (2 Bft) 100,00 %
17.06.2019 01:35 15,1 C 12,8 C 83 % 1021,9 hPa 0,0 l/m 3,2 km/h (1 Bft) W 270 0,000 mm 0,0 UV-I 0 W/m 12,2 C 15,1 C 6,4 km/h (2 Bft) 95,65 %
17.06.2019 01:34 15,1 C 12,8 C 83 % 1021,9 hPa 0,0 l/m 4,8 km/h (1 Bft) W 270 0,000 mm 0,0 UV-I 0 W/m 12,2 C 15,1 C 6,4 km/h (2 Bft) 95,65 %
17.06.2019 01:33 15,1 C 12,8 C 83 % 1021,9 hPa 0,0 l/m 1,6 km/h (1 Bft) W 270 0,000 mm 0,0 UV-I 0 W/m 12,2 C 15,1 C 3,2 km/h (1 Bft) 100,00 %
17.06.2019 01:32 15,1 C 12,8 C 83 % 1021,9 hPa 0,0 l/m 3,2 km/h (1 Bft) W 270 0,000 mm 0,0 UV-I 0 W/m 12,2 C 15,1 C 3,2 km/h (1 Bft) 100,00 %
17.06.2019 01:31 15,1 C 12,8 C 83 % 1021,9 hPa 0,0 l/m 3,2 km/h (1 Bft) W 270 0,000 mm 0,0 UV-I 0 W/m 12,2 C 15,1 C 6,4 km/h (2 Bft) 95,65 %
17.06.2019 01:30 15,2 C 12,8 C 83 % 1022,0 hPa 0,0 l/m 3,2 km/h (1 Bft) W 270 0,000 mm 0,0 UV-I 0 W/m 12,3 C 15,2 C 6,4 km/h (2 Bft) 100,00 %
17.06.2019 01:29 15,2 C 12,8 C 83 % 1022,0 hPa 0,0 l/m 3,2 km/h (1 Bft) W 270 0,000 mm 0,0 UV-I 0 W/m 12,3 C 15,2 C 6,4 km/h (2 Bft) 100,00 %
17.06.2019 01:28 15,1 C 12,8 C 83 % 1022,0 hPa 0,0 l/m 3,2 km/h (1 Bft) W 270 0,000 mm 0,0 UV-I 0 W/m 12,2 C 15,1 C 4,8 km/h (1 Bft) 100,00 %
17.06.2019 01:27 15,1 C 12,8 C 82 % 1022,1 hPa 0,0 l/m 3,2 km/h (1 Bft) W 270 0,000 mm 0,0 UV-I 0 W/m 12,0 C 15,1 C 6,4 km/h (2 Bft) 95,65 %
17.06.2019 01:26 15,2 C 12,8 C 82 % 1022,1 hPa 0,0 l/m 3,2 km/h (1 Bft) W 270 0,000 mm 0,0 UV-I 0 W/m 12,1 C 15,2 C 6,4 km/h (2 Bft) 100,00 %
17.06.2019 01:25 15,2 C 12,8 C 82 % 1022,1 hPa 0,0 l/m 3,2 km/h (1 Bft) W 270 0,000 mm 0,0 UV-I 0 W/m 12,1 C 15,2 C 4,8 km/h (1 Bft) 100,00 %
17.06.2019 01:24 15,2 C 12,8 C 82 % 1022,1 hPa 0,0 l/m 1,6 km/h (1 Bft) W 270 0,000 mm 0,0 UV-I 0 W/m 12,1 C 15,2 C 3,2 km/h (1 Bft) 100,00 %
17.06.2019 01:23 15,2 C 12,8 C 82 % 1022,1 hPa 0,0 l/m 1,6 km/h (1 Bft) W 270 0,000 mm 0,0 UV-I 0 W/m 12,1 C 15,2 C 3,2 km/h (1 Bft) 100,00 %
17.06.2019 01:22 15,2 C 12,8 C 82 % 1022,1 hPa 0,0 l/m 3,2 km/h (1 Bft) W 270 0,000 mm 0,0 UV-I 0 W/m 12,1 C 15,2 C 4,8 km/h (1 Bft) 95,65 %
17.06.2019 01:21 15,2 C 12,8 C 82 % 1022,1 hPa 0,0 l/m 3,2 km/h (1 Bft) W 270 0,000 mm 0,0 UV-I 0 W/m 12,1 C 15,2 C 4,8 km/h (1 Bft) 95,65 %
17.06.2019 01:20 15,2 C 12,8 C 82 % 1022,1 hPa 0,0 l/m 3,2 km/h (1 Bft) W 270 0,000 mm 0,0 UV-I 0 W/m 12,1 C 15,2 C 4,8 km/h (1 Bft) 95,65 %
17.06.2019 01:19 15,2 C 12,8 C 82 % 1022,1 hPa 0,0 l/m 1,6 km/h (1 Bft) W 270 0,000 mm 0,0 UV-I 0 W/m 12,1 C 15,2 C 4,8 km/h (1 Bft) 91,30 %
17.06.2019 01:18 15,2 C 12,8 C 82 % 1022,2 hPa 0,0 l/m 1,6 km/h (1 Bft) W 270 0,000 mm 0,0 UV-I 0 W/m 12,1 C 15,2 C 4,8 km/h (1 Bft) 95,65 %
17.06.2019 01:17 15,2 C 12,8 C 82 % 1022,2 hPa 0,0 l/m 1,6 km/h (1 Bft) W 270 0,000 mm 0,0 UV-I 0 W/m 12,1 C 15,2 C 4,8 km/h (1 Bft) 100,00 %
17.06.2019 01:16 15,3 C 12,8 C 82 % 1022,3 hPa 0,0 l/m 1,6 km/h (1 Bft) W 270 0,000 mm 0,0 UV-I 0 W/m 12,2 C 15,3 C 4,8 km/h (1 Bft) 95,65 %
17.06.2019 01:15 15,3 C 12,8 C 82 % 1022,2 hPa 0,0 l/m 1,6 km/h (1 Bft) W 270 0,000 mm 0,0 UV-I 0 W/m 12,2 C 15,3 C 3,2 km/h (1 Bft) 100,00 %
17.06.2019 01:14 15,3 C 12,8 C 82 % 1022,3 hPa 0,0 l/m 1,6 km/h (1 Bft) W 270 0,000 mm 0,0 UV-I 0 W/m 12,2 C 15,3 C 4,8 km/h (1 Bft) 95,65 %
17.06.2019 01:13 15,3 C 12,8 C 82 % 1022,3 hPa 0,0 l/m 1,6 km/h (1 Bft) W 270 0,000 mm 0,0 UV-I 0 W/m 12,2 C 15,3 C 3,2 km/h (1 Bft) 91,30 %
17.06.2019 01:12 15,3 C 12,8 C 82 % 1022,3 hPa 0,0 l/m 3,2 km/h (1 Bft) W 270 0,000 mm 0,0 UV-I 0 W/m 12,2 C 15,3 C 3,2 km/h (1 Bft) 100,00 %
17.06.2019 01:11 15,3 C 12,8 C 82 % 1022,4 hPa 0,0 l/m 3,2 km/h (1 Bft) W 270 0,000 mm 0,0 UV-I 0 W/m 12,2 C 15,3 C 4,8 km/h (1 Bft) 100,00 %
17.06.2019 01:10 15,2 C 12,8 C 82 % 1022,3 hPa 0,0 l/m 3,2 km/h (1 Bft) W 270 0,000 mm 0,0 UV-I 0 W/m 12,1 C 15,2 C 3,2 km/h (1 Bft) 100,00 %
17.06.2019 01:09 15,3 C 12,8 C 82 % 1022,3 hPa 0,0 l/m 1,6 km/h (1 Bft) W 270 0,000 mm 0,0 UV-I 0 W/m 12,2 C 15,3 C 3,2 km/h (1 Bft) 100,00 %
17.06.2019 01:08 15,2 C 13,3 C 82 % 1022,4 hPa 0,0 l/m 1,6 km/h (1 Bft) W 270 0,000 mm 0,0 UV-I 0 W/m 12,1 C 15,2 C 3,2 km/h (1 Bft) 95,65 %
17.06.2019 01:07 15,2 C 13,3 C 82 % 1022,4 hPa 0,0 l/m 0,0 km/h (0 Bft) N 0 0,000 mm 0,0 UV-I 0 W/m 12,1 C 15,2 C 4,8 km/h (1 Bft) 95,65 %
17.06.2019 01:06 15,2 C 13,3 C 82 % 1022,5 hPa 0,0 l/m 1,6 km/h (1 Bft) W 270 0,000 mm 0,0 UV-I 0 W/m 12,1 C 15,2 C 4,8 km/h (1 Bft) 91,30 %
17.06.2019 01:05 15,2 C 13,3 C 82 % 1022,5 hPa 0,0 l/m 1,6 km/h (1 Bft) W 270 0,000 mm 0,0 UV-I 0 W/m 12,1 C 15,2 C 3,2 km/h (1 Bft) 100,00 %
17.06.2019 01:04 15,2 C 13,3 C 82 % 1022,5 hPa 0,0 l/m 0,0 km/h (0 Bft) W 270 0,000 mm 0,0 UV-I 0 W/m 12,1 C 15,2 C 1,6 km/h (1 Bft) 100,00 %
17.06.2019 01:03 15,2 C 13,3 C 82 % 1022,5 hPa 0,0 l/m 1,6 km/h (1 Bft) W 270 0,000 mm 0,0 UV-I 0 W/m 12,1 C 15,2 C 3,2 km/h (1 Bft) 100,00 %
17.06.2019 01:02 15,2 C 13,3 C 82 % 1022,6 hPa 0,0 l/m 1,6 km/h (1 Bft) W 270 0,000 mm 0,0 UV-I 0 W/m 12,1 C 15,2 C 3,2 km/h (1 Bft) 91,30 %
17.06.2019 01:01 15,1 C 13,3 C 82 % 1022,5 hPa 0,0 l/m 0,0 km/h (0 Bft) W 270 0,000 mm 0,0 UV-I 0 W/m 12,0 C 15,1 C 1,6 km/h (1 Bft) 95,65 %
17.06.2019 01:00 15,2 C 13,3 C 82 % 1022,5 hPa 0,0 l/m 0,0 km/h (0 Bft) W 270 0,025 mm 0,0 UV-I 0 W/m 12,1 C 15,2 C 1,6 km/h (1 Bft) 91,30 %
17.06.2019 00:59 15,2 C 13,3 C 82 % 1022,5 hPa 0,0 l/m 0,0 km/h (0 Bft) W 270 0,000 mm 0,0 UV-I 0 W/m 12,1 C 15,2 C 1,6 km/h (1 Bft) 91,30 %
17.06.2019 00:58 15,2 C 13,3 C 82 % 1022,5 hPa 0,0 l/m 0,0 km/h (0 Bft) N 0 0,000 mm 0,0 UV-I 0 W/m 12,1 C 15,2 C 0,0 km/h (0 Bft) 95,65 %
17.06.2019 00:57 15,2 C 13,3 C 82 % 1022,5 hPa 0,0 l/m 0,0 km/h (0 Bft) N 0 0,000 mm 0,0 UV-I 0 W/m 12,1 C 15,2 C 0,0 km/h (0 Bft) 95,65 %
17.06.2019 00:56 15,2 C 13,3 C 82 % 1022,5 hPa 0,0 l/m 0,0 km/h (0 Bft) W 270 0,000 mm 0,0 UV-I 0 W/m 12,1 C 15,2 C 1,6 km/h (1 Bft) 95,65 %
17.06.2019 00:55 15,2 C 13,3 C 82 % 1022,5 hPa 0,0 l/m 0,0 km/h (0 Bft) W 270 0,000 mm 0,0 UV-I 0 W/m 12,1 C 15,2 C 1,6 km/h (1 Bft) 86,96 %
17.06.2019 00:54 15,2 C 13,3 C 82 % 1022,6 hPa 0,0 l/m 0,0 km/h (0 Bft) N 0 0,000 mm 0,0 UV-I 0 W/m 12,1 C 15,2 C 0,0 km/h (0 Bft) 95,65 %
17.06.2019 00:53 15,3 C 13,9 C 82 % 1022,5 hPa 0,0 l/m 0,0 km/h (0 Bft) N 0 0,000 mm 0,0 UV-I 0 W/m 12,2 C 15,3 C 0,0 km/h (0 Bft) 91,30 %
17.06.2019 00:52 15,3 C 13,9 C 82 % 1022,6 hPa 0,0 l/m 0,0 km/h (0 Bft) N 0 0,000 mm 0,0 UV-I 0 W/m 12,2 C 15,3 C 0,0 km/h (0 Bft) 91,30 %
17.06.2019 00:51 15,3 C 13,9 C 82 % 1022,6 hPa 0,0 l/m 0,0 km/h (0 Bft) W 270 0,000 mm 0,0 UV-I 0 W/m 12,2 C 15,3 C 1,6 km/h (1 Bft) 91,30 %
17.06.2019 00:50 15,4 C 13,9 C 82 % 1022,6 hPa 0,0 l/m 0,0 km/h (0 Bft) W 270 0,000 mm 0,0 UV-I 0 W/m 12,3 C 15,4 C 1,6 km/h (1 Bft) 91,30 %
17.06.2019 00:49 15,4 C 13,9 C 81 % 1022,6 hPa 0,0 l/m 0,0 km/h (0 Bft) W 270 0,000 mm 0,0 UV-I 0 W/m 12,2 C 15,4 C 1,6 km/h (1 Bft) 91,30 %
17.06.2019 00:48 15,4 C 13,9 C 81 % 1022,5 hPa 0,0 l/m 0,0 km/h (0 Bft) N 0 0,000 mm 0,0 UV-I 0 W/m 12,2 C 15,4 C 0,0 km/h (0 Bft) 95,65 %
17.06.2019 00:47 15,4 C 13,9 C 81 % 1022,5 hPa 0,0 l/m 0,0 km/h (0 Bft) W 270 0,000 mm 0,0 UV-I 0 W/m 12,2 C 15,4 C 1,6 km/h (1 Bft) 95,65 %
17.06.2019 00:46 15,4 C 13,9 C 81 % 1022,5 hPa 0,0 l/m 1,6 km/h (1 Bft) W 270 0,000 mm 0,0 UV-I 0 W/m 12,2 C 15,4 C 3,2 km/h (1 Bft) 86,96 %
17.06.2019 00:45 15,4 C 13,9 C 81 % 1022,6 hPa 0,0 l/m 1,6 km/h (1 Bft) W 270 0,000 mm 0,0 UV-I 0 W/m 12,2 C 15,4 C 3,2 km/h (1 Bft) 95,65 %
17.06.2019 00:44 15,4 C 13,9 C 81 % 1022,6 hPa 0,0 l/m 1,6 km/h (1 Bft) W 270 0,000 mm 0,0 UV-I 0 W/m 12,2 C 15,4 C 1,6 km/h (1 Bft) 95,65 %
17.06.2019 00:43 15,5 C 13,9 C 81 % 1022,6 hPa 0,0 l/m 0,0 km/h (0 Bft) W 270 0,000 mm 0,0 UV-I 0 W/m 12,3 C 15,5 C 1,6 km/h (1 Bft) 100,00 %
17.06.2019 00:42 15,5 C 13,9 C 81 % 1022,7 hPa 0,0 l/m 1,6 km/h (1 Bft) W 270 0,000 mm 0,0 UV-I 0 W/m 12,3 C 15,5 C 1,6 km/h (1 Bft) 95,65 %
17.06.2019 00:41 15,5 C 13,9 C 81 % 1022,7 hPa 0,0 l/m 1,6 km/h (1 Bft) W 270 0,000 mm 0,0 UV-I 0 W/m 12,3 C 15,5 C 3,2 km/h (1 Bft) 95,65 %
17.06.2019 00:40 15,5 C 13,9 C 81 % 1022,7 hPa 0,0 l/m 1,6 km/h (1 Bft) W 270 0,000 mm 0,0 UV-I 0 W/m 12,3 C 15,5 C 1,6 km/h (1 Bft) 100,00 %
17.06.2019 00:39 15,5 C 13,9 C 81 % 1022,7 hPa 0,0 l/m 0,0 km/h (0 Bft) W 270 0,000 mm 0,0 UV-I 0 W/m 12,3 C 15,5 C 3,2 km/h (1 Bft) 95,65 %
17.06.2019 00:38 15,5 C 13,9 C 81 % 1022,8 hPa 0,0 l/m 1,6 km/h (1 Bft) W 270 0,000 mm 0,0 UV-I 0 W/m 12,3 C 15,5 C 3,2 km/h (1 Bft) 91,30 %
17.06.2019 00:37 15,5 C 13,9 C 81 % 1022,8 hPa 0,0 l/m 1,6 km/h (1 Bft) W 270 0,000 mm 0,0 UV-I 0 W/m 12,3 C 15,5 C 3,2 km/h (1 Bft) 95,65 %
17.06.2019 00:36 15,4 C 13,9 C 81 % 1022,8 hPa 0,0 l/m 1,6 km/h (1 Bft) W 270 0,000 mm 0,0 UV-I 0 W/m 12,2 C 15,4 C 3,2 km/h (1 Bft) 100,00 %
17.06.2019 00:35 15,4 C 14,4 C 81 % 1022,8 hPa 0,0 l/m 0,0 km/h (0 Bft) W 270 0,000 mm 0,0 UV-I 0 W/m 12,2 C 15,4 C 1,6 km/h (1 Bft) 95,65 %
17.06.2019 00:34 15,5 C 14,4 C 81 % 1022,8 hPa 0,0 l/m 1,6 km/h (1 Bft) W 270 0,000 mm 0,0 UV-I 0 W/m 12,3 C 15,5 C 3,2 km/h (1 Bft) 100,00 %
17.06.2019 00:33 15,5 C 14,4 C 81 % 1022,8 hPa 0,0 l/m 1,6 km/h (1 Bft) W 270 0,000 mm 0,0 UV-I 0 W/m 12,3 C 15,5 C 3,2 km/h (1 Bft) 95,65 %
17.06.2019 00:32 15,6 C 14,4 C 81 % 1022,8 hPa 0,0 l/m 1,6 km/h (1 Bft) W 270 0,000 mm 0,0 UV-I 0 W/m 12,3 C 15,6 C 3,2 km/h (1 Bft) 95,65 %
17.06.2019 00:31 15,6 C 14,4 C 81 % 1022,9 hPa 0,0 l/m 1,6 km/h (1 Bft) W 270 0,000 mm 0,0 UV-I 0 W/m 12,3 C 15,6 C 3,2 km/h (1 Bft) 95,65 %
17.06.2019 00:30 15,6 C 14,4 C 82 % 1022,8 hPa 0,0 l/m 0,0 km/h (0 Bft) N 0 0,000 mm 0,0 UV-I 0 W/m 12,5 C 15,6 C 0,0 km/h (0 Bft) 95,65 %
17.06.2019 00:29 15,6 C 14,4 C 82 % 1022,9 hPa 0,0 l/m 0,0 km/h (0 Bft) W 270 0,000 mm 0,0 UV-I 0 W/m 12,5 C 15,6 C 1,6 km/h (1 Bft) 100,00 %
17.06.2019 00:28 15,6 C 14,4 C 82 % 1022,8 hPa 0,0 l/m 0,0 km/h (0 Bft) N 0 0,000 mm 0,0 UV-I 0 W/m 12,5 C 15,6 C 0,0 km/h (0 Bft) 95,65 %
17.06.2019 00:27 15,7 C 14,4 C 81 % 1022,8 hPa 0,0 l/m 0,0 km/h (0 Bft) W 270 0,000 mm 0,0 UV-I 0 W/m 12,4 C 15,7 C 1,6 km/h (1 Bft) 100,00 %
17.06.2019 00:26 15,7 C 14,4 C 81 % 1022,8 hPa 0,0 l/m 0,0 km/h (0 Bft) W 270 0,000 mm 0,0 UV-I 0 W/m 12,4 C 15,7 C 1,6 km/h (1 Bft) 95,65 %
17.06.2019 00:25 15,7 C 14,4 C 81 % 1022,8 hPa 0,0 l/m 0,0 km/h (0 Bft) N 0 0,000 mm 0,0 UV-I 0 W/m 12,4 C 15,7 C 0,0 km/h (0 Bft) 95,65 %
17.06.2019 00:24 15,7 C 14,4 C 81 % 1022,9 hPa 0,0 l/m 0,0 km/h (0 Bft) N 0 0,000 mm 0,0 UV-I 0 W/m 12,4 C 15,7 C 0,0 km/h (0 Bft) 95,65 %
17.06.2019 00:23 15,7 C 14,4 C 81 % 1022,8 hPa 0,0 l/m 0,0 km/h (0 Bft) N 0 0,000 mm 0,0 UV-I 0 W/m 12,4 C 15,7 C 0,0 km/h (0 Bft) 100,00 %
17.06.2019 00:22 15,7 C 14,4 C 81 % 1022,8 hPa 0,0 l/m 1,6 km/h (1 Bft) W 270 0,000 mm 0,0 UV-I 0 W/m 12,4 C 15,7 C 3,2 km/h (1 Bft) 100,00 %
17.06.2019 00:21 15,7 C 14,4 C 81 % 1022,8 hPa 0,0 l/m 1,6 km/h (1 Bft) W 270 0,000 mm 0,0 UV-I 0 W/m 12,4 C 15,7 C 3,2 km/h (1 Bft) 100,00 %
17.06.2019 00:20 15,7 C 14,4 C 80 % 1022,8 hPa 0,0 l/m 0,0 km/h (0 Bft) W 270 0,000 mm 0,0 UV-I 0 W/m 12,3 C 15,7 C 3,2 km/h (1 Bft) 95,65 %
17.06.2019 00:19 15,7 C 14,4 C 80 % 1022,8 hPa 0,0 l/m 1,6 km/h (1 Bft) W 270 0,000 mm 0,0 UV-I 0 W/m 12,3 C 15,7 C 3,2 km/h (1 Bft) 100,00 %
17.06.2019 00:18 15,8 C 14,4 C 80 % 1022,8 hPa 0,0 l/m 0,0 km/h (0 Bft) W 270 0,000 mm 0,0 UV-I 0 W/m 12,4 C 15,8 C 1,6 km/h (1 Bft) 95,65 %
17.06.2019 00:17 15,8 C 14,4 C 80 % 1022,8 hPa 0,0 l/m 1,6 km/h (1 Bft) W 270 0,000 mm 0,0 UV-I 0 W/m 12,4 C 15,8 C 3,2 km/h (1 Bft) 95,65 %
17.06.2019 00:16 15,8 C 14,4 C 80 % 1022,8 hPa 0,0 l/m 0,0 km/h (0 Bft) W 270 0,000 mm 0,0 UV-I 0 W/m 12,4 C 15,8 C 1,6 km/h (1 Bft) 100,00 %
17.06.2019 00:15 15,8 C 14,4 C 80 % 1022,8 hPa 0,0 l/m 0,0 km/h (0 Bft) W 270 0,000 mm 0,0 UV-I 0 W/m 12,4 C 15,8 C 1,6 km/h (1 Bft) 100,00 %
17.06.2019 00:14 15,8 C 14,4 C 80 % 1022,8 hPa 0,0 l/m 1,6 km/h (1 Bft) W 270 0,000 mm 0,0 UV-I 0 W/m 12,4 C 15,8 C 3,2 km/h (1 Bft) 100,00 %
17.06.2019 00:13 15,8 C 14,4 C 80 % 1022,8 hPa 0,0 l/m 1,6 km/h (1 Bft) W 270 0,000 mm 0,0 UV-I 0 W/m 12,4 C 15,8 C 3,2 km/h (1 Bft) 100,00 %
17.06.2019 00:12 15,8 C 14,4 C 80 % 1022,9 hPa 0,0 l/m 1,6 km/h (1 Bft) W 270 0,000 mm 0,0 UV-I 0 W/m 12,4 C 15,8 C 3,2 km/h (1 Bft) 95,65 %
17.06.2019 00:11 15,8 C 14,4 C 80 % 1022,8 hPa 0,0 l/m 0,0 km/h (0 Bft) W 270 0,000 mm 0,0 UV-I 0 W/m 12,4 C 15,8 C 1,6 km/h (1 Bft) 95,65 %
17.06.2019 00:10 15,8 C 14,4 C 81 % 1022,8 hPa 0,0 l/m 1,6 km/h (1 Bft) W 270 0,000 mm 0,0 UV-I 0 W/m 12,5 C 15,8 C 3,2 km/h (1 Bft) 95,65 %
17.06.2019 00:09 15,8 C 14,4 C 80 % 1022,8 hPa 0,0 l/m 1,6 km/h (1 Bft) W 270 0,000 mm 0,0 UV-I 0 W/m 12,4 C 15,8 C 1,6 km/h (1 Bft) 100,00 %
17.06.2019 00:08 15,8 C 14,4 C 80 % 1022,8 hPa 0,0 l/m 1,6 km/h (1 Bft) W 270 0,000 mm 0,0 UV-I 0 W/m 12,4 C 15,8 C 3,2 km/h (1 Bft) 100,00 %
17.06.2019 00:07 15,9 C 14,4 C 80 % 1022,8 hPa 0,0 l/m 1,6 km/h (1 Bft) W 270 0,000 mm 0,0 UV-I 0 W/m 12,5 C 15,9 C 3,2 km/h (1 Bft) 100,00 %
17.06.2019 00:06 15,9 C 14,4 C 80 % 1022,8 hPa 0,0 l/m 0,0 km/h (0 Bft) W 270 0,000 mm 0,0 UV-I 0 W/m 12,5 C 15,9 C 1,6 km/h (1 Bft) 100,00 %
17.06.2019 00:05 15,9 C 14,4 C 80 % 1022,8 hPa 0,0 l/m 1,6 km/h (1 Bft) W 270 0,000 mm 0,0 UV-I 0 W/m 12,5 C 15,9 C 1,6 km/h (1 Bft) 95,65 %
17.06.2019 00:04 15,9 C 15,0 C 80 % 1022,8 hPa 0,0 l/m 0,0 km/h (0 Bft) W 270 0,000 mm 0,0 UV-I 0 W/m 12,5 C 15,9 C 1,6 km/h (1 Bft) 95,65 %
17.06.2019 00:03 15,9 C 15,0 C 80 % 1022,8 hPa 0,0 l/m 1,6 km/h (1 Bft) W 270 0,000 mm 0,0 UV-I 0 W/m 12,5 C 15,9 C 3,2 km/h (1 Bft) 95,65 %
17.06.2019 00:02 15,9 C 15,0 C 80 % 1022,8 hPa 0,0 l/m 1,6 km/h (1 Bft) W 270 0,000 mm 0,0 UV-I 0 W/m 12,5 C 15,9 C 1,6 km/h (1 Bft) 91,30 %
17.06.2019 00:01 15,9 C 15,0 C 80 % 1022,7 hPa 0,0 l/m 0,0 km/h (0 Bft) W 270 0,000 mm 0,0 UV-I 0 W/m 12,5 C 15,9 C 1,6 km/h (1 Bft) 95,65 %
17.06.2019 00:00 15,9 C 15,0 C 80 % 1022,7 hPa 0,0 l/m 0,0 km/h (0 Bft) W 270 0,025 mm 0,0 UV-I 0 W/m 12,5 C 15,9 C 1,6 km/h (1 Bft) 95,65 %
_ Min-Zeit 02:14 01:51 14:44 18:48 - 00:00 - - - - - 02:14 03:22 00:23 01:41
Minimum _ 14,6 C 12,2 C 60 % 1018,4 hPa - 0,0 km/h (0 Bft) - - - - - 11,9 C 14,2 C 0,0 km/h (0 Bft) 65,22 %
_ Max-Zeit 15:04 13:26 04:32 00:12 00:00 15:35 - - 15:00 13:00 13:03 13:26 13:16 16:16 00:06
Maximum _ 23,3 C 26,1 C 88 % 1022,9 hPa 0,0 l/m 22,5 km/h
O (4 Bft)
- - 0,559 mm 6,4 UV-I 1093 W/m 17,9 C 21,9 C 33,8 km/h
O-NO (5 Bft)
100,00 %
Durchschnitt _ 18,3 C 18,7 C 78 % 1021,1 hPa #0,0 l/m 8,1 km/h (2 Bft) O - #4,213 mm 2,8 UV-I 459 W/m 14,2 C 17,2 C 12,5 km/h (3 Bft) 95,17 %